<?xml version="1.0" encoding="UTF-8" standalone="no" ?>
<gpx xmlns="http://www.topografix.com/GPX/1/1" xmlns:xsi="http://www.w3.org/2001/XMLSchema-instance" xsi:schemaLocation="http://www.topografix.com/GPX/1/1 http://www.topografix.com/GPX/1/1/gpx.xsd" version="1.1" creator="VisuGPX - https://www.visugpx.com">
  <metadata>
    <name>MercaTour 2022-09-09_Fri J3</name>
  </metadata>
  <trk>
    <name><![CDATA[MercaTour 2022-09-09_Fri J3_1]]></name>
    <trkseg>
      <trkpt lat="43.93806" lon="7.51371">
        <ele>350</ele>
        <time>2022-09-09T06:41:54Z</time>
      </trkpt>
      <trkpt lat="43.93809" lon="7.51377">
        <ele>343</ele>
        <time>2022-09-09T06:42:09Z</time>
      </trkpt>
      <trkpt lat="43.93815" lon="7.51362">
        <ele>340</ele>
        <time>2022-09-09T06:42:24Z</time>
      </trkpt>
      <trkpt lat="43.93843" lon="7.51316">
        <ele>340</ele>
        <time>2022-09-09T06:42:39Z</time>
      </trkpt>
      <trkpt lat="43.93839" lon="7.51319">
        <ele>340</ele>
        <time>2022-09-09T06:42:54Z</time>
      </trkpt>
      <trkpt lat="43.93863" lon="7.51297">
        <ele>340</ele>
        <time>2022-09-09T06:43:10Z</time>
      </trkpt>
      <trkpt lat="43.93879" lon="7.51274">
        <ele>342</ele>
        <time>2022-09-09T06:43:26Z</time>
      </trkpt>
      <trkpt lat="43.93885" lon="7.51244">
        <ele>344</ele>
        <time>2022-09-09T06:43:42Z</time>
      </trkpt>
      <trkpt lat="43.93893" lon="7.51224">
        <ele>348</ele>
        <time>2022-09-09T06:43:57Z</time>
      </trkpt>
      <trkpt lat="43.93924" lon="7.51213">
        <ele>355</ele>
        <time>2022-09-09T06:44:13Z</time>
      </trkpt>
      <trkpt lat="43.93921" lon="7.51249">
        <ele>359</ele>
        <time>2022-09-09T06:44:28Z</time>
      </trkpt>
      <trkpt lat="43.93922" lon="7.51282">
        <ele>363</ele>
        <time>2022-09-09T06:44:43Z</time>
      </trkpt>
      <trkpt lat="43.93951" lon="7.5129">
        <ele>363</ele>
        <time>2022-09-09T06:44:59Z</time>
      </trkpt>
      <trkpt lat="43.93977" lon="7.51297">
        <ele>365</ele>
        <time>2022-09-09T06:45:14Z</time>
      </trkpt>
      <trkpt lat="43.94002" lon="7.51304">
        <ele>367</ele>
        <time>2022-09-09T06:45:30Z</time>
      </trkpt>
      <trkpt lat="43.94028" lon="7.51312">
        <ele>370</ele>
        <time>2022-09-09T06:45:45Z</time>
      </trkpt>
      <trkpt lat="43.94042" lon="7.51316">
        <ele>370</ele>
        <time>2022-09-09T06:46:00Z</time>
      </trkpt>
      <trkpt lat="43.94064" lon="7.51323">
        <ele>372</ele>
        <time>2022-09-09T06:46:16Z</time>
      </trkpt>
      <trkpt lat="43.94118" lon="7.51342">
        <ele>374</ele>
        <time>2022-09-09T06:46:31Z</time>
      </trkpt>
      <trkpt lat="43.94186" lon="7.51363">
        <ele>372</ele>
        <time>2022-09-09T06:46:47Z</time>
      </trkpt>
      <trkpt lat="43.94266" lon="7.51374">
        <ele>373</ele>
        <time>2022-09-09T06:47:03Z</time>
      </trkpt>
      <trkpt lat="43.94333" lon="7.51406">
        <ele>374</ele>
        <time>2022-09-09T06:47:18Z</time>
      </trkpt>
      <trkpt lat="43.94385" lon="7.51461">
        <ele>375</ele>
        <time>2022-09-09T06:47:34Z</time>
      </trkpt>
      <trkpt lat="43.944" lon="7.51467">
        <ele>375</ele>
        <time>2022-09-09T06:47:49Z</time>
      </trkpt>
      <trkpt lat="43.94409" lon="7.51458">
        <ele>377</ele>
        <time>2022-09-09T06:48:05Z</time>
      </trkpt>
      <trkpt lat="43.94437" lon="7.51435">
        <ele>378</ele>
        <time>2022-09-09T06:48:20Z</time>
      </trkpt>
      <trkpt lat="43.9446" lon="7.5142">
        <ele>380</ele>
        <time>2022-09-09T06:48:36Z</time>
      </trkpt>
      <trkpt lat="43.94478" lon="7.51398">
        <ele>382</ele>
        <time>2022-09-09T06:48:51Z</time>
      </trkpt>
      <trkpt lat="43.94497" lon="7.51378">
        <ele>385</ele>
        <time>2022-09-09T06:49:06Z</time>
      </trkpt>
      <trkpt lat="43.94519" lon="7.51366">
        <ele>390</ele>
        <time>2022-09-09T06:49:21Z</time>
      </trkpt>
      <trkpt lat="43.94543" lon="7.51378">
        <ele>392</ele>
        <time>2022-09-09T06:49:37Z</time>
      </trkpt>
      <trkpt lat="43.94568" lon="7.51382">
        <ele>398</ele>
        <time>2022-09-09T06:49:52Z</time>
      </trkpt>
      <trkpt lat="43.94596" lon="7.51384">
        <ele>402</ele>
        <time>2022-09-09T06:50:07Z</time>
      </trkpt>
      <trkpt lat="43.94624" lon="7.51386">
        <ele>406</ele>
        <time>2022-09-09T06:50:23Z</time>
      </trkpt>
      <trkpt lat="43.94656" lon="7.51396">
        <ele>409</ele>
        <time>2022-09-09T06:50:38Z</time>
      </trkpt>
      <trkpt lat="43.94679" lon="7.51417">
        <ele>412</ele>
        <time>2022-09-09T06:50:54Z</time>
      </trkpt>
      <trkpt lat="43.94696" lon="7.51441">
        <ele>413</ele>
        <time>2022-09-09T06:51:09Z</time>
      </trkpt>
      <trkpt lat="43.9472" lon="7.51465">
        <ele>417</ele>
        <time>2022-09-09T06:51:24Z</time>
      </trkpt>
      <trkpt lat="43.9474" lon="7.51447">
        <ele>421</ele>
        <time>2022-09-09T06:51:39Z</time>
      </trkpt>
      <trkpt lat="43.94758" lon="7.51429">
        <ele>426</ele>
        <time>2022-09-09T06:51:55Z</time>
      </trkpt>
      <trkpt lat="43.94779" lon="7.51411">
        <ele>431</ele>
        <time>2022-09-09T06:52:10Z</time>
      </trkpt>
      <trkpt lat="43.948" lon="7.51396">
        <ele>435</ele>
        <time>2022-09-09T06:52:25Z</time>
      </trkpt>
      <trkpt lat="43.94824" lon="7.51379">
        <ele>438</ele>
        <time>2022-09-09T06:52:41Z</time>
      </trkpt>
      <trkpt lat="43.94845" lon="7.51362">
        <ele>442</ele>
        <time>2022-09-09T06:52:56Z</time>
      </trkpt>
      <trkpt lat="43.94872" lon="7.51371">
        <ele>446</ele>
        <time>2022-09-09T06:53:12Z</time>
      </trkpt>
      <trkpt lat="43.9487" lon="7.51341">
        <ele>447</ele>
        <time>2022-09-09T06:53:27Z</time>
      </trkpt>
      <trkpt lat="43.94875" lon="7.51333">
        <ele>449</ele>
        <time>2022-09-09T06:53:43Z</time>
      </trkpt>
      <trkpt lat="43.94876" lon="7.51332">
        <ele>449</ele>
        <time>2022-09-09T06:53:58Z</time>
      </trkpt>
      <trkpt lat="43.94875" lon="7.51337">
        <ele>450</ele>
        <time>2022-09-09T06:54:14Z</time>
      </trkpt>
      <trkpt lat="43.94889" lon="7.51371">
        <ele>452</ele>
        <time>2022-09-09T06:54:29Z</time>
      </trkpt>
      <trkpt lat="43.94902" lon="7.51402">
        <ele>455</ele>
        <time>2022-09-09T06:54:44Z</time>
      </trkpt>
      <trkpt lat="43.94906" lon="7.51441">
        <ele>460</ele>
        <time>2022-09-09T06:55:00Z</time>
      </trkpt>
      <trkpt lat="43.949" lon="7.51476">
        <ele>463</ele>
        <time>2022-09-09T06:55:15Z</time>
      </trkpt>
      <trkpt lat="43.94919" lon="7.51467">
        <ele>467</ele>
        <time>2022-09-09T06:55:31Z</time>
      </trkpt>
      <trkpt lat="43.94915" lon="7.51461">
        <ele>468</ele>
        <time>2022-09-09T06:55:46Z</time>
      </trkpt>
      <trkpt lat="43.94924" lon="7.51447">
        <ele>470</ele>
        <time>2022-09-09T06:56:01Z</time>
      </trkpt>
      <trkpt lat="43.94933" lon="7.51401">
        <ele>473</ele>
        <time>2022-09-09T06:56:17Z</time>
      </trkpt>
      <trkpt lat="43.94923" lon="7.51352">
        <ele>475</ele>
        <time>2022-09-09T06:56:32Z</time>
      </trkpt>
      <trkpt lat="43.94913" lon="7.51305">
        <ele>478</ele>
        <time>2022-09-09T06:56:47Z</time>
      </trkpt>
      <trkpt lat="43.94893" lon="7.51262">
        <ele>479</ele>
        <time>2022-09-09T06:57:03Z</time>
      </trkpt>
      <trkpt lat="43.94876" lon="7.51242">
        <ele>482</ele>
        <time>2022-09-09T06:57:19Z</time>
      </trkpt>
      <trkpt lat="43.94836" lon="7.51269">
        <ele>483</ele>
        <time>2022-09-09T06:57:34Z</time>
      </trkpt>
      <trkpt lat="43.94794" lon="7.51245">
        <ele>482</ele>
        <time>2022-09-09T06:57:50Z</time>
      </trkpt>
      <trkpt lat="43.94764" lon="7.5121">
        <ele>483</ele>
        <time>2022-09-09T06:58:06Z</time>
      </trkpt>
      <trkpt lat="43.94732" lon="7.51174">
        <ele>486</ele>
        <time>2022-09-09T06:58:22Z</time>
      </trkpt>
      <trkpt lat="43.9471" lon="7.51137">
        <ele>491</ele>
        <time>2022-09-09T06:58:37Z</time>
      </trkpt>
      <trkpt lat="43.94675" lon="7.51116">
        <ele>495</ele>
        <time>2022-09-09T06:58:52Z</time>
      </trkpt>
      <trkpt lat="43.94634" lon="7.51118">
        <ele>497</ele>
        <time>2022-09-09T06:59:07Z</time>
      </trkpt>
      <trkpt lat="43.94597" lon="7.5109">
        <ele>499</ele>
        <time>2022-09-09T06:59:22Z</time>
      </trkpt>
      <trkpt lat="43.94561" lon="7.51064">
        <ele>501</ele>
        <time>2022-09-09T06:59:38Z</time>
      </trkpt>
      <trkpt lat="43.94525" lon="7.51038">
        <ele>502</ele>
        <time>2022-09-09T06:59:54Z</time>
      </trkpt>
      <trkpt lat="43.94492" lon="7.51011">
        <ele>504</ele>
        <time>2022-09-09T07:00:09Z</time>
      </trkpt>
      <trkpt lat="43.94455" lon="7.50988">
        <ele>505</ele>
        <time>2022-09-09T07:00:25Z</time>
      </trkpt>
      <trkpt lat="43.94423" lon="7.50974">
        <ele>504</ele>
        <time>2022-09-09T07:00:40Z</time>
      </trkpt>
      <trkpt lat="43.94387" lon="7.5096">
        <ele>505</ele>
        <time>2022-09-09T07:00:55Z</time>
      </trkpt>
      <trkpt lat="43.94345" lon="7.50937">
        <ele>509</ele>
        <time>2022-09-09T07:01:11Z</time>
      </trkpt>
      <trkpt lat="43.94315" lon="7.50895">
        <ele>514</ele>
        <time>2022-09-09T07:01:26Z</time>
      </trkpt>
      <trkpt lat="43.9431" lon="7.50834">
        <ele>517.9</ele>
        <time>2022-09-09T07:01:42Z</time>
      </trkpt>
      <trkpt lat="43.94295" lon="7.50777">
        <ele>521</ele>
        <time>2022-09-09T07:01:58Z</time>
      </trkpt>
      <trkpt lat="43.94275" lon="7.50729">
        <ele>521</ele>
        <time>2022-09-09T07:02:13Z</time>
      </trkpt>
      <trkpt lat="43.94264" lon="7.50678">
        <ele>525</ele>
        <time>2022-09-09T07:02:29Z</time>
      </trkpt>
      <trkpt lat="43.94261" lon="7.50625">
        <ele>526</ele>
        <time>2022-09-09T07:02:45Z</time>
      </trkpt>
      <trkpt lat="43.94242" lon="7.50575">
        <ele>529</ele>
        <time>2022-09-09T07:03:00Z</time>
      </trkpt>
      <trkpt lat="43.94246" lon="7.50526">
        <ele>534</ele>
        <time>2022-09-09T07:03:16Z</time>
      </trkpt>
      <trkpt lat="43.94256" lon="7.50473">
        <ele>535.7</ele>
        <time>2022-09-09T07:03:31Z</time>
      </trkpt>
      <trkpt lat="43.94262" lon="7.50418">
        <ele>545</ele>
        <time>2022-09-09T07:03:46Z</time>
      </trkpt>
      <trkpt lat="43.94274" lon="7.5037">
        <ele>549</ele>
        <time>2022-09-09T07:04:01Z</time>
      </trkpt>
      <trkpt lat="43.94273" lon="7.50314">
        <ele>552</ele>
        <time>2022-09-09T07:04:17Z</time>
      </trkpt>
      <trkpt lat="43.94276" lon="7.50262">
        <ele>553</ele>
        <time>2022-09-09T07:04:32Z</time>
      </trkpt>
      <trkpt lat="43.94271" lon="7.50207">
        <ele>557</ele>
        <time>2022-09-09T07:04:47Z</time>
      </trkpt>
      <trkpt lat="43.94273" lon="7.50147">
        <ele>557</ele>
        <time>2022-09-09T07:05:02Z</time>
      </trkpt>
      <trkpt lat="43.94279" lon="7.50096">
        <ele>560</ele>
        <time>2022-09-09T07:05:17Z</time>
      </trkpt>
      <trkpt lat="43.94291" lon="7.50047">
        <ele>564</ele>
        <time>2022-09-09T07:05:33Z</time>
      </trkpt>
      <trkpt lat="43.94294" lon="7.49995">
        <ele>568</ele>
        <time>2022-09-09T07:05:48Z</time>
      </trkpt>
      <trkpt lat="43.94307" lon="7.49947">
        <ele>571</ele>
        <time>2022-09-09T07:06:03Z</time>
      </trkpt>
      <trkpt lat="43.94319" lon="7.499">
        <ele>576</ele>
        <time>2022-09-09T07:06:19Z</time>
      </trkpt>
      <trkpt lat="43.94305" lon="7.49848">
        <ele>575</ele>
        <time>2022-09-09T07:06:34Z</time>
      </trkpt>
      <trkpt lat="43.94307" lon="7.49795">
        <ele>576</ele>
        <time>2022-09-09T07:06:49Z</time>
      </trkpt>
      <trkpt lat="43.94317" lon="7.49744">
        <ele>579</ele>
        <time>2022-09-09T07:07:05Z</time>
      </trkpt>
      <trkpt lat="43.94329" lon="7.49695">
        <ele>580</ele>
        <time>2022-09-09T07:07:20Z</time>
      </trkpt>
      <trkpt lat="43.94354" lon="7.49653">
        <ele>582</ele>
        <time>2022-09-09T07:07:36Z</time>
      </trkpt>
      <trkpt lat="43.94386" lon="7.49622">
        <ele>584</ele>
        <time>2022-09-09T07:07:51Z</time>
      </trkpt>
      <trkpt lat="43.94403" lon="7.49576">
        <ele>584.1</ele>
        <time>2022-09-09T07:08:06Z</time>
      </trkpt>
      <trkpt lat="43.94406" lon="7.49524">
        <ele>592</ele>
        <time>2022-09-09T07:08:22Z</time>
      </trkpt>
      <trkpt lat="43.94407" lon="7.49473">
        <ele>595</ele>
        <time>2022-09-09T07:08:37Z</time>
      </trkpt>
      <trkpt lat="43.94405" lon="7.4942">
        <ele>600</ele>
        <time>2022-09-09T07:08:52Z</time>
      </trkpt>
      <trkpt lat="43.94402" lon="7.49367">
        <ele>601</ele>
        <time>2022-09-09T07:09:07Z</time>
      </trkpt>
      <trkpt lat="43.94396" lon="7.49314">
        <ele>602</ele>
        <time>2022-09-09T07:09:23Z</time>
      </trkpt>
      <trkpt lat="43.94392" lon="7.49264">
        <ele>603</ele>
        <time>2022-09-09T07:09:38Z</time>
      </trkpt>
      <trkpt lat="43.94388" lon="7.4921">
        <ele>605</ele>
        <time>2022-09-09T07:09:54Z</time>
      </trkpt>
      <trkpt lat="43.94391" lon="7.49157">
        <ele>606</ele>
        <time>2022-09-09T07:10:09Z</time>
      </trkpt>
      <trkpt lat="43.94396" lon="7.49111">
        <ele>612.2</ele>
        <time>2022-09-09T07:10:24Z</time>
      </trkpt>
      <trkpt lat="43.94357" lon="7.49087">
        <ele>611</ele>
        <time>2022-09-09T07:10:39Z</time>
      </trkpt>
      <trkpt lat="43.94333" lon="7.49132">
        <ele>609</ele>
        <time>2022-09-09T07:10:55Z</time>
      </trkpt>
      <trkpt lat="43.94314" lon="7.49176">
        <ele>611</ele>
        <time>2022-09-09T07:11:10Z</time>
      </trkpt>
      <trkpt lat="43.9429" lon="7.49222">
        <ele>612</ele>
        <time>2022-09-09T07:11:26Z</time>
      </trkpt>
      <trkpt lat="43.94266" lon="7.49255">
        <ele>614</ele>
        <time>2022-09-09T07:11:41Z</time>
      </trkpt>
      <trkpt lat="43.94229" lon="7.49238">
        <ele>617</ele>
        <time>2022-09-09T07:11:56Z</time>
      </trkpt>
      <trkpt lat="43.94195" lon="7.49226">
        <ele>626.2</ele>
        <time>2022-09-09T07:12:11Z</time>
      </trkpt>
      <trkpt lat="43.94198" lon="7.49229">
        <ele>621.2</ele>
        <time>2022-09-09T07:12:27Z</time>
      </trkpt>
      <trkpt lat="43.94195" lon="7.49221">
        <ele>627.1</ele>
        <time>2022-09-09T07:12:43Z</time>
      </trkpt>
      <trkpt lat="43.94157" lon="7.4922">
        <ele>622</ele>
        <time>2022-09-09T07:12:58Z</time>
      </trkpt>
      <trkpt lat="43.94119" lon="7.49232">
        <ele>624</ele>
        <time>2022-09-09T07:13:13Z</time>
      </trkpt>
      <trkpt lat="43.9408" lon="7.49226">
        <ele>628</ele>
        <time>2022-09-09T07:13:29Z</time>
      </trkpt>
      <trkpt lat="43.9404" lon="7.49221">
        <ele>629</ele>
        <time>2022-09-09T07:13:44Z</time>
      </trkpt>
      <trkpt lat="43.94014" lon="7.49189">
        <ele>632</ele>
        <time>2022-09-09T07:13:59Z</time>
      </trkpt>
      <trkpt lat="43.93994" lon="7.49145">
        <ele>634</ele>
        <time>2022-09-09T07:14:14Z</time>
      </trkpt>
      <trkpt lat="43.93968" lon="7.49099">
        <ele>633</ele>
        <time>2022-09-09T07:14:30Z</time>
      </trkpt>
      <trkpt lat="43.9394" lon="7.49059">
        <ele>640</ele>
        <time>2022-09-09T07:14:45Z</time>
      </trkpt>
      <trkpt lat="43.93913" lon="7.4902">
        <ele>644</ele>
        <time>2022-09-09T07:15:00Z</time>
      </trkpt>
      <trkpt lat="43.93891" lon="7.48981">
        <ele>645</ele>
        <time>2022-09-09T07:15:15Z</time>
      </trkpt>
      <trkpt lat="43.93872" lon="7.48936">
        <ele>646</ele>
        <time>2022-09-09T07:15:30Z</time>
      </trkpt>
      <trkpt lat="43.93857" lon="7.48888">
        <ele>654.1</ele>
        <time>2022-09-09T07:15:46Z</time>
      </trkpt>
      <trkpt lat="43.9384" lon="7.48842">
        <ele>654</ele>
        <time>2022-09-09T07:16:01Z</time>
      </trkpt>
      <trkpt lat="43.93846" lon="7.48792">
        <ele>659</ele>
        <time>2022-09-09T07:16:16Z</time>
      </trkpt>
      <trkpt lat="43.93851" lon="7.48737">
        <ele>661</ele>
        <time>2022-09-09T07:16:31Z</time>
      </trkpt>
      <trkpt lat="43.93833" lon="7.4869">
        <ele>658</ele>
        <time>2022-09-09T07:16:47Z</time>
      </trkpt>
      <trkpt lat="43.93804" lon="7.48644">
        <ele>661</ele>
        <time>2022-09-09T07:17:02Z</time>
      </trkpt>
      <trkpt lat="43.93772" lon="7.48607">
        <ele>662</ele>
        <time>2022-09-09T07:17:18Z</time>
      </trkpt>
      <trkpt lat="43.93739" lon="7.48586">
        <ele>672.1</ele>
        <time>2022-09-09T07:17:33Z</time>
      </trkpt>
      <trkpt lat="43.93719" lon="7.4855">
        <ele>673</ele>
        <time>2022-09-09T07:17:49Z</time>
      </trkpt>
      <trkpt lat="43.9371" lon="7.48505">
        <ele>675.4</ele>
        <time>2022-09-09T07:18:04Z</time>
      </trkpt>
      <trkpt lat="43.93702" lon="7.48455">
        <ele>677</ele>
        <time>2022-09-09T07:18:20Z</time>
      </trkpt>
      <trkpt lat="43.93692" lon="7.48409">
        <ele>682</ele>
        <time>2022-09-09T07:18:35Z</time>
      </trkpt>
      <trkpt lat="43.93688" lon="7.4836">
        <ele>690</ele>
        <time>2022-09-09T07:18:51Z</time>
      </trkpt>
      <trkpt lat="43.93694" lon="7.4831">
        <ele>697</ele>
        <time>2022-09-09T07:19:06Z</time>
      </trkpt>
      <trkpt lat="43.93718" lon="7.4827">
        <ele>691.5</ele>
        <time>2022-09-09T07:19:22Z</time>
      </trkpt>
      <trkpt lat="43.93737" lon="7.48226">
        <ele>707</ele>
        <time>2022-09-09T07:19:37Z</time>
      </trkpt>
      <trkpt lat="43.93751" lon="7.4818">
        <ele>708</ele>
        <time>2022-09-09T07:19:52Z</time>
      </trkpt>
      <trkpt lat="43.93774" lon="7.48145">
        <ele>708</ele>
        <time>2022-09-09T07:20:08Z</time>
      </trkpt>
      <trkpt lat="43.93797" lon="7.48107">
        <ele>712</ele>
        <time>2022-09-09T07:20:23Z</time>
      </trkpt>
      <trkpt lat="43.93814" lon="7.48065">
        <ele>716</ele>
        <time>2022-09-09T07:20:38Z</time>
      </trkpt>
      <trkpt lat="43.93833" lon="7.48026">
        <ele>716</ele>
        <time>2022-09-09T07:20:54Z</time>
      </trkpt>
      <trkpt lat="43.93853" lon="7.47979">
        <ele>718</ele>
        <time>2022-09-09T07:21:10Z</time>
      </trkpt>
      <trkpt lat="43.93866" lon="7.47929">
        <ele>714</ele>
        <time>2022-09-09T07:21:26Z</time>
      </trkpt>
      <trkpt lat="43.93854" lon="7.47881">
        <ele>714.2</ele>
        <time>2022-09-09T07:21:41Z</time>
      </trkpt>
      <trkpt lat="43.93823" lon="7.47849">
        <ele>716</ele>
        <time>2022-09-09T07:21:56Z</time>
      </trkpt>
      <trkpt lat="43.93787" lon="7.47845">
        <ele>722</ele>
        <time>2022-09-09T07:22:11Z</time>
      </trkpt>
      <trkpt lat="43.93759" lon="7.47878">
        <ele>724</ele>
        <time>2022-09-09T07:22:27Z</time>
      </trkpt>
      <trkpt lat="43.93734" lon="7.47924">
        <ele>726</ele>
        <time>2022-09-09T07:22:42Z</time>
      </trkpt>
      <trkpt lat="43.93706" lon="7.47961">
        <ele>730</ele>
        <time>2022-09-09T07:22:57Z</time>
      </trkpt>
      <trkpt lat="43.9367" lon="7.4796">
        <ele>732</ele>
        <time>2022-09-09T07:23:12Z</time>
      </trkpt>
      <trkpt lat="43.93638" lon="7.47945">
        <ele>736.4</ele>
        <time>2022-09-09T07:23:28Z</time>
      </trkpt>
      <trkpt lat="43.93606" lon="7.47933">
        <ele>739</ele>
        <time>2022-09-09T07:23:43Z</time>
      </trkpt>
      <trkpt lat="43.93585" lon="7.47898">
        <ele>741.6</ele>
        <time>2022-09-09T07:23:58Z</time>
      </trkpt>
      <trkpt lat="43.93568" lon="7.47853">
        <ele>748</ele>
        <time>2022-09-09T07:24:14Z</time>
      </trkpt>
      <trkpt lat="43.93537" lon="7.47837">
        <ele>747</ele>
        <time>2022-09-09T07:24:29Z</time>
      </trkpt>
      <trkpt lat="43.93513" lon="7.47883">
        <ele>745</ele>
        <time>2022-09-09T07:24:44Z</time>
      </trkpt>
      <trkpt lat="43.93501" lon="7.47935">
        <ele>748</ele>
        <time>2022-09-09T07:24:59Z</time>
      </trkpt>
      <trkpt lat="43.93497" lon="7.47991">
        <ele>753</ele>
        <time>2022-09-09T07:25:15Z</time>
      </trkpt>
      <trkpt lat="43.93466" lon="7.47977">
        <ele>758</ele>
        <time>2022-09-09T07:25:30Z</time>
      </trkpt>
      <trkpt lat="43.93442" lon="7.47935">
        <ele>760.5</ele>
        <time>2022-09-09T07:25:46Z</time>
      </trkpt>
      <trkpt lat="43.93425" lon="7.47891">
        <ele>767</ele>
        <time>2022-09-09T07:26:01Z</time>
      </trkpt>
      <trkpt lat="43.93402" lon="7.47859">
        <ele>769</ele>
        <time>2022-09-09T07:26:16Z</time>
      </trkpt>
      <trkpt lat="43.93369" lon="7.47841">
        <ele>769</ele>
        <time>2022-09-09T07:26:32Z</time>
      </trkpt>
      <trkpt lat="43.93337" lon="7.47824">
        <ele>770</ele>
        <time>2022-09-09T07:26:47Z</time>
      </trkpt>
      <trkpt lat="43.93304" lon="7.47822">
        <ele>778</ele>
        <time>2022-09-09T07:27:02Z</time>
      </trkpt>
      <trkpt lat="43.93341" lon="7.47814">
        <ele>779</ele>
        <time>2022-09-09T07:27:18Z</time>
      </trkpt>
      <trkpt lat="43.93362" lon="7.47795">
        <ele>780.9</ele>
        <time>2022-09-09T07:27:33Z</time>
      </trkpt>
      <trkpt lat="43.93327" lon="7.47778">
        <ele>781</ele>
        <time>2022-09-09T07:27:49Z</time>
      </trkpt>
      <trkpt lat="43.93287" lon="7.4779">
        <ele>785.1</ele>
        <time>2022-09-09T07:28:04Z</time>
      </trkpt>
      <trkpt lat="43.9325" lon="7.47817">
        <ele>790</ele>
        <time>2022-09-09T07:28:20Z</time>
      </trkpt>
      <trkpt lat="43.93213" lon="7.47826">
        <ele>788.6</ele>
        <time>2022-09-09T07:28:35Z</time>
      </trkpt>
      <trkpt lat="43.93178" lon="7.47835">
        <ele>795</ele>
        <time>2022-09-09T07:28:51Z</time>
      </trkpt>
      <trkpt lat="43.9315" lon="7.47809">
        <ele>794</ele>
        <time>2022-09-09T07:29:06Z</time>
      </trkpt>
      <trkpt lat="43.93117" lon="7.47785">
        <ele>798</ele>
        <time>2022-09-09T07:29:21Z</time>
      </trkpt>
      <trkpt lat="43.9308" lon="7.47774">
        <ele>803</ele>
        <time>2022-09-09T07:29:36Z</time>
      </trkpt>
      <trkpt lat="43.93045" lon="7.47746">
        <ele>804</ele>
        <time>2022-09-09T07:29:52Z</time>
      </trkpt>
      <trkpt lat="43.93016" lon="7.47706">
        <ele>805</ele>
        <time>2022-09-09T07:30:07Z</time>
      </trkpt>
      <trkpt lat="43.92999" lon="7.47654">
        <ele>808.7</ele>
        <time>2022-09-09T07:30:23Z</time>
      </trkpt>
      <trkpt lat="43.92968" lon="7.47608">
        <ele>814</ele>
        <time>2022-09-09T07:30:39Z</time>
      </trkpt>
      <trkpt lat="43.92935" lon="7.47571">
        <ele>810.5</ele>
        <time>2022-09-09T07:30:54Z</time>
      </trkpt>
      <trkpt lat="43.92909" lon="7.47536">
        <ele>815</ele>
        <time>2022-09-09T07:31:10Z</time>
      </trkpt>
      <trkpt lat="43.92885" lon="7.47496">
        <ele>815</ele>
        <time>2022-09-09T07:31:26Z</time>
      </trkpt>
      <trkpt lat="43.92854" lon="7.47488">
        <ele>819</ele>
        <time>2022-09-09T07:31:41Z</time>
      </trkpt>
      <trkpt lat="43.92816" lon="7.4749">
        <ele>824</ele>
        <time>2022-09-09T07:31:56Z</time>
      </trkpt>
      <trkpt lat="43.92781" lon="7.47483">
        <ele>827</ele>
        <time>2022-09-09T07:32:11Z</time>
      </trkpt>
      <trkpt lat="43.92744" lon="7.47488">
        <ele>831</ele>
        <time>2022-09-09T07:32:27Z</time>
      </trkpt>
      <trkpt lat="43.92706" lon="7.47495">
        <ele>828</ele>
        <time>2022-09-09T07:32:42Z</time>
      </trkpt>
      <trkpt lat="43.92672" lon="7.47501">
        <ele>838</ele>
        <time>2022-09-09T07:32:57Z</time>
      </trkpt>
      <trkpt lat="43.92637" lon="7.47513">
        <ele>843</ele>
        <time>2022-09-09T07:33:13Z</time>
      </trkpt>
      <trkpt lat="43.92608" lon="7.4754">
        <ele>846</ele>
        <time>2022-09-09T07:33:28Z</time>
      </trkpt>
      <trkpt lat="43.9258" lon="7.4755">
        <ele>849</ele>
        <time>2022-09-09T07:33:43Z</time>
      </trkpt>
      <trkpt lat="43.92605" lon="7.47513">
        <ele>848</ele>
        <time>2022-09-09T07:33:59Z</time>
      </trkpt>
      <trkpt lat="43.92603" lon="7.47533">
        <ele>853</ele>
        <time>2022-09-09T07:34:14Z</time>
      </trkpt>
      <trkpt lat="43.92603" lon="7.47531">
        <ele>849.1</ele>
        <time>2022-09-09T07:34:29Z</time>
      </trkpt>
      <trkpt lat="43.92603" lon="7.4753">
        <ele>851.2</ele>
        <time>2022-09-09T07:34:44Z</time>
      </trkpt>
      <trkpt lat="43.92603" lon="7.47531">
        <ele>850</ele>
        <time>2022-09-09T07:34:59Z</time>
      </trkpt>
      <trkpt lat="43.92599" lon="7.47532">
        <ele>852.1</ele>
        <time>2022-09-09T07:35:15Z</time>
      </trkpt>
      <trkpt lat="43.926" lon="7.47529">
        <ele>850.5</ele>
        <time>2022-09-09T07:35:31Z</time>
      </trkpt>
      <trkpt lat="43.92599" lon="7.47518">
        <ele>853</ele>
        <time>2022-09-09T07:35:46Z</time>
      </trkpt>
      <trkpt lat="43.92626" lon="7.47484">
        <ele>858</ele>
        <time>2022-09-09T07:36:01Z</time>
      </trkpt>
      <trkpt lat="43.92653" lon="7.47457">
        <ele>858.1</ele>
        <time>2022-09-09T07:36:16Z</time>
      </trkpt>
      <trkpt lat="43.92676" lon="7.47425">
        <ele>866</ele>
        <time>2022-09-09T07:36:32Z</time>
      </trkpt>
      <trkpt lat="43.92714" lon="7.4742">
        <ele>862.8</ele>
        <time>2022-09-09T07:36:47Z</time>
      </trkpt>
      <trkpt lat="43.92746" lon="7.47413">
        <ele>867</ele>
        <time>2022-09-09T07:37:02Z</time>
      </trkpt>
      <trkpt lat="43.92779" lon="7.4741">
        <ele>869</ele>
        <time>2022-09-09T07:37:17Z</time>
      </trkpt>
      <trkpt lat="43.92809" lon="7.47401">
        <ele>876</ele>
        <time>2022-09-09T07:37:33Z</time>
      </trkpt>
      <trkpt lat="43.92782" lon="7.47385">
        <ele>880</ele>
        <time>2022-09-09T07:37:48Z</time>
      </trkpt>
      <trkpt lat="43.92748" lon="7.4738">
        <ele>886</ele>
        <time>2022-09-09T07:38:04Z</time>
      </trkpt>
      <trkpt lat="43.92719" lon="7.4737">
        <ele>890</ele>
        <time>2022-09-09T07:38:19Z</time>
      </trkpt>
      <trkpt lat="43.92685" lon="7.47363">
        <ele>893</ele>
        <time>2022-09-09T07:38:34Z</time>
      </trkpt>
      <trkpt lat="43.92657" lon="7.47375">
        <ele>897</ele>
        <time>2022-09-09T07:38:50Z</time>
      </trkpt>
      <trkpt lat="43.92629" lon="7.47376">
        <ele>901</ele>
        <time>2022-09-09T07:39:05Z</time>
      </trkpt>
      <trkpt lat="43.92599" lon="7.47378">
        <ele>902</ele>
        <time>2022-09-09T07:39:21Z</time>
      </trkpt>
      <trkpt lat="43.92569" lon="7.47377">
        <ele>906</ele>
        <time>2022-09-09T07:39:37Z</time>
      </trkpt>
      <trkpt lat="43.92542" lon="7.47401">
        <ele>901.8</ele>
        <time>2022-09-09T07:39:52Z</time>
      </trkpt>
      <trkpt lat="43.92525" lon="7.47443">
        <ele>910</ele>
        <time>2022-09-09T07:40:08Z</time>
      </trkpt>
      <trkpt lat="43.92505" lon="7.47484">
        <ele>913</ele>
        <time>2022-09-09T07:40:23Z</time>
      </trkpt>
      <trkpt lat="43.92491" lon="7.47529">
        <ele>918</ele>
        <time>2022-09-09T07:40:38Z</time>
      </trkpt>
      <trkpt lat="43.92476" lon="7.47567">
        <ele>921</ele>
        <time>2022-09-09T07:40:54Z</time>
      </trkpt>
      <trkpt lat="43.92461" lon="7.47605">
        <ele>925</ele>
        <time>2022-09-09T07:41:09Z</time>
      </trkpt>
      <trkpt lat="43.92439" lon="7.47647">
        <ele>935</ele>
        <time>2022-09-09T07:41:24Z</time>
      </trkpt>
      <trkpt lat="43.92427" lon="7.47657">
        <ele>925.8</ele>
        <time>2022-09-09T07:41:39Z</time>
      </trkpt>
      <trkpt lat="43.92427" lon="7.47657">
        <ele>930.7</ele>
        <time>2022-09-09T07:41:55Z</time>
      </trkpt>
      <trkpt lat="43.92426" lon="7.47658">
        <ele>929.6</ele>
        <time>2022-09-09T07:42:10Z</time>
      </trkpt>
      <trkpt lat="43.92425" lon="7.47658">
        <ele>929.2</ele>
        <time>2022-09-09T07:42:26Z</time>
      </trkpt>
      <trkpt lat="43.92425" lon="7.47658">
        <ele>928.1</ele>
        <time>2022-09-09T07:42:41Z</time>
      </trkpt>
      <trkpt lat="43.92425" lon="7.47658">
        <ele>929.9</ele>
        <time>2022-09-09T07:42:57Z</time>
      </trkpt>
      <trkpt lat="43.92425" lon="7.47658">
        <ele>929.7</ele>
        <time>2022-09-09T07:43:12Z</time>
      </trkpt>
      <trkpt lat="43.92425" lon="7.47659">
        <ele>930.7</ele>
        <time>2022-09-09T07:43:28Z</time>
      </trkpt>
      <trkpt lat="43.92424" lon="7.47661">
        <ele>929.8</ele>
        <time>2022-09-09T07:43:43Z</time>
      </trkpt>
      <trkpt lat="43.92424" lon="7.4766">
        <ele>932.6</ele>
        <time>2022-09-09T07:43:59Z</time>
      </trkpt>
      <trkpt lat="43.92424" lon="7.4766">
        <ele>933.3</ele>
        <time>2022-09-09T07:44:14Z</time>
      </trkpt>
      <trkpt lat="43.92427" lon="7.47645">
        <ele>931.4</ele>
        <time>2022-09-09T07:44:29Z</time>
      </trkpt>
      <trkpt lat="43.92402" lon="7.47586">
        <ele>930</ele>
        <time>2022-09-09T07:44:44Z</time>
      </trkpt>
      <trkpt lat="43.92399" lon="7.47584">
        <ele>930</ele>
        <time>2022-09-09T07:45:00Z</time>
      </trkpt>
      <trkpt lat="43.92384" lon="7.4756">
        <ele>930</ele>
        <time>2022-09-09T07:45:15Z</time>
      </trkpt>
      <trkpt lat="43.92351" lon="7.47515">
        <ele>927.9</ele>
        <time>2022-09-09T07:45:30Z</time>
      </trkpt>
      <trkpt lat="43.92351" lon="7.47514">
        <ele>927.9</ele>
        <time>2022-09-09T07:45:45Z</time>
      </trkpt>
      <trkpt lat="43.92352" lon="7.47516">
        <ele>925</ele>
        <time>2022-09-09T07:46:00Z</time>
      </trkpt>
      <trkpt lat="43.92349" lon="7.47501">
        <ele>926.7</ele>
        <time>2022-09-09T07:46:16Z</time>
      </trkpt>
      <trkpt lat="43.92275" lon="7.47433">
        <ele>921</ele>
        <time>2022-09-09T07:46:31Z</time>
      </trkpt>
      <trkpt lat="43.92341" lon="7.47536">
        <ele>918</ele>
        <time>2022-09-09T07:46:46Z</time>
      </trkpt>
      <trkpt lat="43.92304" lon="7.47674">
        <ele>911</ele>
        <time>2022-09-09T07:47:01Z</time>
      </trkpt>
      <trkpt lat="43.92236" lon="7.47611">
        <ele>903</ele>
        <time>2022-09-09T07:47:16Z</time>
      </trkpt>
      <trkpt lat="43.92217" lon="7.47539">
        <ele>897</ele>
        <time>2022-09-09T07:47:31Z</time>
      </trkpt>
      <trkpt lat="43.9218" lon="7.47316">
        <ele>890</ele>
        <time>2022-09-09T07:47:47Z</time>
      </trkpt>
      <trkpt lat="43.92084" lon="7.47252">
        <ele>875</ele>
        <time>2022-09-09T07:48:03Z</time>
      </trkpt>
      <trkpt lat="43.91969" lon="7.47427">
        <ele>857</ele>
        <time>2022-09-09T07:48:18Z</time>
      </trkpt>
      <trkpt lat="43.91773" lon="7.47573">
        <ele>836</ele>
        <time>2022-09-09T07:48:34Z</time>
      </trkpt>
      <trkpt lat="43.91561" lon="7.47652">
        <ele>824</ele>
        <time>2022-09-09T07:48:50Z</time>
      </trkpt>
      <trkpt lat="43.9147" lon="7.47839">
        <ele>815</ele>
        <time>2022-09-09T07:49:05Z</time>
      </trkpt>
      <trkpt lat="43.91406" lon="7.47992">
        <ele>812</ele>
        <time>2022-09-09T07:49:21Z</time>
      </trkpt>
      <trkpt lat="43.91386" lon="7.48157">
        <ele>812</ele>
        <time>2022-09-09T07:49:36Z</time>
      </trkpt>
      <trkpt lat="43.91313" lon="7.48266">
        <ele>811</ele>
        <time>2022-09-09T07:49:51Z</time>
      </trkpt>
      <trkpt lat="43.91176" lon="7.48235">
        <ele>804</ele>
        <time>2022-09-09T07:50:07Z</time>
      </trkpt>
      <trkpt lat="43.91127" lon="7.48048">
        <ele>800</ele>
        <time>2022-09-09T07:50:22Z</time>
      </trkpt>
      <trkpt lat="43.91123" lon="7.47845">
        <ele>798</ele>
        <time>2022-09-09T07:50:38Z</time>
      </trkpt>
      <trkpt lat="43.91" lon="7.47836">
        <ele>795</ele>
        <time>2022-09-09T07:50:53Z</time>
      </trkpt>
      <trkpt lat="43.90838" lon="7.4785">
        <ele>789</ele>
        <time>2022-09-09T07:51:09Z</time>
      </trkpt>
      <trkpt lat="43.90711" lon="7.47711">
        <ele>777</ele>
        <time>2022-09-09T07:51:25Z</time>
      </trkpt>
      <trkpt lat="43.90746" lon="7.47511">
        <ele>766</ele>
        <time>2022-09-09T07:51:41Z</time>
      </trkpt>
      <trkpt lat="43.90744" lon="7.47366">
        <ele>759</ele>
        <time>2022-09-09T07:51:56Z</time>
      </trkpt>
      <trkpt lat="43.90572" lon="7.47415">
        <ele>750</ele>
        <time>2022-09-09T07:52:12Z</time>
      </trkpt>
      <trkpt lat="43.90416" lon="7.47544">
        <ele>734</ele>
        <time>2022-09-09T07:52:28Z</time>
      </trkpt>
      <trkpt lat="43.90333" lon="7.47421">
        <ele>718</ele>
        <time>2022-09-09T07:52:43Z</time>
      </trkpt>
      <trkpt lat="43.90215" lon="7.47305">
        <ele>705</ele>
        <time>2022-09-09T07:52:59Z</time>
      </trkpt>
      <trkpt lat="43.90054" lon="7.47388">
        <ele>693</ele>
        <time>2022-09-09T07:53:14Z</time>
      </trkpt>
      <trkpt lat="43.89862" lon="7.47317">
        <ele>679</ele>
        <time>2022-09-09T07:53:30Z</time>
      </trkpt>
      <trkpt lat="43.8975" lon="7.47268">
        <ele>674</ele>
        <time>2022-09-09T07:53:46Z</time>
      </trkpt>
      <trkpt lat="43.89869" lon="7.47296">
        <ele>671</ele>
        <time>2022-09-09T07:54:01Z</time>
      </trkpt>
      <trkpt lat="43.89774" lon="7.47236">
        <ele>663</ele>
        <time>2022-09-09T07:54:16Z</time>
      </trkpt>
      <trkpt lat="43.89607" lon="7.47223">
        <ele>652</ele>
        <time>2022-09-09T07:54:32Z</time>
      </trkpt>
      <trkpt lat="43.89433" lon="7.47251">
        <ele>633</ele>
        <time>2022-09-09T07:54:47Z</time>
      </trkpt>
      <trkpt lat="43.89275" lon="7.47275">
        <ele>622</ele>
        <time>2022-09-09T07:55:02Z</time>
      </trkpt>
      <trkpt lat="43.8935" lon="7.47223">
        <ele>616</ele>
        <time>2022-09-09T07:55:18Z</time>
      </trkpt>
      <trkpt lat="43.89273" lon="7.47219">
        <ele>610</ele>
        <time>2022-09-09T07:55:34Z</time>
      </trkpt>
      <trkpt lat="43.89119" lon="7.47313">
        <ele>600</ele>
        <time>2022-09-09T07:55:50Z</time>
      </trkpt>
      <trkpt lat="43.89137" lon="7.47285">
        <ele>602</ele>
        <time>2022-09-09T07:56:05Z</time>
      </trkpt>
      <trkpt lat="43.89247" lon="7.47177">
        <ele>587</ele>
        <time>2022-09-09T07:56:21Z</time>
      </trkpt>
      <trkpt lat="43.89308" lon="7.47099">
        <ele>582</ele>
        <time>2022-09-09T07:56:37Z</time>
      </trkpt>
      <trkpt lat="43.8918" lon="7.47174">
        <ele>571</ele>
        <time>2022-09-09T07:56:52Z</time>
      </trkpt>
      <trkpt lat="43.89041" lon="7.47254">
        <ele>561</ele>
        <time>2022-09-09T07:57:08Z</time>
      </trkpt>
      <trkpt lat="43.88901" lon="7.47406">
        <ele>550</ele>
        <time>2022-09-09T07:57:24Z</time>
      </trkpt>
      <trkpt lat="43.88791" lon="7.47585">
        <ele>542</ele>
        <time>2022-09-09T07:57:40Z</time>
      </trkpt>
      <trkpt lat="43.8878" lon="7.47576">
        <ele>533</ele>
        <time>2022-09-09T07:57:55Z</time>
      </trkpt>
      <trkpt lat="43.88762" lon="7.47581">
        <ele>525</ele>
        <time>2022-09-09T07:58:10Z</time>
      </trkpt>
      <trkpt lat="43.88779" lon="7.47651">
        <ele>571.8</ele>
        <time>2022-09-09T07:58:26Z</time>
      </trkpt>
      <trkpt lat="43.88754" lon="7.4749">
        <ele>509</ele>
        <time>2022-09-09T07:58:42Z</time>
      </trkpt>
      <trkpt lat="43.8875" lon="7.4747">
        <ele>503</ele>
        <time>2022-09-09T07:58:58Z</time>
      </trkpt>
      <trkpt lat="43.88708" lon="7.47626">
        <ele>496</ele>
        <time>2022-09-09T07:59:13Z</time>
      </trkpt>
      <trkpt lat="43.88679" lon="7.47485">
        <ele>486</ele>
        <time>2022-09-09T07:59:29Z</time>
      </trkpt>
      <trkpt lat="43.8875" lon="7.47296">
        <ele>477</ele>
        <time>2022-09-09T07:59:44Z</time>
      </trkpt>
      <trkpt lat="43.88852" lon="7.47084">
        <ele>464</ele>
        <time>2022-09-09T08:00:00Z</time>
      </trkpt>
      <trkpt lat="43.88933" lon="7.46857">
        <ele>449</ele>
        <time>2022-09-09T08:00:15Z</time>
      </trkpt>
      <trkpt lat="43.88866" lon="7.4673">
        <ele>449</ele>
        <time>2022-09-09T08:00:31Z</time>
      </trkpt>
      <trkpt lat="43.88765" lon="7.46834">
        <ele>446</ele>
        <time>2022-09-09T08:00:47Z</time>
      </trkpt>
      <trkpt lat="43.8865" lon="7.46947">
        <ele>441</ele>
        <time>2022-09-09T08:01:02Z</time>
      </trkpt>
      <trkpt lat="43.88497" lon="7.47035">
        <ele>431</ele>
        <time>2022-09-09T08:01:18Z</time>
      </trkpt>
      <trkpt lat="43.88411" lon="7.46895">
        <ele>422</ele>
        <time>2022-09-09T08:01:33Z</time>
      </trkpt>
      <trkpt lat="43.88307" lon="7.46769">
        <ele>415</ele>
        <time>2022-09-09T08:01:49Z</time>
      </trkpt>
      <trkpt lat="43.88214" lon="7.46613">
        <ele>412</ele>
        <time>2022-09-09T08:02:05Z</time>
      </trkpt>
      <trkpt lat="43.8818" lon="7.46428">
        <ele>410</ele>
        <time>2022-09-09T08:02:21Z</time>
      </trkpt>
      <trkpt lat="43.88098" lon="7.46289">
        <ele>404</ele>
        <time>2022-09-09T08:02:36Z</time>
      </trkpt>
      <trkpt lat="43.88028" lon="7.46128">
        <ele>401</ele>
        <time>2022-09-09T08:02:52Z</time>
      </trkpt>
      <trkpt lat="43.87978" lon="7.45962">
        <ele>394</ele>
        <time>2022-09-09T08:03:08Z</time>
      </trkpt>
      <trkpt lat="43.8795" lon="7.45777">
        <ele>391</ele>
        <time>2022-09-09T08:03:23Z</time>
      </trkpt>
      <trkpt lat="43.87919" lon="7.45614">
        <ele>392</ele>
        <time>2022-09-09T08:03:38Z</time>
      </trkpt>
      <trkpt lat="43.87874" lon="7.45459">
        <ele>390</ele>
        <time>2022-09-09T08:03:54Z</time>
      </trkpt>
      <trkpt lat="43.87842" lon="7.45315">
        <ele>387</ele>
        <time>2022-09-09T08:04:09Z</time>
      </trkpt>
      <trkpt lat="43.87815" lon="7.45195">
        <ele>389</ele>
        <time>2022-09-09T08:04:25Z</time>
      </trkpt>
      <trkpt lat="43.87785" lon="7.45108">
        <ele>389</ele>
        <time>2022-09-09T08:04:40Z</time>
      </trkpt>
      <trkpt lat="43.87763" lon="7.45085">
        <ele>411.1</ele>
        <time>2022-09-09T08:04:55Z</time>
      </trkpt>
      <trkpt lat="43.87763" lon="7.45087">
        <ele>407.2</ele>
        <time>2022-09-09T08:05:10Z</time>
      </trkpt>
      <trkpt lat="43.87763" lon="7.45088">
        <ele>408.2</ele>
        <time>2022-09-09T08:05:26Z</time>
      </trkpt>
      <trkpt lat="43.87763" lon="7.45088">
        <ele>393.4</ele>
        <time>2022-09-09T08:05:42Z</time>
      </trkpt>
      <trkpt lat="43.87763" lon="7.45088">
        <ele>407.9</ele>
        <time>2022-09-09T08:05:57Z</time>
      </trkpt>
      <trkpt lat="43.87763" lon="7.45088">
        <ele>399.3</ele>
        <time>2022-09-09T08:06:13Z</time>
      </trkpt>
      <trkpt lat="43.87762" lon="7.45087">
        <ele>406.3</ele>
        <time>2022-09-09T08:06:28Z</time>
      </trkpt>
      <trkpt lat="43.87757" lon="7.45058">
        <ele>392.5</ele>
        <time>2022-09-09T08:06:44Z</time>
      </trkpt>
      <trkpt lat="43.87761" lon="7.44969">
        <ele>399</ele>
        <time>2022-09-09T08:06:59Z</time>
      </trkpt>
      <trkpt lat="43.87777" lon="7.44882">
        <ele>398</ele>
        <time>2022-09-09T08:07:15Z</time>
      </trkpt>
      <trkpt lat="43.87783" lon="7.44781">
        <ele>398</ele>
        <time>2022-09-09T08:07:30Z</time>
      </trkpt>
      <trkpt lat="43.87798" lon="7.44721">
        <ele>391.5</ele>
        <time>2022-09-09T08:07:45Z</time>
      </trkpt>
      <trkpt lat="43.87808" lon="7.44663">
        <ele>398</ele>
        <time>2022-09-09T08:08:01Z</time>
      </trkpt>
      <trkpt lat="43.87806" lon="7.44668">
        <ele>389.8</ele>
        <time>2022-09-09T08:08:16Z</time>
      </trkpt>
      <trkpt lat="43.87806" lon="7.44668">
        <ele>389.7</ele>
        <time>2022-09-09T08:08:32Z</time>
      </trkpt>
      <trkpt lat="43.87806" lon="7.44668">
        <ele>389.8</ele>
        <time>2022-09-09T08:08:47Z</time>
      </trkpt>
      <trkpt lat="43.87806" lon="7.44668">
        <ele>388.9</ele>
        <time>2022-09-09T08:09:02Z</time>
      </trkpt>
      <trkpt lat="43.87806" lon="7.44668">
        <ele>389.4</ele>
        <time>2022-09-09T08:09:17Z</time>
      </trkpt>
      <trkpt lat="43.87806" lon="7.44668">
        <ele>389.4</ele>
        <time>2022-09-09T08:09:33Z</time>
      </trkpt>
      <trkpt lat="43.87806" lon="7.44668">
        <ele>389.7</ele>
        <time>2022-09-09T08:09:48Z</time>
      </trkpt>
      <trkpt lat="43.87806" lon="7.44668">
        <ele>392.9</ele>
        <time>2022-09-09T08:10:04Z</time>
      </trkpt>
      <trkpt lat="43.87806" lon="7.44668">
        <ele>395.6</ele>
        <time>2022-09-09T08:10:19Z</time>
      </trkpt>
      <trkpt lat="43.87806" lon="7.44668">
        <ele>394.7</ele>
        <time>2022-09-09T08:10:34Z</time>
      </trkpt>
      <trkpt lat="43.87806" lon="7.44668">
        <ele>395.3</ele>
        <time>2022-09-09T08:10:49Z</time>
      </trkpt>
      <trkpt lat="43.87806" lon="7.44669">
        <ele>395</ele>
        <time>2022-09-09T08:11:05Z</time>
      </trkpt>
      <trkpt lat="43.87794" lon="7.44723">
        <ele>392</ele>
        <time>2022-09-09T08:11:21Z</time>
      </trkpt>
      <trkpt lat="43.87785" lon="7.44697">
        <ele>393</ele>
        <time>2022-09-09T08:11:36Z</time>
      </trkpt>
      <trkpt lat="43.87781" lon="7.44665">
        <ele>397</ele>
        <time>2022-09-09T08:11:52Z</time>
      </trkpt>
      <trkpt lat="43.87782" lon="7.44672">
        <ele>398.5</ele>
        <time>2022-09-09T08:12:07Z</time>
      </trkpt>
      <trkpt lat="43.87782" lon="7.44672">
        <ele>395</ele>
        <time>2022-09-09T08:12:22Z</time>
      </trkpt>
      <trkpt lat="43.87782" lon="7.44672">
        <ele>398.5</ele>
        <time>2022-09-09T08:12:38Z</time>
      </trkpt>
      <trkpt lat="43.87782" lon="7.44672">
        <ele>395</ele>
        <time>2022-09-09T08:12:53Z</time>
      </trkpt>
      <trkpt lat="43.87782" lon="7.44672">
        <ele>398.2</ele>
        <time>2022-09-09T08:13:08Z</time>
      </trkpt>
      <trkpt lat="43.87782" lon="7.44672">
        <ele>395</ele>
        <time>2022-09-09T08:13:23Z</time>
      </trkpt>
      <trkpt lat="43.87782" lon="7.44672">
        <ele>397.6</ele>
        <time>2022-09-09T08:13:38Z</time>
      </trkpt>
      <trkpt lat="43.87782" lon="7.44672">
        <ele>394.9</ele>
        <time>2022-09-09T08:13:53Z</time>
      </trkpt>
      <trkpt lat="43.87782" lon="7.44672">
        <ele>395</ele>
        <time>2022-09-09T08:14:08Z</time>
      </trkpt>
      <trkpt lat="43.87782" lon="7.44672">
        <ele>395.2</ele>
        <time>2022-09-09T08:14:23Z</time>
      </trkpt>
      <trkpt lat="43.87782" lon="7.44672">
        <ele>394.8</ele>
        <time>2022-09-09T08:14:39Z</time>
      </trkpt>
      <trkpt lat="43.87782" lon="7.44672">
        <ele>395.2</ele>
        <time>2022-09-09T08:14:54Z</time>
      </trkpt>
      <trkpt lat="43.87782" lon="7.44672">
        <ele>394.9</ele>
        <time>2022-09-09T08:15:09Z</time>
      </trkpt>
      <trkpt lat="43.87782" lon="7.44672">
        <ele>395.2</ele>
        <time>2022-09-09T08:15:24Z</time>
      </trkpt>
      <trkpt lat="43.87782" lon="7.44672">
        <ele>395.2</ele>
        <time>2022-09-09T08:15:39Z</time>
      </trkpt>
      <trkpt lat="43.87782" lon="7.44672">
        <ele>395.3</ele>
        <time>2022-09-09T08:15:54Z</time>
      </trkpt>
      <trkpt lat="43.87782" lon="7.44672">
        <ele>395.3</ele>
        <time>2022-09-09T08:16:09Z</time>
      </trkpt>
      <trkpt lat="43.87782" lon="7.44672">
        <ele>395.2</ele>
        <time>2022-09-09T08:16:25Z</time>
      </trkpt>
      <trkpt lat="43.87782" lon="7.44672">
        <ele>395</ele>
        <time>2022-09-09T08:16:40Z</time>
      </trkpt>
      <trkpt lat="43.87785" lon="7.44671">
        <ele>395.7</ele>
        <time>2022-09-09T08:16:55Z</time>
      </trkpt>
      <trkpt lat="43.8779" lon="7.44615">
        <ele>401</ele>
        <time>2022-09-09T08:17:10Z</time>
      </trkpt>
      <trkpt lat="43.87799" lon="7.4455">
        <ele>400</ele>
        <time>2022-09-09T08:17:26Z</time>
      </trkpt>
      <trkpt lat="43.87806" lon="7.44478">
        <ele>396.8</ele>
        <time>2022-09-09T08:17:42Z</time>
      </trkpt>
      <trkpt lat="43.87813" lon="7.44426">
        <ele>403.9</ele>
        <time>2022-09-09T08:17:57Z</time>
      </trkpt>
      <trkpt lat="43.87813" lon="7.44363">
        <ele>413</ele>
        <time>2022-09-09T08:18:12Z</time>
      </trkpt>
      <trkpt lat="43.87816" lon="7.44296">
        <ele>416</ele>
        <time>2022-09-09T08:18:28Z</time>
      </trkpt>
      <trkpt lat="43.8785" lon="7.44238">
        <ele>410.8</ele>
        <time>2022-09-09T08:18:43Z</time>
      </trkpt>
      <trkpt lat="43.87865" lon="7.44163">
        <ele>419</ele>
        <time>2022-09-09T08:18:58Z</time>
      </trkpt>
      <trkpt lat="43.87861" lon="7.44099">
        <ele>414.2</ele>
        <time>2022-09-09T08:19:14Z</time>
      </trkpt>
      <trkpt lat="43.87842" lon="7.44012">
        <ele>415.1</ele>
        <time>2022-09-09T08:19:30Z</time>
      </trkpt>
      <trkpt lat="43.87858" lon="7.43923">
        <ele>420</ele>
        <time>2022-09-09T08:19:45Z</time>
      </trkpt>
      <trkpt lat="43.87885" lon="7.43848">
        <ele>417.7</ele>
        <time>2022-09-09T08:20:00Z</time>
      </trkpt>
      <trkpt lat="43.8787" lon="7.43782">
        <ele>423</ele>
        <time>2022-09-09T08:20:15Z</time>
      </trkpt>
      <trkpt lat="43.87842" lon="7.4374">
        <ele>424.5</ele>
        <time>2022-09-09T08:20:30Z</time>
      </trkpt>
      <trkpt lat="43.87824" lon="7.43684">
        <ele>429.1</ele>
        <time>2022-09-09T08:20:46Z</time>
      </trkpt>
      <trkpt lat="43.87793" lon="7.43649">
        <ele>430.6</ele>
        <time>2022-09-09T08:21:01Z</time>
      </trkpt>
      <trkpt lat="43.87838" lon="7.43618">
        <ele>436</ele>
        <time>2022-09-09T08:21:17Z</time>
      </trkpt>
      <trkpt lat="43.87877" lon="7.43571">
        <ele>440</ele>
        <time>2022-09-09T08:21:32Z</time>
      </trkpt>
      <trkpt lat="43.87919" lon="7.43516">
        <ele>438.7</ele>
        <time>2022-09-09T08:21:48Z</time>
      </trkpt>
      <trkpt lat="43.87964" lon="7.43457">
        <ele>441</ele>
        <time>2022-09-09T08:22:03Z</time>
      </trkpt>
      <trkpt lat="43.88011" lon="7.43384">
        <ele>443</ele>
        <time>2022-09-09T08:22:18Z</time>
      </trkpt>
      <trkpt lat="43.8799" lon="7.43273">
        <ele>442</ele>
        <time>2022-09-09T08:22:34Z</time>
      </trkpt>
      <trkpt lat="43.88022" lon="7.43197">
        <ele>444</ele>
        <time>2022-09-09T08:22:49Z</time>
      </trkpt>
      <trkpt lat="43.88099" lon="7.43143">
        <ele>444</ele>
        <time>2022-09-09T08:23:05Z</time>
      </trkpt>
      <trkpt lat="43.88186" lon="7.43097">
        <ele>444</ele>
        <time>2022-09-09T08:23:21Z</time>
      </trkpt>
      <trkpt lat="43.88257" lon="7.43045">
        <ele>444</ele>
        <time>2022-09-09T08:23:36Z</time>
      </trkpt>
      <trkpt lat="43.88331" lon="7.43003">
        <ele>445</ele>
        <time>2022-09-09T08:23:51Z</time>
      </trkpt>
      <trkpt lat="43.88397" lon="7.42957">
        <ele>447</ele>
        <time>2022-09-09T08:24:07Z</time>
      </trkpt>
      <trkpt lat="43.88456" lon="7.42938">
        <ele>448</ele>
        <time>2022-09-09T08:24:22Z</time>
      </trkpt>
      <trkpt lat="43.88519" lon="7.42944">
        <ele>450.7</ele>
        <time>2022-09-09T08:24:37Z</time>
      </trkpt>
      <trkpt lat="43.88561" lon="7.42888">
        <ele>452</ele>
        <time>2022-09-09T08:24:52Z</time>
      </trkpt>
      <trkpt lat="43.8863" lon="7.42855">
        <ele>454</ele>
        <time>2022-09-09T08:25:08Z</time>
      </trkpt>
      <trkpt lat="43.88702" lon="7.42814">
        <ele>455</ele>
        <time>2022-09-09T08:25:23Z</time>
      </trkpt>
      <trkpt lat="43.88754" lon="7.42728">
        <ele>457</ele>
        <time>2022-09-09T08:25:38Z</time>
      </trkpt>
      <trkpt lat="43.88799" lon="7.42636">
        <ele>456</ele>
        <time>2022-09-09T08:25:53Z</time>
      </trkpt>
      <trkpt lat="43.8885" lon="7.42536">
        <ele>458</ele>
        <time>2022-09-09T08:26:10Z</time>
      </trkpt>
      <trkpt lat="43.88913" lon="7.42436">
        <ele>457</ele>
        <time>2022-09-09T08:26:26Z</time>
      </trkpt>
      <trkpt lat="43.8897" lon="7.42282">
        <ele>454</ele>
        <time>2022-09-09T08:26:41Z</time>
      </trkpt>
      <trkpt lat="43.89076" lon="7.42306">
        <ele>447</ele>
        <time>2022-09-09T08:26:56Z</time>
      </trkpt>
      <trkpt lat="43.89164" lon="7.42204">
        <ele>448</ele>
        <time>2022-09-09T08:27:13Z</time>
      </trkpt>
      <trkpt lat="43.89209" lon="7.4208">
        <ele>446</ele>
        <time>2022-09-09T08:27:28Z</time>
      </trkpt>
      <trkpt lat="43.8921" lon="7.41951">
        <ele>444.2</ele>
        <time>2022-09-09T08:27:44Z</time>
      </trkpt>
      <trkpt lat="43.89252" lon="7.41818">
        <ele>452</ele>
        <time>2022-09-09T08:27:59Z</time>
      </trkpt>
      <trkpt lat="43.89302" lon="7.41794">
        <ele>451.2</ele>
        <time>2022-09-09T08:28:15Z</time>
      </trkpt>
      <trkpt lat="43.89309" lon="7.41876">
        <ele>452</ele>
        <time>2022-09-09T08:28:30Z</time>
      </trkpt>
      <trkpt lat="43.89303" lon="7.41938">
        <ele>453</ele>
        <time>2022-09-09T08:28:45Z</time>
      </trkpt>
      <trkpt lat="43.89335" lon="7.41957">
        <ele>453</ele>
        <time>2022-09-09T08:29:01Z</time>
      </trkpt>
      <trkpt lat="43.8937" lon="7.41918">
        <ele>459</ele>
        <time>2022-09-09T08:29:16Z</time>
      </trkpt>
      <trkpt lat="43.89401" lon="7.41882">
        <ele>463</ele>
        <time>2022-09-09T08:29:31Z</time>
      </trkpt>
      <trkpt lat="43.89438" lon="7.41851">
        <ele>471</ele>
        <time>2022-09-09T08:29:46Z</time>
      </trkpt>
      <trkpt lat="43.89469" lon="7.41811">
        <ele>478</ele>
        <time>2022-09-09T08:30:01Z</time>
      </trkpt>
      <trkpt lat="43.89496" lon="7.41769">
        <ele>484</ele>
        <time>2022-09-09T08:30:16Z</time>
      </trkpt>
      <trkpt lat="43.89526" lon="7.41729">
        <ele>487</ele>
        <time>2022-09-09T08:30:32Z</time>
      </trkpt>
      <trkpt lat="43.89558" lon="7.41693">
        <ele>490</ele>
        <time>2022-09-09T08:30:47Z</time>
      </trkpt>
      <trkpt lat="43.89603" lon="7.41671">
        <ele>481.5</ele>
        <time>2022-09-09T08:31:03Z</time>
      </trkpt>
      <trkpt lat="43.89641" lon="7.41666">
        <ele>492</ele>
        <time>2022-09-09T08:31:18Z</time>
      </trkpt>
      <trkpt lat="43.89681" lon="7.41652">
        <ele>486</ele>
        <time>2022-09-09T08:31:34Z</time>
      </trkpt>
      <trkpt lat="43.8972" lon="7.41626">
        <ele>494</ele>
        <time>2022-09-09T08:31:49Z</time>
      </trkpt>
      <trkpt lat="43.89748" lon="7.41583">
        <ele>497</ele>
        <time>2022-09-09T08:32:05Z</time>
      </trkpt>
      <trkpt lat="43.89757" lon="7.41526">
        <ele>501</ele>
        <time>2022-09-09T08:32:20Z</time>
      </trkpt>
      <trkpt lat="43.89776" lon="7.41477">
        <ele>507</ele>
        <time>2022-09-09T08:32:35Z</time>
      </trkpt>
      <trkpt lat="43.89831" lon="7.41486">
        <ele>506</ele>
        <time>2022-09-09T08:32:50Z</time>
      </trkpt>
      <trkpt lat="43.89878" lon="7.41478">
        <ele>506</ele>
        <time>2022-09-09T08:33:05Z</time>
      </trkpt>
      <trkpt lat="43.89927" lon="7.41459">
        <ele>511</ele>
        <time>2022-09-09T08:33:20Z</time>
      </trkpt>
      <trkpt lat="43.89978" lon="7.4146">
        <ele>511</ele>
        <time>2022-09-09T08:33:36Z</time>
      </trkpt>
      <trkpt lat="43.90026" lon="7.41458">
        <ele>507.4</ele>
        <time>2022-09-09T08:33:51Z</time>
      </trkpt>
      <trkpt lat="43.90078" lon="7.41453">
        <ele>514</ele>
        <time>2022-09-09T08:34:07Z</time>
      </trkpt>
      <trkpt lat="43.90126" lon="7.4144">
        <ele>516</ele>
        <time>2022-09-09T08:34:22Z</time>
      </trkpt>
      <trkpt lat="43.90177" lon="7.4142">
        <ele>521</ele>
        <time>2022-09-09T08:34:37Z</time>
      </trkpt>
      <trkpt lat="43.90224" lon="7.41392">
        <ele>527</ele>
        <time>2022-09-09T08:34:53Z</time>
      </trkpt>
      <trkpt lat="43.90269" lon="7.41382">
        <ele>530</ele>
        <time>2022-09-09T08:35:08Z</time>
      </trkpt>
      <trkpt lat="43.90317" lon="7.41384">
        <ele>529</ele>
        <time>2022-09-09T08:35:23Z</time>
      </trkpt>
      <trkpt lat="43.90368" lon="7.41389">
        <ele>529</ele>
        <time>2022-09-09T08:35:39Z</time>
      </trkpt>
      <trkpt lat="43.90415" lon="7.41402">
        <ele>532</ele>
        <time>2022-09-09T08:35:54Z</time>
      </trkpt>
      <trkpt lat="43.9046" lon="7.41436">
        <ele>540</ele>
        <time>2022-09-09T08:36:10Z</time>
      </trkpt>
      <trkpt lat="43.90507" lon="7.41441">
        <ele>543</ele>
        <time>2022-09-09T08:36:25Z</time>
      </trkpt>
      <trkpt lat="43.90553" lon="7.41415">
        <ele>554</ele>
        <time>2022-09-09T08:36:41Z</time>
      </trkpt>
      <trkpt lat="43.90597" lon="7.41377">
        <ele>552</ele>
        <time>2022-09-09T08:36:56Z</time>
      </trkpt>
      <trkpt lat="43.90628" lon="7.41325">
        <ele>545.6</ele>
        <time>2022-09-09T08:37:11Z</time>
      </trkpt>
      <trkpt lat="43.9065" lon="7.41268">
        <ele>558</ele>
        <time>2022-09-09T08:37:26Z</time>
      </trkpt>
      <trkpt lat="43.90652" lon="7.41203">
        <ele>549.2</ele>
        <time>2022-09-09T08:37:41Z</time>
      </trkpt>
      <trkpt lat="43.90655" lon="7.41143">
        <ele>559</ele>
        <time>2022-09-09T08:37:57Z</time>
      </trkpt>
      <trkpt lat="43.90656" lon="7.41081">
        <ele>562</ele>
        <time>2022-09-09T08:38:12Z</time>
      </trkpt>
      <trkpt lat="43.90667" lon="7.41078">
        <ele>560.1</ele>
        <time>2022-09-09T08:38:27Z</time>
      </trkpt>
      <trkpt lat="43.90666" lon="7.41079">
        <ele>559.5</ele>
        <time>2022-09-09T08:38:43Z</time>
      </trkpt>
      <trkpt lat="43.90668" lon="7.4108">
        <ele>561</ele>
        <time>2022-09-09T08:38:59Z</time>
      </trkpt>
      <trkpt lat="43.90668" lon="7.4108">
        <ele>561.6</ele>
        <time>2022-09-09T08:39:15Z</time>
      </trkpt>
      <trkpt lat="43.90661" lon="7.41099">
        <ele>558.8</ele>
        <time>2022-09-09T08:39:30Z</time>
      </trkpt>
      <trkpt lat="43.9066" lon="7.41121">
        <ele>572</ele>
        <time>2022-09-09T08:39:45Z</time>
      </trkpt>
      <trkpt lat="43.90664" lon="7.41055">
        <ele>561.8</ele>
        <time>2022-09-09T08:40:01Z</time>
      </trkpt>
      <trkpt lat="43.90669" lon="7.40991">
        <ele>566</ele>
        <time>2022-09-09T08:40:16Z</time>
      </trkpt>
      <trkpt lat="43.90682" lon="7.40951">
        <ele>567</ele>
        <time>2022-09-09T08:40:31Z</time>
      </trkpt>
      <trkpt lat="43.90691" lon="7.40917">
        <ele>573</ele>
        <time>2022-09-09T08:40:47Z</time>
      </trkpt>
      <trkpt lat="43.90733" lon="7.40899">
        <ele>570.1</ele>
        <time>2022-09-09T08:41:02Z</time>
      </trkpt>
      <trkpt lat="43.90757" lon="7.40848">
        <ele>577</ele>
        <time>2022-09-09T08:41:18Z</time>
      </trkpt>
      <trkpt lat="43.90792" lon="7.4081">
        <ele>572.9</ele>
        <time>2022-09-09T08:41:33Z</time>
      </trkpt>
      <trkpt lat="43.90803" lon="7.40759">
        <ele>582</ele>
        <time>2022-09-09T08:41:49Z</time>
      </trkpt>
      <trkpt lat="43.90843" lon="7.4072">
        <ele>583</ele>
        <time>2022-09-09T08:42:04Z</time>
      </trkpt>
      <trkpt lat="43.90882" lon="7.4069">
        <ele>588</ele>
        <time>2022-09-09T08:42:20Z</time>
      </trkpt>
      <trkpt lat="43.90922" lon="7.40717">
        <ele>593</ele>
        <time>2022-09-09T08:42:35Z</time>
      </trkpt>
      <trkpt lat="43.9096" lon="7.40739">
        <ele>599</ele>
        <time>2022-09-09T08:42:50Z</time>
      </trkpt>
      <trkpt lat="43.91005" lon="7.40749">
        <ele>593</ele>
        <time>2022-09-09T08:43:06Z</time>
      </trkpt>
      <trkpt lat="43.91049" lon="7.40766">
        <ele>594</ele>
        <time>2022-09-09T08:43:22Z</time>
      </trkpt>
      <trkpt lat="43.9109" lon="7.40777">
        <ele>595</ele>
        <time>2022-09-09T08:43:38Z</time>
      </trkpt>
      <trkpt lat="43.91124" lon="7.40805">
        <ele>597</ele>
        <time>2022-09-09T08:43:53Z</time>
      </trkpt>
      <trkpt lat="43.91091" lon="7.40755">
        <ele>596</ele>
        <time>2022-09-09T08:44:08Z</time>
      </trkpt>
      <trkpt lat="43.91047" lon="7.40736">
        <ele>605.8</ele>
        <time>2022-09-09T08:44:23Z</time>
      </trkpt>
      <trkpt lat="43.91006" lon="7.40725">
        <ele>601</ele>
        <time>2022-09-09T08:44:39Z</time>
      </trkpt>
      <trkpt lat="43.90981" lon="7.40701">
        <ele>610.7</ele>
        <time>2022-09-09T08:44:54Z</time>
      </trkpt>
      <trkpt lat="43.91022" lon="7.40728">
        <ele>605</ele>
        <time>2022-09-09T08:45:09Z</time>
      </trkpt>
      <trkpt lat="43.91066" lon="7.40736">
        <ele>610</ele>
        <time>2022-09-09T08:45:24Z</time>
      </trkpt>
      <trkpt lat="43.91107" lon="7.4075">
        <ele>613</ele>
        <time>2022-09-09T08:45:40Z</time>
      </trkpt>
      <trkpt lat="43.91143" lon="7.40778">
        <ele>616</ele>
        <time>2022-09-09T08:45:55Z</time>
      </trkpt>
      <trkpt lat="43.91183" lon="7.40782">
        <ele>620</ele>
        <time>2022-09-09T08:46:10Z</time>
      </trkpt>
      <trkpt lat="43.91225" lon="7.40772">
        <ele>622</ele>
        <time>2022-09-09T08:46:25Z</time>
      </trkpt>
      <trkpt lat="43.91244" lon="7.40754">
        <ele>624</ele>
        <time>2022-09-09T08:46:41Z</time>
      </trkpt>
      <trkpt lat="43.91199" lon="7.40758">
        <ele>626</ele>
        <time>2022-09-09T08:46:56Z</time>
      </trkpt>
      <trkpt lat="43.91157" lon="7.40759">
        <ele>629</ele>
        <time>2022-09-09T08:47:11Z</time>
      </trkpt>
      <trkpt lat="43.91177" lon="7.40759">
        <ele>633</ele>
        <time>2022-09-09T08:47:27Z</time>
      </trkpt>
      <trkpt lat="43.91218" lon="7.4074">
        <ele>642.9</ele>
        <time>2022-09-09T08:47:42Z</time>
      </trkpt>
      <trkpt lat="43.91258" lon="7.40729">
        <ele>635</ele>
        <time>2022-09-09T08:47:57Z</time>
      </trkpt>
      <trkpt lat="43.91297" lon="7.40703">
        <ele>637</ele>
        <time>2022-09-09T08:48:12Z</time>
      </trkpt>
      <trkpt lat="43.91334" lon="7.4067">
        <ele>639</ele>
        <time>2022-09-09T08:48:28Z</time>
      </trkpt>
      <trkpt lat="43.91375" lon="7.40669">
        <ele>644</ele>
        <time>2022-09-09T08:48:43Z</time>
      </trkpt>
      <trkpt lat="43.91418" lon="7.40663">
        <ele>648</ele>
        <time>2022-09-09T08:48:58Z</time>
      </trkpt>
      <trkpt lat="43.91458" lon="7.4064">
        <ele>652</ele>
        <time>2022-09-09T08:49:13Z</time>
      </trkpt>
      <trkpt lat="43.91494" lon="7.40678">
        <ele>654</ele>
        <time>2022-09-09T08:49:28Z</time>
      </trkpt>
      <trkpt lat="43.91515" lon="7.40734">
        <ele>659</ele>
        <time>2022-09-09T08:49:44Z</time>
      </trkpt>
      <trkpt lat="43.91519" lon="7.40796">
        <ele>661</ele>
        <time>2022-09-09T08:49:59Z</time>
      </trkpt>
      <trkpt lat="43.91527" lon="7.40854">
        <ele>664</ele>
        <time>2022-09-09T08:50:15Z</time>
      </trkpt>
      <trkpt lat="43.91532" lon="7.40909">
        <ele>666</ele>
        <time>2022-09-09T08:50:30Z</time>
      </trkpt>
      <trkpt lat="43.91542" lon="7.40957">
        <ele>672</ele>
        <time>2022-09-09T08:50:46Z</time>
      </trkpt>
      <trkpt lat="43.91545" lon="7.40883">
        <ele>676</ele>
        <time>2022-09-09T08:51:01Z</time>
      </trkpt>
      <trkpt lat="43.9155" lon="7.40956">
        <ele>680</ele>
        <time>2022-09-09T08:51:16Z</time>
      </trkpt>
      <trkpt lat="43.91552" lon="7.40959">
        <ele>683.6</ele>
        <time>2022-09-09T08:51:32Z</time>
      </trkpt>
      <trkpt lat="43.91554" lon="7.40955">
        <ele>684</ele>
        <time>2022-09-09T08:51:48Z</time>
      </trkpt>
      <trkpt lat="43.91553" lon="7.40949">
        <ele>683.1</ele>
        <time>2022-09-09T08:52:03Z</time>
      </trkpt>
      <trkpt lat="43.91551" lon="7.4095">
        <ele>682.3</ele>
        <time>2022-09-09T08:52:19Z</time>
      </trkpt>
      <trkpt lat="43.91551" lon="7.40953">
        <ele>683.9</ele>
        <time>2022-09-09T08:52:35Z</time>
      </trkpt>
      <trkpt lat="43.91591" lon="7.40955">
        <ele>687</ele>
        <time>2022-09-09T08:52:50Z</time>
      </trkpt>
      <trkpt lat="43.91634" lon="7.40944">
        <ele>689</ele>
        <time>2022-09-09T08:53:05Z</time>
      </trkpt>
      <trkpt lat="43.91646" lon="7.40888">
        <ele>689</ele>
        <time>2022-09-09T08:53:20Z</time>
      </trkpt>
      <trkpt lat="43.91638" lon="7.40827">
        <ele>688</ele>
        <time>2022-09-09T08:53:35Z</time>
      </trkpt>
      <trkpt lat="43.91664" lon="7.40797">
        <ele>694</ele>
        <time>2022-09-09T08:53:51Z</time>
      </trkpt>
      <trkpt lat="43.91699" lon="7.40776">
        <ele>700</ele>
        <time>2022-09-09T08:54:06Z</time>
      </trkpt>
      <trkpt lat="43.9174" lon="7.40773">
        <ele>705</ele>
        <time>2022-09-09T08:54:21Z</time>
      </trkpt>
      <trkpt lat="43.91775" lon="7.40803">
        <ele>704.5</ele>
        <time>2022-09-09T08:54:37Z</time>
      </trkpt>
      <trkpt lat="43.91812" lon="7.40829">
        <ele>711</ele>
        <time>2022-09-09T08:54:52Z</time>
      </trkpt>
      <trkpt lat="43.91829" lon="7.40799">
        <ele>708.2</ele>
        <time>2022-09-09T08:55:07Z</time>
      </trkpt>
      <trkpt lat="43.91843" lon="7.40739">
        <ele>712</ele>
        <time>2022-09-09T08:55:22Z</time>
      </trkpt>
      <trkpt lat="43.91846" lon="7.40678">
        <ele>712.9</ele>
        <time>2022-09-09T08:55:38Z</time>
      </trkpt>
      <trkpt lat="43.91851" lon="7.40622">
        <ele>717</ele>
        <time>2022-09-09T08:55:53Z</time>
      </trkpt>
      <trkpt lat="43.91863" lon="7.40563">
        <ele>720</ele>
        <time>2022-09-09T08:56:09Z</time>
      </trkpt>
      <trkpt lat="43.91879" lon="7.40515">
        <ele>724</ele>
        <time>2022-09-09T08:56:24Z</time>
      </trkpt>
      <trkpt lat="43.91902" lon="7.40464">
        <ele>723</ele>
        <time>2022-09-09T08:56:39Z</time>
      </trkpt>
      <trkpt lat="43.91916" lon="7.40416">
        <ele>731</ele>
        <time>2022-09-09T08:56:54Z</time>
      </trkpt>
      <trkpt lat="43.91935" lon="7.4043">
        <ele>728</ele>
        <time>2022-09-09T08:57:10Z</time>
      </trkpt>
      <trkpt lat="43.91919" lon="7.40422">
        <ele>732</ele>
        <time>2022-09-09T08:57:25Z</time>
      </trkpt>
      <trkpt lat="43.91926" lon="7.40425">
        <ele>727.2</ele>
        <time>2022-09-09T08:57:40Z</time>
      </trkpt>
      <trkpt lat="43.91952" lon="7.40485">
        <ele>734</ele>
        <time>2022-09-09T08:57:56Z</time>
      </trkpt>
      <trkpt lat="43.91954" lon="7.40548">
        <ele>734</ele>
        <time>2022-09-09T08:58:11Z</time>
      </trkpt>
      <trkpt lat="43.91971" lon="7.4058">
        <ele>735</ele>
        <time>2022-09-09T08:58:27Z</time>
      </trkpt>
      <trkpt lat="43.91993" lon="7.40636">
        <ele>737</ele>
        <time>2022-09-09T08:58:42Z</time>
      </trkpt>
      <trkpt lat="43.92044" lon="7.40651">
        <ele>741</ele>
        <time>2022-09-09T08:58:58Z</time>
      </trkpt>
      <trkpt lat="43.92091" lon="7.40668">
        <ele>747</ele>
        <time>2022-09-09T08:59:13Z</time>
      </trkpt>
      <trkpt lat="43.92142" lon="7.40673">
        <ele>743</ele>
        <time>2022-09-09T08:59:28Z</time>
      </trkpt>
      <trkpt lat="43.92093" lon="7.40654">
        <ele>746</ele>
        <time>2022-09-09T08:59:43Z</time>
      </trkpt>
      <trkpt lat="43.92044" lon="7.40637">
        <ele>742.3</ele>
        <time>2022-09-09T08:59:58Z</time>
      </trkpt>
      <trkpt lat="43.91997" lon="7.40618">
        <ele>748</ele>
        <time>2022-09-09T09:00:14Z</time>
      </trkpt>
      <trkpt lat="43.92043" lon="7.40626">
        <ele>753</ele>
        <time>2022-09-09T09:00:29Z</time>
      </trkpt>
      <trkpt lat="43.92098" lon="7.40637">
        <ele>758</ele>
        <time>2022-09-09T09:00:45Z</time>
      </trkpt>
      <trkpt lat="43.92147" lon="7.40644">
        <ele>763</ele>
        <time>2022-09-09T09:01:00Z</time>
      </trkpt>
      <trkpt lat="43.92196" lon="7.40646">
        <ele>768</ele>
        <time>2022-09-09T09:01:16Z</time>
      </trkpt>
      <trkpt lat="43.92217" lon="7.40677">
        <ele>761.8</ele>
        <time>2022-09-09T09:01:31Z</time>
      </trkpt>
      <trkpt lat="43.92206" lon="7.40733">
        <ele>772</ele>
        <time>2022-09-09T09:01:46Z</time>
      </trkpt>
      <trkpt lat="43.92241" lon="7.40766">
        <ele>778</ele>
        <time>2022-09-09T09:02:01Z</time>
      </trkpt>
      <trkpt lat="43.92231" lon="7.40753">
        <ele>776</ele>
        <time>2022-09-09T09:02:17Z</time>
      </trkpt>
      <trkpt lat="43.92232" lon="7.4074">
        <ele>776</ele>
        <time>2022-09-09T09:02:32Z</time>
      </trkpt>
      <trkpt lat="43.92273" lon="7.4077">
        <ele>782</ele>
        <time>2022-09-09T09:02:48Z</time>
      </trkpt>
      <trkpt lat="43.92267" lon="7.40829">
        <ele>782</ele>
        <time>2022-09-09T09:03:03Z</time>
      </trkpt>
      <trkpt lat="43.92253" lon="7.40873">
        <ele>786</ele>
        <time>2022-09-09T09:03:18Z</time>
      </trkpt>
      <trkpt lat="43.92264" lon="7.40915">
        <ele>791</ele>
        <time>2022-09-09T09:03:33Z</time>
      </trkpt>
      <trkpt lat="43.92287" lon="7.40955">
        <ele>792.9</ele>
        <time>2022-09-09T09:03:48Z</time>
      </trkpt>
      <trkpt lat="43.92285" lon="7.41008">
        <ele>802</ele>
        <time>2022-09-09T09:04:04Z</time>
      </trkpt>
      <trkpt lat="43.92274" lon="7.41058">
        <ele>798.1</ele>
        <time>2022-09-09T09:04:19Z</time>
      </trkpt>
      <trkpt lat="43.92259" lon="7.41104">
        <ele>807</ele>
        <time>2022-09-09T09:04:34Z</time>
      </trkpt>
      <trkpt lat="43.92271" lon="7.41141">
        <ele>812</ele>
        <time>2022-09-09T09:04:50Z</time>
      </trkpt>
      <trkpt lat="43.92269" lon="7.41135">
        <ele>812</ele>
        <time>2022-09-09T09:05:05Z</time>
      </trkpt>
      <trkpt lat="43.92258" lon="7.4111">
        <ele>809</ele>
        <time>2022-09-09T09:05:20Z</time>
      </trkpt>
      <trkpt lat="43.92282" lon="7.4114">
        <ele>804.5</ele>
        <time>2022-09-09T09:05:35Z</time>
      </trkpt>
      <trkpt lat="43.92324" lon="7.41139">
        <ele>814</ele>
        <time>2022-09-09T09:05:51Z</time>
      </trkpt>
      <trkpt lat="43.92392" lon="7.41148">
        <ele>804.3</ele>
        <time>2022-09-09T09:06:06Z</time>
      </trkpt>
      <trkpt lat="43.92455" lon="7.41211">
        <ele>816</ele>
        <time>2022-09-09T09:06:22Z</time>
      </trkpt>
      <trkpt lat="43.92528" lon="7.41168">
        <ele>815</ele>
        <time>2022-09-09T09:06:37Z</time>
      </trkpt>
      <trkpt lat="43.92599" lon="7.41137">
        <ele>815</ele>
        <time>2022-09-09T09:06:52Z</time>
      </trkpt>
      <trkpt lat="43.92667" lon="7.41188">
        <ele>815</ele>
        <time>2022-09-09T09:07:07Z</time>
      </trkpt>
      <trkpt lat="43.92726" lon="7.41277">
        <ele>817</ele>
        <time>2022-09-09T09:07:23Z</time>
      </trkpt>
      <trkpt lat="43.92754" lon="7.41384">
        <ele>818</ele>
        <time>2022-09-09T09:07:39Z</time>
      </trkpt>
      <trkpt lat="43.92798" lon="7.41349">
        <ele>816</ele>
        <time>2022-09-09T09:07:55Z</time>
      </trkpt>
      <trkpt lat="43.92811" lon="7.41238">
        <ele>816</ele>
        <time>2022-09-09T09:08:10Z</time>
      </trkpt>
      <trkpt lat="43.92873" lon="7.41174">
        <ele>817</ele>
        <time>2022-09-09T09:08:25Z</time>
      </trkpt>
      <trkpt lat="43.92927" lon="7.41093">
        <ele>816</ele>
        <time>2022-09-09T09:08:41Z</time>
      </trkpt>
      <trkpt lat="43.92986" lon="7.41004">
        <ele>815</ele>
        <time>2022-09-09T09:08:57Z</time>
      </trkpt>
      <trkpt lat="43.93058" lon="7.40936">
        <ele>815</ele>
        <time>2022-09-09T09:09:13Z</time>
      </trkpt>
      <trkpt lat="43.93126" lon="7.40963">
        <ele>818</ele>
        <time>2022-09-09T09:09:28Z</time>
      </trkpt>
      <trkpt lat="43.93211" lon="7.40955">
        <ele>820</ele>
        <time>2022-09-09T09:09:43Z</time>
      </trkpt>
      <trkpt lat="43.93301" lon="7.40951">
        <ele>819</ele>
        <time>2022-09-09T09:09:59Z</time>
      </trkpt>
      <trkpt lat="43.93387" lon="7.4096">
        <ele>821</ele>
        <time>2022-09-09T09:10:14Z</time>
      </trkpt>
      <trkpt lat="43.93465" lon="7.41">
        <ele>822</ele>
        <time>2022-09-09T09:10:29Z</time>
      </trkpt>
      <trkpt lat="43.9355" lon="7.41036">
        <ele>821</ele>
        <time>2022-09-09T09:10:44Z</time>
      </trkpt>
      <trkpt lat="43.93621" lon="7.41104">
        <ele>822</ele>
        <time>2022-09-09T09:10:59Z</time>
      </trkpt>
      <trkpt lat="43.93686" lon="7.41197">
        <ele>824</ele>
        <time>2022-09-09T09:11:15Z</time>
      </trkpt>
      <trkpt lat="43.93771" lon="7.41254">
        <ele>826</ele>
        <time>2022-09-09T09:11:31Z</time>
      </trkpt>
      <trkpt lat="43.93844" lon="7.41313">
        <ele>826</ele>
        <time>2022-09-09T09:11:47Z</time>
      </trkpt>
      <trkpt lat="43.93927" lon="7.41291">
        <ele>826</ele>
        <time>2022-09-09T09:12:02Z</time>
      </trkpt>
      <trkpt lat="43.93971" lon="7.41315">
        <ele>820</ele>
        <time>2022-09-09T09:12:18Z</time>
      </trkpt>
      <trkpt lat="43.94005" lon="7.41374">
        <ele>831</ele>
        <time>2022-09-09T09:12:33Z</time>
      </trkpt>
      <trkpt lat="43.94051" lon="7.41362">
        <ele>832</ele>
        <time>2022-09-09T09:12:49Z</time>
      </trkpt>
      <trkpt lat="43.94086" lon="7.41332">
        <ele>835</ele>
        <time>2022-09-09T09:13:05Z</time>
      </trkpt>
      <trkpt lat="43.94089" lon="7.41299">
        <ele>833</ele>
        <time>2022-09-09T09:13:21Z</time>
      </trkpt>
      <trkpt lat="43.94075" lon="7.41286">
        <ele>833</ele>
        <time>2022-09-09T09:13:36Z</time>
      </trkpt>
      <trkpt lat="43.94081" lon="7.41297">
        <ele>833.5</ele>
        <time>2022-09-09T09:13:51Z</time>
      </trkpt>
      <trkpt lat="43.94081" lon="7.41288">
        <ele>835.1</ele>
        <time>2022-09-09T09:14:07Z</time>
      </trkpt>
      <trkpt lat="43.94084" lon="7.41286">
        <ele>833.5</ele>
        <time>2022-09-09T09:14:22Z</time>
      </trkpt>
      <trkpt lat="43.94085" lon="7.41288">
        <ele>835.6</ele>
        <time>2022-09-09T09:14:37Z</time>
      </trkpt>
      <trkpt lat="43.94084" lon="7.41286">
        <ele>833.4</ele>
        <time>2022-09-09T09:14:52Z</time>
      </trkpt>
      <trkpt lat="43.94078" lon="7.4128">
        <ele>837.2</ele>
        <time>2022-09-09T09:15:08Z</time>
      </trkpt>
      <trkpt lat="43.94074" lon="7.41277">
        <ele>833.4</ele>
        <time>2022-09-09T09:15:23Z</time>
      </trkpt>
      <trkpt lat="43.94074" lon="7.41285">
        <ele>836.4</ele>
        <time>2022-09-09T09:15:38Z</time>
      </trkpt>
      <trkpt lat="43.94086" lon="7.41293">
        <ele>832.3</ele>
        <time>2022-09-09T09:15:53Z</time>
      </trkpt>
      <trkpt lat="43.94088" lon="7.41289">
        <ele>837.1</ele>
        <time>2022-09-09T09:16:08Z</time>
      </trkpt>
      <trkpt lat="43.94083" lon="7.41281">
        <ele>832.8</ele>
        <time>2022-09-09T09:16:23Z</time>
      </trkpt>
      <trkpt lat="43.94075" lon="7.41288">
        <ele>837.3</ele>
        <time>2022-09-09T09:16:39Z</time>
      </trkpt>
      <trkpt lat="43.94083" lon="7.41286">
        <ele>838</ele>
        <time>2022-09-09T09:16:54Z</time>
      </trkpt>
      <trkpt lat="43.94085" lon="7.41293">
        <ele>838.3</ele>
        <time>2022-09-09T09:17:09Z</time>
      </trkpt>
      <trkpt lat="43.94098" lon="7.41309">
        <ele>838.3</ele>
        <time>2022-09-09T09:17:24Z</time>
      </trkpt>
      <trkpt lat="43.94108" lon="7.41331">
        <ele>839.4</ele>
        <time>2022-09-09T09:17:40Z</time>
      </trkpt>
      <trkpt lat="43.94115" lon="7.41338">
        <ele>840.8</ele>
        <time>2022-09-09T09:17:55Z</time>
      </trkpt>
      <trkpt lat="43.94115" lon="7.4135">
        <ele>840.3</ele>
        <time>2022-09-09T09:18:10Z</time>
      </trkpt>
      <trkpt lat="43.94114" lon="7.4135">
        <ele>842.4</ele>
        <time>2022-09-09T09:18:25Z</time>
      </trkpt>
      <trkpt lat="43.94114" lon="7.41352">
        <ele>843.1</ele>
        <time>2022-09-09T09:18:41Z</time>
      </trkpt>
      <trkpt lat="43.94115" lon="7.41354">
        <ele>842.6</ele>
        <time>2022-09-09T09:18:57Z</time>
      </trkpt>
      <trkpt lat="43.94115" lon="7.41353">
        <ele>842</ele>
        <time>2022-09-09T09:19:12Z</time>
      </trkpt>
      <trkpt lat="43.94116" lon="7.41352">
        <ele>842.5</ele>
        <time>2022-09-09T09:19:27Z</time>
      </trkpt>
      <trkpt lat="43.94139" lon="7.41386">
        <ele>842</ele>
        <time>2022-09-09T09:19:42Z</time>
      </trkpt>
      <trkpt lat="43.94168" lon="7.41437">
        <ele>853</ele>
        <time>2022-09-09T09:19:58Z</time>
      </trkpt>
      <trkpt lat="43.94196" lon="7.41485">
        <ele>853</ele>
        <time>2022-09-09T09:20:13Z</time>
      </trkpt>
      <trkpt lat="43.94223" lon="7.41534">
        <ele>854</ele>
        <time>2022-09-09T09:20:28Z</time>
      </trkpt>
      <trkpt lat="43.94253" lon="7.41581">
        <ele>857</ele>
        <time>2022-09-09T09:20:43Z</time>
      </trkpt>
      <trkpt lat="43.94289" lon="7.41622">
        <ele>861</ele>
        <time>2022-09-09T09:20:59Z</time>
      </trkpt>
      <trkpt lat="43.94293" lon="7.41565">
        <ele>856</ele>
        <time>2022-09-09T09:21:14Z</time>
      </trkpt>
      <trkpt lat="43.94289" lon="7.41513">
        <ele>857</ele>
        <time>2022-09-09T09:21:30Z</time>
      </trkpt>
      <trkpt lat="43.94275" lon="7.41468">
        <ele>857</ele>
        <time>2022-09-09T09:21:45Z</time>
      </trkpt>
      <trkpt lat="43.94246" lon="7.41423">
        <ele>858</ele>
        <time>2022-09-09T09:22:01Z</time>
      </trkpt>
      <trkpt lat="43.94256" lon="7.41431">
        <ele>865</ele>
        <time>2022-09-09T09:22:16Z</time>
      </trkpt>
      <trkpt lat="43.94291" lon="7.41481">
        <ele>870</ele>
        <time>2022-09-09T09:22:31Z</time>
      </trkpt>
      <trkpt lat="43.94318" lon="7.41551">
        <ele>874</ele>
        <time>2022-09-09T09:22:46Z</time>
      </trkpt>
      <trkpt lat="43.94329" lon="7.41642">
        <ele>872.4</ele>
        <time>2022-09-09T09:23:02Z</time>
      </trkpt>
      <trkpt lat="43.94361" lon="7.41711">
        <ele>879</ele>
        <time>2022-09-09T09:23:17Z</time>
      </trkpt>
      <trkpt lat="43.94414" lon="7.4175">
        <ele>880</ele>
        <time>2022-09-09T09:23:32Z</time>
      </trkpt>
      <trkpt lat="43.94465" lon="7.41817">
        <ele>882</ele>
        <time>2022-09-09T09:23:48Z</time>
      </trkpt>
      <trkpt lat="43.94531" lon="7.41817">
        <ele>882</ele>
        <time>2022-09-09T09:24:03Z</time>
      </trkpt>
      <trkpt lat="43.94584" lon="7.41742">
        <ele>880</ele>
        <time>2022-09-09T09:24:19Z</time>
      </trkpt>
      <trkpt lat="43.94614" lon="7.41679">
        <ele>883</ele>
        <time>2022-09-09T09:24:35Z</time>
      </trkpt>
      <trkpt lat="43.94662" lon="7.41685">
        <ele>885</ele>
        <time>2022-09-09T09:24:51Z</time>
      </trkpt>
      <trkpt lat="43.94698" lon="7.41688">
        <ele>886</ele>
        <time>2022-09-09T09:25:06Z</time>
      </trkpt>
      <trkpt lat="43.94733" lon="7.41673">
        <ele>886</ele>
        <time>2022-09-09T09:25:21Z</time>
      </trkpt>
      <trkpt lat="43.94752" lon="7.41636">
        <ele>889</ele>
        <time>2022-09-09T09:25:37Z</time>
      </trkpt>
      <trkpt lat="43.94766" lon="7.41591">
        <ele>896</ele>
        <time>2022-09-09T09:25:52Z</time>
      </trkpt>
      <trkpt lat="43.94787" lon="7.41565">
        <ele>902.9</ele>
        <time>2022-09-09T09:26:07Z</time>
      </trkpt>
      <trkpt lat="43.94834" lon="7.4155">
        <ele>907</ele>
        <time>2022-09-09T09:26:23Z</time>
      </trkpt>
      <trkpt lat="43.94871" lon="7.41542">
        <ele>912</ele>
        <time>2022-09-09T09:26:38Z</time>
      </trkpt>
      <trkpt lat="43.94908" lon="7.41536">
        <ele>914</ele>
        <time>2022-09-09T09:26:53Z</time>
      </trkpt>
      <trkpt lat="43.94943" lon="7.41533">
        <ele>920</ele>
        <time>2022-09-09T09:27:08Z</time>
      </trkpt>
      <trkpt lat="43.94978" lon="7.41547">
        <ele>922</ele>
        <time>2022-09-09T09:27:23Z</time>
      </trkpt>
      <trkpt lat="43.95013" lon="7.41568">
        <ele>927</ele>
        <time>2022-09-09T09:27:39Z</time>
      </trkpt>
      <trkpt lat="43.95044" lon="7.41587">
        <ele>930</ele>
        <time>2022-09-09T09:27:54Z</time>
      </trkpt>
      <trkpt lat="43.95079" lon="7.41601">
        <ele>935</ele>
        <time>2022-09-09T09:28:09Z</time>
      </trkpt>
      <trkpt lat="43.95117" lon="7.41594">
        <ele>936</ele>
        <time>2022-09-09T09:28:25Z</time>
      </trkpt>
      <trkpt lat="43.95148" lon="7.41571">
        <ele>936</ele>
        <time>2022-09-09T09:28:40Z</time>
      </trkpt>
      <trkpt lat="43.95149" lon="7.41517">
        <ele>938</ele>
        <time>2022-09-09T09:28:55Z</time>
      </trkpt>
      <trkpt lat="43.95132" lon="7.41472">
        <ele>941</ele>
        <time>2022-09-09T09:29:10Z</time>
      </trkpt>
      <trkpt lat="43.95104" lon="7.41443">
        <ele>944</ele>
        <time>2022-09-09T09:29:26Z</time>
      </trkpt>
      <trkpt lat="43.95092" lon="7.41402">
        <ele>946.2</ele>
        <time>2022-09-09T09:29:41Z</time>
      </trkpt>
      <trkpt lat="43.95109" lon="7.41354">
        <ele>961</ele>
        <time>2022-09-09T09:29:56Z</time>
      </trkpt>
      <trkpt lat="43.95137" lon="7.41322">
        <ele>963</ele>
        <time>2022-09-09T09:30:12Z</time>
      </trkpt>
      <trkpt lat="43.95159" lon="7.4129">
        <ele>967</ele>
        <time>2022-09-09T09:30:27Z</time>
      </trkpt>
      <trkpt lat="43.95185" lon="7.41264">
        <ele>959.4</ele>
        <time>2022-09-09T09:30:43Z</time>
      </trkpt>
      <trkpt lat="43.95221" lon="7.41286">
        <ele>963.1</ele>
        <time>2022-09-09T09:30:58Z</time>
      </trkpt>
      <trkpt lat="43.95259" lon="7.41309">
        <ele>972</ele>
        <time>2022-09-09T09:31:14Z</time>
      </trkpt>
      <trkpt lat="43.95298" lon="7.41318">
        <ele>970.7</ele>
        <time>2022-09-09T09:31:30Z</time>
      </trkpt>
      <trkpt lat="43.95334" lon="7.41326">
        <ele>972</ele>
        <time>2022-09-09T09:31:45Z</time>
      </trkpt>
      <trkpt lat="43.95368" lon="7.41316">
        <ele>973</ele>
        <time>2022-09-09T09:32:01Z</time>
      </trkpt>
      <trkpt lat="43.95395" lon="7.41275">
        <ele>976</ele>
        <time>2022-09-09T09:32:16Z</time>
      </trkpt>
      <trkpt lat="43.95446" lon="7.41208">
        <ele>984</ele>
        <time>2022-09-09T09:32:46Z</time>
      </trkpt>
      <trkpt lat="43.95494" lon="7.41202">
        <ele>996</ele>
        <time>2022-09-09T09:33:01Z</time>
      </trkpt>
      <trkpt lat="43.95526" lon="7.41197">
        <ele>990.5</ele>
        <time>2022-09-09T09:33:16Z</time>
      </trkpt>
      <trkpt lat="43.95561" lon="7.41195">
        <ele>992</ele>
        <time>2022-09-09T09:33:32Z</time>
      </trkpt>
      <trkpt lat="43.95596" lon="7.41196">
        <ele>994</ele>
        <time>2022-09-09T09:33:47Z</time>
      </trkpt>
      <trkpt lat="43.95625" lon="7.41206">
        <ele>997</ele>
        <time>2022-09-09T09:34:03Z</time>
      </trkpt>
      <trkpt lat="43.9559" lon="7.41178">
        <ele>994</ele>
        <time>2022-09-09T09:34:18Z</time>
      </trkpt>
      <trkpt lat="43.95561" lon="7.41172">
        <ele>998</ele>
        <time>2022-09-09T09:34:33Z</time>
      </trkpt>
      <trkpt lat="43.95568" lon="7.41149">
        <ele>1000</ele>
        <time>2022-09-09T09:34:48Z</time>
      </trkpt>
      <trkpt lat="43.95602" lon="7.41169">
        <ele>1008.7</ele>
        <time>2022-09-09T09:35:04Z</time>
      </trkpt>
      <trkpt lat="43.95634" lon="7.41198">
        <ele>1012</ele>
        <time>2022-09-09T09:35:20Z</time>
      </trkpt>
      <trkpt lat="43.95664" lon="7.41222">
        <ele>1017</ele>
        <time>2022-09-09T09:35:35Z</time>
      </trkpt>
      <trkpt lat="43.957" lon="7.41231">
        <ele>1021</ele>
        <time>2022-09-09T09:35:50Z</time>
      </trkpt>
      <trkpt lat="43.95736" lon="7.41251">
        <ele>1026</ele>
        <time>2022-09-09T09:36:05Z</time>
      </trkpt>
      <trkpt lat="43.95761" lon="7.41283">
        <ele>1028.2</ele>
        <time>2022-09-09T09:36:20Z</time>
      </trkpt>
      <trkpt lat="43.95796" lon="7.4126">
        <ele>1031</ele>
        <time>2022-09-09T09:36:36Z</time>
      </trkpt>
      <trkpt lat="43.95835" lon="7.4124">
        <ele>1037</ele>
        <time>2022-09-09T09:36:51Z</time>
      </trkpt>
      <trkpt lat="43.95867" lon="7.41211">
        <ele>1038</ele>
        <time>2022-09-09T09:37:07Z</time>
      </trkpt>
      <trkpt lat="43.95893" lon="7.41234">
        <ele>1041</ele>
        <time>2022-09-09T09:37:22Z</time>
      </trkpt>
      <trkpt lat="43.95914" lon="7.41291">
        <ele>1045</ele>
        <time>2022-09-09T09:37:38Z</time>
      </trkpt>
      <trkpt lat="43.95954" lon="7.41293">
        <ele>1048</ele>
        <time>2022-09-09T09:37:53Z</time>
      </trkpt>
      <trkpt lat="43.96001" lon="7.41279">
        <ele>1041.5</ele>
        <time>2022-09-09T09:38:08Z</time>
      </trkpt>
      <trkpt lat="43.96043" lon="7.41321">
        <ele>1053</ele>
        <time>2022-09-09T09:38:23Z</time>
      </trkpt>
      <trkpt lat="43.96046" lon="7.41385">
        <ele>1048</ele>
        <time>2022-09-09T09:38:39Z</time>
      </trkpt>
      <trkpt lat="43.96038" lon="7.4143">
        <ele>1046</ele>
        <time>2022-09-09T09:38:54Z</time>
      </trkpt>
      <trkpt lat="43.96014" lon="7.41469">
        <ele>1044</ele>
        <time>2022-09-09T09:39:09Z</time>
      </trkpt>
      <trkpt lat="43.96002" lon="7.41518">
        <ele>1045</ele>
        <time>2022-09-09T09:39:24Z</time>
      </trkpt>
      <trkpt lat="43.96036" lon="7.41531">
        <ele>1053</ele>
        <time>2022-09-09T09:39:39Z</time>
      </trkpt>
      <trkpt lat="43.9606" lon="7.41479">
        <ele>1058</ele>
        <time>2022-09-09T09:39:54Z</time>
      </trkpt>
      <trkpt lat="43.96098" lon="7.41458">
        <ele>1063</ele>
        <time>2022-09-09T09:40:09Z</time>
      </trkpt>
      <trkpt lat="43.96135" lon="7.41452">
        <ele>1068</ele>
        <time>2022-09-09T09:40:25Z</time>
      </trkpt>
      <trkpt lat="43.96168" lon="7.41417">
        <ele>1075</ele>
        <time>2022-09-09T09:40:40Z</time>
      </trkpt>
      <trkpt lat="43.96207" lon="7.4143">
        <ele>1074</ele>
        <time>2022-09-09T09:40:55Z</time>
      </trkpt>
      <trkpt lat="43.9625" lon="7.4144">
        <ele>1079</ele>
        <time>2022-09-09T09:41:11Z</time>
      </trkpt>
      <trkpt lat="43.96289" lon="7.41459">
        <ele>1084</ele>
        <time>2022-09-09T09:41:26Z</time>
      </trkpt>
      <trkpt lat="43.96332" lon="7.41461">
        <ele>1090</ele>
        <time>2022-09-09T09:41:41Z</time>
      </trkpt>
      <trkpt lat="43.96376" lon="7.4145">
        <ele>1091</ele>
        <time>2022-09-09T09:41:57Z</time>
      </trkpt>
      <trkpt lat="43.9642" lon="7.41451">
        <ele>1081.6</ele>
        <time>2022-09-09T09:42:12Z</time>
      </trkpt>
      <trkpt lat="43.96461" lon="7.41464">
        <ele>1092</ele>
        <time>2022-09-09T09:42:27Z</time>
      </trkpt>
      <trkpt lat="43.96499" lon="7.41484">
        <ele>1093</ele>
        <time>2022-09-09T09:42:42Z</time>
      </trkpt>
      <trkpt lat="43.96516" lon="7.41472">
        <ele>1093</ele>
        <time>2022-09-09T09:42:57Z</time>
      </trkpt>
      <trkpt lat="43.9647" lon="7.41446">
        <ele>1092</ele>
        <time>2022-09-09T09:43:13Z</time>
      </trkpt>
      <trkpt lat="43.96433" lon="7.4142">
        <ele>1093.1</ele>
        <time>2022-09-09T09:43:28Z</time>
      </trkpt>
      <trkpt lat="43.96398" lon="7.41413">
        <ele>1097</ele>
        <time>2022-09-09T09:43:43Z</time>
      </trkpt>
      <trkpt lat="43.96359" lon="7.41412">
        <ele>1099</ele>
        <time>2022-09-09T09:43:59Z</time>
      </trkpt>
      <trkpt lat="43.96323" lon="7.41401">
        <ele>1101</ele>
        <time>2022-09-09T09:44:14Z</time>
      </trkpt>
      <trkpt lat="43.96286" lon="7.41394">
        <ele>1103</ele>
        <time>2022-09-09T09:44:29Z</time>
      </trkpt>
      <trkpt lat="43.96246" lon="7.41393">
        <ele>1104</ele>
        <time>2022-09-09T09:44:46Z</time>
      </trkpt>
      <trkpt lat="43.96273" lon="7.41385">
        <ele>1116</ele>
        <time>2022-09-09T09:45:01Z</time>
      </trkpt>
      <trkpt lat="43.96312" lon="7.4139">
        <ele>1121</ele>
        <time>2022-09-09T09:45:16Z</time>
      </trkpt>
      <trkpt lat="43.96349" lon="7.41389">
        <ele>1126</ele>
        <time>2022-09-09T09:45:31Z</time>
      </trkpt>
      <trkpt lat="43.96382" lon="7.41381">
        <ele>1130</ele>
        <time>2022-09-09T09:45:47Z</time>
      </trkpt>
      <trkpt lat="43.96415" lon="7.41378">
        <ele>1131</ele>
        <time>2022-09-09T09:46:02Z</time>
      </trkpt>
      <trkpt lat="43.96447" lon="7.41369">
        <ele>1135</ele>
        <time>2022-09-09T09:46:17Z</time>
      </trkpt>
      <trkpt lat="43.96475" lon="7.41396">
        <ele>1130.9</ele>
        <time>2022-09-09T09:46:32Z</time>
      </trkpt>
      <trkpt lat="43.9651" lon="7.41401">
        <ele>1143</ele>
        <time>2022-09-09T09:46:48Z</time>
      </trkpt>
      <trkpt lat="43.96542" lon="7.41416">
        <ele>1146</ele>
        <time>2022-09-09T09:47:03Z</time>
      </trkpt>
      <trkpt lat="43.96572" lon="7.41431">
        <ele>1148</ele>
        <time>2022-09-09T09:47:18Z</time>
      </trkpt>
      <trkpt lat="43.96604" lon="7.41441">
        <ele>1151</ele>
        <time>2022-09-09T09:47:33Z</time>
      </trkpt>
      <trkpt lat="43.96632" lon="7.41469">
        <ele>1155</ele>
        <time>2022-09-09T09:47:49Z</time>
      </trkpt>
      <trkpt lat="43.96665" lon="7.41475">
        <ele>1158</ele>
        <time>2022-09-09T09:48:04Z</time>
      </trkpt>
      <trkpt lat="43.96683" lon="7.41513">
        <ele>1152.2</ele>
        <time>2022-09-09T09:48:20Z</time>
      </trkpt>
      <trkpt lat="43.96716" lon="7.41516">
        <ele>1163</ele>
        <time>2022-09-09T09:48:35Z</time>
      </trkpt>
      <trkpt lat="43.96746" lon="7.41482">
        <ele>1167</ele>
        <time>2022-09-09T09:48:50Z</time>
      </trkpt>
      <trkpt lat="43.9678" lon="7.41452">
        <ele>1171</ele>
        <time>2022-09-09T09:49:06Z</time>
      </trkpt>
      <trkpt lat="43.96812" lon="7.41426">
        <ele>1174</ele>
        <time>2022-09-09T09:49:21Z</time>
      </trkpt>
      <trkpt lat="43.96848" lon="7.41413">
        <ele>1171.8</ele>
        <time>2022-09-09T09:49:36Z</time>
      </trkpt>
      <trkpt lat="43.96882" lon="7.41432">
        <ele>1178</ele>
        <time>2022-09-09T09:49:52Z</time>
      </trkpt>
      <trkpt lat="43.96912" lon="7.41441">
        <ele>1178</ele>
        <time>2022-09-09T09:50:07Z</time>
      </trkpt>
      <trkpt lat="43.9694" lon="7.41401">
        <ele>1184</ele>
        <time>2022-09-09T09:50:22Z</time>
      </trkpt>
      <trkpt lat="43.96966" lon="7.41361">
        <ele>1189</ele>
        <time>2022-09-09T09:50:38Z</time>
      </trkpt>
      <trkpt lat="43.97001" lon="7.41338">
        <ele>1195</ele>
        <time>2022-09-09T09:50:53Z</time>
      </trkpt>
      <trkpt lat="43.97034" lon="7.41311">
        <ele>1197</ele>
        <time>2022-09-09T09:51:08Z</time>
      </trkpt>
      <trkpt lat="43.97066" lon="7.4129">
        <ele>1200</ele>
        <time>2022-09-09T09:51:24Z</time>
      </trkpt>
      <trkpt lat="43.971" lon="7.41278">
        <ele>1203</ele>
        <time>2022-09-09T09:51:40Z</time>
      </trkpt>
      <trkpt lat="43.9712" lon="7.41238">
        <ele>1209</ele>
        <time>2022-09-09T09:51:55Z</time>
      </trkpt>
      <trkpt lat="43.97132" lon="7.41201">
        <ele>1213</ele>
        <time>2022-09-09T09:52:10Z</time>
      </trkpt>
      <trkpt lat="43.97159" lon="7.41219">
        <ele>1211</ele>
        <time>2022-09-09T09:52:26Z</time>
      </trkpt>
      <trkpt lat="43.9719" lon="7.41231">
        <ele>1211</ele>
        <time>2022-09-09T09:52:41Z</time>
      </trkpt>
      <trkpt lat="43.97221" lon="7.4122">
        <ele>1214</ele>
        <time>2022-09-09T09:52:56Z</time>
      </trkpt>
      <trkpt lat="43.97255" lon="7.41205">
        <ele>1210</ele>
        <time>2022-09-09T09:53:11Z</time>
      </trkpt>
      <trkpt lat="43.97289" lon="7.41193">
        <ele>1220</ele>
        <time>2022-09-09T09:53:27Z</time>
      </trkpt>
      <trkpt lat="43.97321" lon="7.41179">
        <ele>1224</ele>
        <time>2022-09-09T09:53:42Z</time>
      </trkpt>
      <trkpt lat="43.9736" lon="7.41175">
        <ele>1226</ele>
        <time>2022-09-09T09:53:57Z</time>
      </trkpt>
      <trkpt lat="43.97398" lon="7.41178">
        <ele>1227</ele>
        <time>2022-09-09T09:54:13Z</time>
      </trkpt>
      <trkpt lat="43.97431" lon="7.41201">
        <ele>1231</ele>
        <time>2022-09-09T09:54:28Z</time>
      </trkpt>
      <trkpt lat="43.97464" lon="7.41225">
        <ele>1234</ele>
        <time>2022-09-09T09:54:43Z</time>
      </trkpt>
      <trkpt lat="43.97501" lon="7.41238">
        <ele>1234</ele>
        <time>2022-09-09T09:54:58Z</time>
      </trkpt>
      <trkpt lat="43.97544" lon="7.41229">
        <ele>1237</ele>
        <time>2022-09-09T09:55:14Z</time>
      </trkpt>
      <trkpt lat="43.9758" lon="7.41217">
        <ele>1237</ele>
        <time>2022-09-09T09:55:29Z</time>
      </trkpt>
      <trkpt lat="43.97588" lon="7.41191">
        <ele>1238</ele>
        <time>2022-09-09T09:55:44Z</time>
      </trkpt>
      <trkpt lat="43.97543" lon="7.41213">
        <ele>1236</ele>
        <time>2022-09-09T09:55:59Z</time>
      </trkpt>
      <trkpt lat="43.97498" lon="7.41211">
        <ele>1245.5</ele>
        <time>2022-09-09T09:56:14Z</time>
      </trkpt>
      <trkpt lat="43.97466" lon="7.41186">
        <ele>1238</ele>
        <time>2022-09-09T09:56:29Z</time>
      </trkpt>
      <trkpt lat="43.97426" lon="7.41149">
        <ele>1240</ele>
        <time>2022-09-09T09:56:44Z</time>
      </trkpt>
      <trkpt lat="43.97384" lon="7.41135">
        <ele>1243</ele>
        <time>2022-09-09T09:57:00Z</time>
      </trkpt>
      <trkpt lat="43.97348" lon="7.41132">
        <ele>1246</ele>
        <time>2022-09-09T09:57:15Z</time>
      </trkpt>
      <trkpt lat="43.97313" lon="7.41116">
        <ele>1251</ele>
        <time>2022-09-09T09:57:30Z</time>
      </trkpt>
      <trkpt lat="43.9728" lon="7.41128">
        <ele>1254</ele>
        <time>2022-09-09T09:57:45Z</time>
      </trkpt>
      <trkpt lat="43.97243" lon="7.41136">
        <ele>1261.4</ele>
        <time>2022-09-09T09:58:01Z</time>
      </trkpt>
      <trkpt lat="43.97258" lon="7.41127">
        <ele>1265</ele>
        <time>2022-09-09T09:58:16Z</time>
      </trkpt>
      <trkpt lat="43.97289" lon="7.41109">
        <ele>1271</ele>
        <time>2022-09-09T09:58:31Z</time>
      </trkpt>
      <trkpt lat="43.97319" lon="7.4109">
        <ele>1278</ele>
        <time>2022-09-09T09:58:46Z</time>
      </trkpt>
      <trkpt lat="43.97351" lon="7.41101">
        <ele>1280</ele>
        <time>2022-09-09T09:59:02Z</time>
      </trkpt>
      <trkpt lat="43.97384" lon="7.41093">
        <ele>1285</ele>
        <time>2022-09-09T09:59:17Z</time>
      </trkpt>
      <trkpt lat="43.97417" lon="7.41083">
        <ele>1287</ele>
        <time>2022-09-09T09:59:33Z</time>
      </trkpt>
      <trkpt lat="43.97446" lon="7.41106">
        <ele>1286</ele>
        <time>2022-09-09T09:59:48Z</time>
      </trkpt>
      <trkpt lat="43.97474" lon="7.41129">
        <ele>1294</ele>
        <time>2022-09-09T10:00:03Z</time>
      </trkpt>
      <trkpt lat="43.97511" lon="7.41136">
        <ele>1298</ele>
        <time>2022-09-09T10:00:19Z</time>
      </trkpt>
      <trkpt lat="43.97545" lon="7.41121">
        <ele>1299</ele>
        <time>2022-09-09T10:00:34Z</time>
      </trkpt>
      <trkpt lat="43.97563" lon="7.41084">
        <ele>1305</ele>
        <time>2022-09-09T10:00:50Z</time>
      </trkpt>
      <trkpt lat="43.97584" lon="7.41039">
        <ele>1311</ele>
        <time>2022-09-09T10:01:06Z</time>
      </trkpt>
      <trkpt lat="43.97602" lon="7.41">
        <ele>1315</ele>
        <time>2022-09-09T10:01:21Z</time>
      </trkpt>
      <trkpt lat="43.97622" lon="7.40965">
        <ele>1307.6</ele>
        <time>2022-09-09T10:01:36Z</time>
      </trkpt>
      <trkpt lat="43.97649" lon="7.40933">
        <ele>1320</ele>
        <time>2022-09-09T10:01:52Z</time>
      </trkpt>
      <trkpt lat="43.97668" lon="7.40898">
        <ele>1323</ele>
        <time>2022-09-09T10:02:07Z</time>
      </trkpt>
      <trkpt lat="43.97676" lon="7.40853">
        <ele>1326</ele>
        <time>2022-09-09T10:02:22Z</time>
      </trkpt>
      <trkpt lat="43.97666" lon="7.40804">
        <ele>1331</ele>
        <time>2022-09-09T10:02:38Z</time>
      </trkpt>
      <trkpt lat="43.97679" lon="7.40767">
        <ele>1327.6</ele>
        <time>2022-09-09T10:02:53Z</time>
      </trkpt>
      <trkpt lat="43.97674" lon="7.40717">
        <ele>1335</ele>
        <time>2022-09-09T10:03:08Z</time>
      </trkpt>
      <trkpt lat="43.97666" lon="7.40665">
        <ele>1342</ele>
        <time>2022-09-09T10:03:24Z</time>
      </trkpt>
      <trkpt lat="43.97681" lon="7.4062">
        <ele>1347</ele>
        <time>2022-09-09T10:03:39Z</time>
      </trkpt>
      <trkpt lat="43.97699" lon="7.40582">
        <ele>1347</ele>
        <time>2022-09-09T10:03:55Z</time>
      </trkpt>
      <trkpt lat="43.97723" lon="7.40547">
        <ele>1349</ele>
        <time>2022-09-09T10:04:10Z</time>
      </trkpt>
      <trkpt lat="43.97733" lon="7.40534">
        <ele>1343.8</ele>
        <time>2022-09-09T10:04:25Z</time>
      </trkpt>
      <trkpt lat="43.9769" lon="7.4058">
        <ele>1347.7</ele>
        <time>2022-09-09T10:04:41Z</time>
      </trkpt>
      <trkpt lat="43.9766" lon="7.40626">
        <ele>1357</ele>
        <time>2022-09-09T10:04:56Z</time>
      </trkpt>
      <trkpt lat="43.9764" lon="7.40676">
        <ele>1360</ele>
        <time>2022-09-09T10:05:11Z</time>
      </trkpt>
      <trkpt lat="43.97634" lon="7.40729">
        <ele>1361</ele>
        <time>2022-09-09T10:05:27Z</time>
      </trkpt>
      <trkpt lat="43.9763" lon="7.40778">
        <ele>1361</ele>
        <time>2022-09-09T10:05:42Z</time>
      </trkpt>
      <trkpt lat="43.97606" lon="7.40819">
        <ele>1366</ele>
        <time>2022-09-09T10:05:57Z</time>
      </trkpt>
      <trkpt lat="43.97601" lon="7.40861">
        <ele>1369</ele>
        <time>2022-09-09T10:06:12Z</time>
      </trkpt>
      <trkpt lat="43.97578" lon="7.40895">
        <ele>1368</ele>
        <time>2022-09-09T10:06:28Z</time>
      </trkpt>
      <trkpt lat="43.9755" lon="7.40925">
        <ele>1374</ele>
        <time>2022-09-09T10:06:43Z</time>
      </trkpt>
      <trkpt lat="43.97529" lon="7.40959">
        <ele>1376</ele>
        <time>2022-09-09T10:06:58Z</time>
      </trkpt>
      <trkpt lat="43.975" lon="7.4094">
        <ele>1373</ele>
        <time>2022-09-09T10:07:14Z</time>
      </trkpt>
      <trkpt lat="43.97474" lon="7.4091">
        <ele>1374</ele>
        <time>2022-09-09T10:07:30Z</time>
      </trkpt>
      <trkpt lat="43.97439" lon="7.40904">
        <ele>1375</ele>
        <time>2022-09-09T10:07:45Z</time>
      </trkpt>
      <trkpt lat="43.97405" lon="7.40909">
        <ele>1375</ele>
        <time>2022-09-09T10:08:00Z</time>
      </trkpt>
      <trkpt lat="43.97388" lon="7.40872">
        <ele>1380</ele>
        <time>2022-09-09T10:08:15Z</time>
      </trkpt>
      <trkpt lat="43.97388" lon="7.40823">
        <ele>1384</ele>
        <time>2022-09-09T10:08:31Z</time>
      </trkpt>
      <trkpt lat="43.97382" lon="7.40773">
        <ele>1384</ele>
        <time>2022-09-09T10:08:46Z</time>
      </trkpt>
      <trkpt lat="43.9736" lon="7.40725">
        <ele>1389</ele>
        <time>2022-09-09T10:09:01Z</time>
      </trkpt>
      <trkpt lat="43.97326" lon="7.40688">
        <ele>1392</ele>
        <time>2022-09-09T10:09:17Z</time>
      </trkpt>
      <trkpt lat="43.9729" lon="7.40662">
        <ele>1405.5</ele>
        <time>2022-09-09T10:09:32Z</time>
      </trkpt>
      <trkpt lat="43.97257" lon="7.40648">
        <ele>1404</ele>
        <time>2022-09-09T10:09:47Z</time>
      </trkpt>
      <trkpt lat="43.97225" lon="7.40682">
        <ele>1413</ele>
        <time>2022-09-09T10:10:02Z</time>
      </trkpt>
      <trkpt lat="43.9719" lon="7.40705">
        <ele>1417</ele>
        <time>2022-09-09T10:10:18Z</time>
      </trkpt>
      <trkpt lat="43.97216" lon="7.40671">
        <ele>1424</ele>
        <time>2022-09-09T10:10:33Z</time>
      </trkpt>
      <trkpt lat="43.97248" lon="7.40637">
        <ele>1424.1</ele>
        <time>2022-09-09T10:10:48Z</time>
      </trkpt>
      <trkpt lat="43.97281" lon="7.40618">
        <ele>1430</ele>
        <time>2022-09-09T10:11:03Z</time>
      </trkpt>
      <trkpt lat="43.97313" lon="7.40625">
        <ele>1430</ele>
        <time>2022-09-09T10:11:19Z</time>
      </trkpt>
      <trkpt lat="43.97345" lon="7.40657">
        <ele>1432</ele>
        <time>2022-09-09T10:11:34Z</time>
      </trkpt>
      <trkpt lat="43.97381" lon="7.40677">
        <ele>1435</ele>
        <time>2022-09-09T10:11:49Z</time>
      </trkpt>
      <trkpt lat="43.97407" lon="7.40719">
        <ele>1437</ele>
        <time>2022-09-09T10:12:04Z</time>
      </trkpt>
      <trkpt lat="43.97428" lon="7.40763">
        <ele>1439</ele>
        <time>2022-09-09T10:12:19Z</time>
      </trkpt>
      <trkpt lat="43.97451" lon="7.408">
        <ele>1444</ele>
        <time>2022-09-09T10:12:34Z</time>
      </trkpt>
      <trkpt lat="43.97477" lon="7.40759">
        <ele>1446</ele>
        <time>2022-09-09T10:12:50Z</time>
      </trkpt>
      <trkpt lat="43.97496" lon="7.40709">
        <ele>1451</ele>
        <time>2022-09-09T10:13:05Z</time>
      </trkpt>
      <trkpt lat="43.97513" lon="7.40662">
        <ele>1457</ele>
        <time>2022-09-09T10:13:20Z</time>
      </trkpt>
      <trkpt lat="43.97515" lon="7.40611">
        <ele>1460</ele>
        <time>2022-09-09T10:13:35Z</time>
      </trkpt>
      <trkpt lat="43.97521" lon="7.40561">
        <ele>1462</ele>
        <time>2022-09-09T10:13:50Z</time>
      </trkpt>
      <trkpt lat="43.9754" lon="7.40515">
        <ele>1466</ele>
        <time>2022-09-09T10:14:05Z</time>
      </trkpt>
      <trkpt lat="43.97558" lon="7.40468">
        <ele>1462</ele>
        <time>2022-09-09T10:14:20Z</time>
      </trkpt>
      <trkpt lat="43.9757" lon="7.40425">
        <ele>1478</ele>
        <time>2022-09-09T10:14:35Z</time>
      </trkpt>
      <trkpt lat="43.97596" lon="7.4039">
        <ele>1476</ele>
        <time>2022-09-09T10:14:51Z</time>
      </trkpt>
      <trkpt lat="43.97607" lon="7.40346">
        <ele>1480</ele>
        <time>2022-09-09T10:15:06Z</time>
      </trkpt>
      <trkpt lat="43.97612" lon="7.40303">
        <ele>1483</ele>
        <time>2022-09-09T10:15:21Z</time>
      </trkpt>
      <trkpt lat="43.97604" lon="7.40254">
        <ele>1486</ele>
        <time>2022-09-09T10:15:37Z</time>
      </trkpt>
      <trkpt lat="43.97578" lon="7.40214">
        <ele>1494</ele>
        <time>2022-09-09T10:15:52Z</time>
      </trkpt>
      <trkpt lat="43.97557" lon="7.40173">
        <ele>1483.7</ele>
        <time>2022-09-09T10:16:07Z</time>
      </trkpt>
      <trkpt lat="43.97542" lon="7.40176">
        <ele>1495</ele>
        <time>2022-09-09T10:16:22Z</time>
      </trkpt>
      <trkpt lat="43.9756" lon="7.40224">
        <ele>1494</ele>
        <time>2022-09-09T10:16:37Z</time>
      </trkpt>
      <trkpt lat="43.97568" lon="7.40277">
        <ele>1497</ele>
        <time>2022-09-09T10:16:53Z</time>
      </trkpt>
      <trkpt lat="43.97563" lon="7.40325">
        <ele>1496</ele>
        <time>2022-09-09T10:17:08Z</time>
      </trkpt>
      <trkpt lat="43.9755" lon="7.40364">
        <ele>1500.1</ele>
        <time>2022-09-09T10:17:24Z</time>
      </trkpt>
      <trkpt lat="43.97528" lon="7.40395">
        <ele>1500</ele>
        <time>2022-09-09T10:17:39Z</time>
      </trkpt>
      <trkpt lat="43.97507" lon="7.40436">
        <ele>1507</ele>
        <time>2022-09-09T10:17:54Z</time>
      </trkpt>
      <trkpt lat="43.97483" lon="7.40481">
        <ele>1506</ele>
        <time>2022-09-09T10:18:10Z</time>
      </trkpt>
      <trkpt lat="43.97461" lon="7.40522">
        <ele>1508</ele>
        <time>2022-09-09T10:18:25Z</time>
      </trkpt>
      <trkpt lat="43.97442" lon="7.40572">
        <ele>1512</ele>
        <time>2022-09-09T10:18:40Z</time>
      </trkpt>
      <trkpt lat="43.97434" lon="7.40565">
        <ele>1513</ele>
        <time>2022-09-09T10:18:55Z</time>
      </trkpt>
      <trkpt lat="43.97457" lon="7.40513">
        <ele>1519.5</ele>
        <time>2022-09-09T10:19:10Z</time>
      </trkpt>
      <trkpt lat="43.97474" lon="7.40469">
        <ele>1525</ele>
        <time>2022-09-09T10:19:26Z</time>
      </trkpt>
      <trkpt lat="43.97486" lon="7.40424">
        <ele>1530</ele>
        <time>2022-09-09T10:19:42Z</time>
      </trkpt>
      <trkpt lat="43.97499" lon="7.40379">
        <ele>1535</ele>
        <time>2022-09-09T10:19:57Z</time>
      </trkpt>
      <trkpt lat="43.97497" lon="7.40338">
        <ele>1538</ele>
        <time>2022-09-09T10:20:12Z</time>
      </trkpt>
      <trkpt lat="43.97494" lon="7.40292">
        <ele>1539</ele>
        <time>2022-09-09T10:20:28Z</time>
      </trkpt>
      <trkpt lat="43.9749" lon="7.40247">
        <ele>1548</ele>
        <time>2022-09-09T10:20:43Z</time>
      </trkpt>
      <trkpt lat="43.97476" lon="7.40202">
        <ele>1554</ele>
        <time>2022-09-09T10:20:58Z</time>
      </trkpt>
      <trkpt lat="43.9746" lon="7.4016">
        <ele>1560</ele>
        <time>2022-09-09T10:21:14Z</time>
      </trkpt>
      <trkpt lat="43.97447" lon="7.40112">
        <ele>1567</ele>
        <time>2022-09-09T10:21:29Z</time>
      </trkpt>
      <trkpt lat="43.97441" lon="7.40069">
        <ele>1570</ele>
        <time>2022-09-09T10:21:44Z</time>
      </trkpt>
      <trkpt lat="43.97436" lon="7.40022">
        <ele>1571</ele>
        <time>2022-09-09T10:21:59Z</time>
      </trkpt>
      <trkpt lat="43.97445" lon="7.39977">
        <ele>1571</ele>
        <time>2022-09-09T10:22:14Z</time>
      </trkpt>
      <trkpt lat="43.97423" lon="7.39986">
        <ele>1570</ele>
        <time>2022-09-09T10:22:30Z</time>
      </trkpt>
      <trkpt lat="43.97415" lon="7.40032">
        <ele>1566</ele>
        <time>2022-09-09T10:22:46Z</time>
      </trkpt>
      <trkpt lat="43.97407" lon="7.4008">
        <ele>1564</ele>
        <time>2022-09-09T10:23:01Z</time>
      </trkpt>
      <trkpt lat="43.97411" lon="7.40133">
        <ele>1564</ele>
        <time>2022-09-09T10:23:17Z</time>
      </trkpt>
      <trkpt lat="43.9742" lon="7.40181">
        <ele>1568</ele>
        <time>2022-09-09T10:23:32Z</time>
      </trkpt>
      <trkpt lat="43.97422" lon="7.40231">
        <ele>1569</ele>
        <time>2022-09-09T10:23:48Z</time>
      </trkpt>
      <trkpt lat="43.97427" lon="7.40283">
        <ele>1576.1</ele>
        <time>2022-09-09T10:24:03Z</time>
      </trkpt>
      <trkpt lat="43.97417" lon="7.40281">
        <ele>1575</ele>
        <time>2022-09-09T10:24:18Z</time>
      </trkpt>
      <trkpt lat="43.97419" lon="7.40222">
        <ele>1585</ele>
        <time>2022-09-09T10:24:33Z</time>
      </trkpt>
      <trkpt lat="43.97408" lon="7.40175">
        <ele>1593</ele>
        <time>2022-09-09T10:24:49Z</time>
      </trkpt>
      <trkpt lat="43.97396" lon="7.40128">
        <ele>1600</ele>
        <time>2022-09-09T10:25:04Z</time>
      </trkpt>
      <trkpt lat="43.97383" lon="7.40082">
        <ele>1596.2</ele>
        <time>2022-09-09T10:25:20Z</time>
      </trkpt>
      <trkpt lat="43.97381" lon="7.40031">
        <ele>1607</ele>
        <time>2022-09-09T10:25:35Z</time>
      </trkpt>
      <trkpt lat="43.97376" lon="7.39982">
        <ele>1612</ele>
        <time>2022-09-09T10:25:51Z</time>
      </trkpt>
      <trkpt lat="43.97386" lon="7.39939">
        <ele>1611</ele>
        <time>2022-09-09T10:26:06Z</time>
      </trkpt>
      <trkpt lat="43.97409" lon="7.39906">
        <ele>1610</ele>
        <time>2022-09-09T10:26:21Z</time>
      </trkpt>
      <trkpt lat="43.97435" lon="7.39877">
        <ele>1611.1</ele>
        <time>2022-09-09T10:26:36Z</time>
      </trkpt>
      <trkpt lat="43.97463" lon="7.39852">
        <ele>1615</ele>
        <time>2022-09-09T10:26:51Z</time>
      </trkpt>
      <trkpt lat="43.97478" lon="7.39809">
        <ele>1620</ele>
        <time>2022-09-09T10:27:07Z</time>
      </trkpt>
      <trkpt lat="43.97491" lon="7.39761">
        <ele>1624</ele>
        <time>2022-09-09T10:27:22Z</time>
      </trkpt>
      <trkpt lat="43.97511" lon="7.39731">
        <ele>1626</ele>
        <time>2022-09-09T10:27:38Z</time>
      </trkpt>
      <trkpt lat="43.97538" lon="7.39704">
        <ele>1629</ele>
        <time>2022-09-09T10:27:54Z</time>
      </trkpt>
      <trkpt lat="43.9757" lon="7.39674">
        <ele>1629</ele>
        <time>2022-09-09T10:28:09Z</time>
      </trkpt>
      <trkpt lat="43.97581" lon="7.39628">
        <ele>1629.2</ele>
        <time>2022-09-09T10:28:25Z</time>
      </trkpt>
      <trkpt lat="43.97578" lon="7.39585">
        <ele>1637</ele>
        <time>2022-09-09T10:28:40Z</time>
      </trkpt>
      <trkpt lat="43.97567" lon="7.39537">
        <ele>1644</ele>
        <time>2022-09-09T10:28:55Z</time>
      </trkpt>
      <trkpt lat="43.9757" lon="7.39488">
        <ele>1645</ele>
        <time>2022-09-09T10:29:11Z</time>
      </trkpt>
      <trkpt lat="43.97596" lon="7.39466">
        <ele>1648</ele>
        <time>2022-09-09T10:29:26Z</time>
      </trkpt>
      <trkpt lat="43.97625" lon="7.39453">
        <ele>1651</ele>
        <time>2022-09-09T10:29:41Z</time>
      </trkpt>
      <trkpt lat="43.97649" lon="7.39422">
        <ele>1652</ele>
        <time>2022-09-09T10:29:56Z</time>
      </trkpt>
      <trkpt lat="43.97651" lon="7.39375">
        <ele>1652.7</ele>
        <time>2022-09-09T10:30:12Z</time>
      </trkpt>
      <trkpt lat="43.97661" lon="7.39327">
        <ele>1657</ele>
        <time>2022-09-09T10:30:27Z</time>
      </trkpt>
      <trkpt lat="43.97682" lon="7.39278">
        <ele>1660</ele>
        <time>2022-09-09T10:30:42Z</time>
      </trkpt>
      <trkpt lat="43.97693" lon="7.39233">
        <ele>1663</ele>
        <time>2022-09-09T10:30:57Z</time>
      </trkpt>
      <trkpt lat="43.977" lon="7.39187">
        <ele>1661</ele>
        <time>2022-09-09T10:31:13Z</time>
      </trkpt>
      <trkpt lat="43.97735" lon="7.39164">
        <ele>1660</ele>
        <time>2022-09-09T10:31:28Z</time>
      </trkpt>
      <trkpt lat="43.97769" lon="7.39155">
        <ele>1660</ele>
        <time>2022-09-09T10:31:44Z</time>
      </trkpt>
      <trkpt lat="43.97762" lon="7.39155">
        <ele>1668.2</ele>
        <time>2022-09-09T10:31:59Z</time>
      </trkpt>
      <trkpt lat="43.97764" lon="7.39156">
        <ele>1664.6</ele>
        <time>2022-09-09T10:32:14Z</time>
      </trkpt>
      <trkpt lat="43.97764" lon="7.39156">
        <ele>1667.2</ele>
        <time>2022-09-09T10:32:29Z</time>
      </trkpt>
      <trkpt lat="43.97763" lon="7.39157">
        <ele>1664</ele>
        <time>2022-09-09T10:32:45Z</time>
      </trkpt>
      <trkpt lat="43.97741" lon="7.39165">
        <ele>1664.1</ele>
        <time>2022-09-09T10:33:01Z</time>
      </trkpt>
      <trkpt lat="43.97691" lon="7.39196">
        <ele>1657</ele>
        <time>2022-09-09T10:33:16Z</time>
      </trkpt>
      <trkpt lat="43.97657" lon="7.39329">
        <ele>1654</ele>
        <time>2022-09-09T10:33:32Z</time>
      </trkpt>
      <trkpt lat="43.97596" lon="7.39475">
        <ele>1646</ele>
        <time>2022-09-09T10:33:47Z</time>
      </trkpt>
      <trkpt lat="43.97573" lon="7.3965">
        <ele>1634</ele>
        <time>2022-09-09T10:34:03Z</time>
      </trkpt>
      <trkpt lat="43.97465" lon="7.39811">
        <ele>1626</ele>
        <time>2022-09-09T10:34:19Z</time>
      </trkpt>
      <trkpt lat="43.97367" lon="7.39964">
        <ele>1613</ele>
        <time>2022-09-09T10:34:34Z</time>
      </trkpt>
      <trkpt lat="43.97404" lon="7.40204">
        <ele>1590</ele>
        <time>2022-09-09T10:34:50Z</time>
      </trkpt>
      <trkpt lat="43.97431" lon="7.40271">
        <ele>1582</ele>
        <time>2022-09-09T10:35:05Z</time>
      </trkpt>
      <trkpt lat="43.97417" lon="7.40084">
        <ele>1577</ele>
        <time>2022-09-09T10:35:20Z</time>
      </trkpt>
      <trkpt lat="43.97412" lon="7.40104">
        <ele>1570.9</ele>
        <time>2022-09-09T10:35:36Z</time>
      </trkpt>
      <trkpt lat="43.97415" lon="7.40147">
        <ele>1576</ele>
        <time>2022-09-09T10:35:51Z</time>
      </trkpt>
      <trkpt lat="43.97422" lon="7.40189">
        <ele>1577</ele>
        <time>2022-09-09T10:36:06Z</time>
      </trkpt>
      <trkpt lat="43.97422" lon="7.40233">
        <ele>1578</ele>
        <time>2022-09-09T10:36:21Z</time>
      </trkpt>
      <trkpt lat="43.97426" lon="7.40283">
        <ele>1580</ele>
        <time>2022-09-09T10:36:36Z</time>
      </trkpt>
      <trkpt lat="43.97414" lon="7.40297">
        <ele>1582</ele>
        <time>2022-09-09T10:36:52Z</time>
      </trkpt>
      <trkpt lat="43.97418" lon="7.4024">
        <ele>1586</ele>
        <time>2022-09-09T10:37:08Z</time>
      </trkpt>
      <trkpt lat="43.97414" lon="7.40194">
        <ele>1589</ele>
        <time>2022-09-09T10:37:23Z</time>
      </trkpt>
      <trkpt lat="43.974" lon="7.40149">
        <ele>1593.2</ele>
        <time>2022-09-09T10:37:39Z</time>
      </trkpt>
      <trkpt lat="43.97386" lon="7.40101">
        <ele>1597</ele>
        <time>2022-09-09T10:37:55Z</time>
      </trkpt>
      <trkpt lat="43.97383" lon="7.40058">
        <ele>1599</ele>
        <time>2022-09-09T10:38:10Z</time>
      </trkpt>
      <trkpt lat="43.97378" lon="7.40014">
        <ele>1603</ele>
        <time>2022-09-09T10:38:25Z</time>
      </trkpt>
      <trkpt lat="43.97373" lon="7.39968">
        <ele>1610</ele>
        <time>2022-09-09T10:38:40Z</time>
      </trkpt>
      <trkpt lat="43.97392" lon="7.39932">
        <ele>1610</ele>
        <time>2022-09-09T10:38:56Z</time>
      </trkpt>
      <trkpt lat="43.97413" lon="7.39902">
        <ele>1611</ele>
        <time>2022-09-09T10:39:11Z</time>
      </trkpt>
      <trkpt lat="43.97435" lon="7.39875">
        <ele>1611</ele>
        <time>2022-09-09T10:39:27Z</time>
      </trkpt>
      <trkpt lat="43.97465" lon="7.39846">
        <ele>1615</ele>
        <time>2022-09-09T10:39:42Z</time>
      </trkpt>
      <trkpt lat="43.9748" lon="7.39806">
        <ele>1619</ele>
        <time>2022-09-09T10:39:58Z</time>
      </trkpt>
      <trkpt lat="43.97492" lon="7.39761">
        <ele>1621</ele>
        <time>2022-09-09T10:40:13Z</time>
      </trkpt>
      <trkpt lat="43.97514" lon="7.39734">
        <ele>1628</ele>
        <time>2022-09-09T10:40:28Z</time>
      </trkpt>
      <trkpt lat="43.9754" lon="7.39706">
        <ele>1632</ele>
        <time>2022-09-09T10:40:44Z</time>
      </trkpt>
      <trkpt lat="43.97571" lon="7.39681">
        <ele>1634</ele>
        <time>2022-09-09T10:40:59Z</time>
      </trkpt>
      <trkpt lat="43.97585" lon="7.39636">
        <ele>1633</ele>
        <time>2022-09-09T10:41:14Z</time>
      </trkpt>
      <trkpt lat="43.97579" lon="7.3959">
        <ele>1636</ele>
        <time>2022-09-09T10:41:29Z</time>
      </trkpt>
      <trkpt lat="43.97568" lon="7.39548">
        <ele>1638.8</ele>
        <time>2022-09-09T10:41:45Z</time>
      </trkpt>
      <trkpt lat="43.9757" lon="7.39501">
        <ele>1638</ele>
        <time>2022-09-09T10:42:00Z</time>
      </trkpt>
      <trkpt lat="43.97589" lon="7.3947">
        <ele>1645.4</ele>
        <time>2022-09-09T10:42:16Z</time>
      </trkpt>
      <trkpt lat="43.97622" lon="7.39459">
        <ele>1649</ele>
        <time>2022-09-09T10:42:31Z</time>
      </trkpt>
      <trkpt lat="43.97649" lon="7.39434">
        <ele>1648.9</ele>
        <time>2022-09-09T10:42:46Z</time>
      </trkpt>
      <trkpt lat="43.9765" lon="7.39391">
        <ele>1650</ele>
        <time>2022-09-09T10:43:01Z</time>
      </trkpt>
      <trkpt lat="43.97659" lon="7.39343">
        <ele>1655</ele>
        <time>2022-09-09T10:43:16Z</time>
      </trkpt>
      <trkpt lat="43.97673" lon="7.393">
        <ele>1659</ele>
        <time>2022-09-09T10:43:31Z</time>
      </trkpt>
      <trkpt lat="43.97691" lon="7.39261">
        <ele>1662</ele>
        <time>2022-09-09T10:43:47Z</time>
      </trkpt>
      <trkpt lat="43.97694" lon="7.39218">
        <ele>1660</ele>
        <time>2022-09-09T10:44:02Z</time>
      </trkpt>
      <trkpt lat="43.97706" lon="7.39181">
        <ele>1660</ele>
        <time>2022-09-09T10:44:17Z</time>
      </trkpt>
      <trkpt lat="43.97735" lon="7.39174">
        <ele>1665.2</ele>
        <time>2022-09-09T10:44:33Z</time>
      </trkpt>
      <trkpt lat="43.97707" lon="7.39174">
        <ele>1658</ele>
        <time>2022-09-09T10:44:48Z</time>
      </trkpt>
      <trkpt lat="43.97694" lon="7.39189">
        <ele>1658</ele>
        <time>2022-09-09T10:45:04Z</time>
      </trkpt>
      <trkpt lat="43.97693" lon="7.39188">
        <ele>1666.5</ele>
        <time>2022-09-09T10:45:20Z</time>
      </trkpt>
      <trkpt lat="43.97693" lon="7.39188">
        <ele>1664.7</ele>
        <time>2022-09-09T10:45:36Z</time>
      </trkpt>
      <trkpt lat="43.97694" lon="7.3918">
        <ele>1665.5</ele>
        <time>2022-09-09T10:45:51Z</time>
      </trkpt>
      <trkpt lat="43.97694" lon="7.3918">
        <ele>1660.4</ele>
        <time>2022-09-09T10:46:06Z</time>
      </trkpt>
      <trkpt lat="43.97711" lon="7.39176">
        <ele>1659.8</ele>
        <time>2022-09-09T10:46:21Z</time>
      </trkpt>
      <trkpt lat="43.97751" lon="7.39167">
        <ele>1657</ele>
        <time>2022-09-09T10:46:36Z</time>
      </trkpt>
      <trkpt lat="43.97748" lon="7.39179">
        <ele>1659.8</ele>
        <time>2022-09-09T10:46:52Z</time>
      </trkpt>
      <trkpt lat="43.97748" lon="7.3918">
        <ele>1660.5</ele>
        <time>2022-09-09T10:47:08Z</time>
      </trkpt>
      <trkpt lat="43.97748" lon="7.39179">
        <ele>1665.3</ele>
        <time>2022-09-09T10:47:24Z</time>
      </trkpt>
      <trkpt lat="43.97748" lon="7.39179">
        <ele>1659.5</ele>
        <time>2022-09-09T10:47:40Z</time>
      </trkpt>
      <trkpt lat="43.97748" lon="7.39179">
        <ele>1665.4</ele>
        <time>2022-09-09T10:47:55Z</time>
      </trkpt>
      <trkpt lat="43.97748" lon="7.39179">
        <ele>1659.3</ele>
        <time>2022-09-09T10:48:11Z</time>
      </trkpt>
      <trkpt lat="43.97748" lon="7.39179">
        <ele>1659.9</ele>
        <time>2022-09-09T10:48:27Z</time>
      </trkpt>
      <trkpt lat="43.97748" lon="7.39179">
        <ele>1659.4</ele>
        <time>2022-09-09T10:48:42Z</time>
      </trkpt>
      <trkpt lat="43.97748" lon="7.39179">
        <ele>1659.3</ele>
        <time>2022-09-09T10:48:57Z</time>
      </trkpt>
      <trkpt lat="43.97748" lon="7.39179">
        <ele>1658.1</ele>
        <time>2022-09-09T10:49:12Z</time>
      </trkpt>
      <trkpt lat="43.97748" lon="7.39179">
        <ele>1659.4</ele>
        <time>2022-09-09T10:49:28Z</time>
      </trkpt>
      <trkpt lat="43.97748" lon="7.39179">
        <ele>1658</ele>
        <time>2022-09-09T10:49:43Z</time>
      </trkpt>
      <trkpt lat="43.97748" lon="7.39179">
        <ele>1658.2</ele>
        <time>2022-09-09T10:49:58Z</time>
      </trkpt>
      <trkpt lat="43.97748" lon="7.39179">
        <ele>1657.9</ele>
        <time>2022-09-09T10:50:13Z</time>
      </trkpt>
      <trkpt lat="43.97749" lon="7.39175">
        <ele>1658.8</ele>
        <time>2022-09-09T10:50:29Z</time>
      </trkpt>
      <trkpt lat="43.97749" lon="7.39176">
        <ele>1658.6</ele>
        <time>2022-09-09T10:50:44Z</time>
      </trkpt>
      <trkpt lat="43.97746" lon="7.3918">
        <ele>1658.6</ele>
        <time>2022-09-09T10:50:59Z</time>
      </trkpt>
      <trkpt lat="43.97745" lon="7.3918">
        <ele>1658</ele>
        <time>2022-09-09T10:51:15Z</time>
      </trkpt>
      <trkpt lat="43.97745" lon="7.3918">
        <ele>1658</ele>
        <time>2022-09-09T10:51:31Z</time>
      </trkpt>
      <trkpt lat="43.97745" lon="7.3918">
        <ele>1658.1</ele>
        <time>2022-09-09T10:51:47Z</time>
      </trkpt>
      <trkpt lat="43.97745" lon="7.3918">
        <ele>1658.1</ele>
        <time>2022-09-09T10:52:02Z</time>
      </trkpt>
      <trkpt lat="43.97747" lon="7.39178">
        <ele>1658.2</ele>
        <time>2022-09-09T10:52:18Z</time>
      </trkpt>
      <trkpt lat="43.97723" lon="7.39176">
        <ele>1658.8</ele>
        <time>2022-09-09T10:52:34Z</time>
      </trkpt>
      <trkpt lat="43.97721" lon="7.39187">
        <ele>1658.6</ele>
        <time>2022-09-09T10:52:49Z</time>
      </trkpt>
      <trkpt lat="43.97722" lon="7.39184">
        <ele>1659</ele>
        <time>2022-09-09T10:53:04Z</time>
      </trkpt>
      <trkpt lat="43.97731" lon="7.39173">
        <ele>1658.5</ele>
        <time>2022-09-09T10:53:20Z</time>
      </trkpt>
      <trkpt lat="43.97763" lon="7.39151">
        <ele>1654</ele>
        <time>2022-09-09T10:53:36Z</time>
      </trkpt>
      <trkpt lat="43.97818" lon="7.39056">
        <ele>1650</ele>
        <time>2022-09-09T10:53:51Z</time>
      </trkpt>
      <trkpt lat="43.97892" lon="7.3892">
        <ele>1644</ele>
        <time>2022-09-09T10:54:07Z</time>
      </trkpt>
      <trkpt lat="43.97853" lon="7.38741">
        <ele>1625</ele>
        <time>2022-09-09T10:54:23Z</time>
      </trkpt>
      <trkpt lat="43.97995" lon="7.38766">
        <ele>1620</ele>
        <time>2022-09-09T10:54:38Z</time>
      </trkpt>
      <trkpt lat="43.9798" lon="7.3862">
        <ele>1603</ele>
        <time>2022-09-09T10:54:54Z</time>
      </trkpt>
      <trkpt lat="43.98016" lon="7.38415">
        <ele>1582</ele>
        <time>2022-09-09T10:55:10Z</time>
      </trkpt>
      <trkpt lat="43.98019" lon="7.38275">
        <ele>1567</ele>
        <time>2022-09-09T10:55:25Z</time>
      </trkpt>
      <trkpt lat="43.98084" lon="7.38144">
        <ele>1561</ele>
        <time>2022-09-09T10:55:41Z</time>
      </trkpt>
      <trkpt lat="43.98017" lon="7.38018">
        <ele>1551</ele>
        <time>2022-09-09T10:55:57Z</time>
      </trkpt>
      <trkpt lat="43.98005" lon="7.37946">
        <ele>1539</ele>
        <time>2022-09-09T10:56:12Z</time>
      </trkpt>
      <trkpt lat="43.97907" lon="7.37815">
        <ele>1531</ele>
        <time>2022-09-09T10:56:27Z</time>
      </trkpt>
      <trkpt lat="43.97777" lon="7.37791">
        <ele>1511</ele>
        <time>2022-09-09T10:56:43Z</time>
      </trkpt>
      <trkpt lat="43.97809" lon="7.37542">
        <ele>1489</ele>
        <time>2022-09-09T10:56:58Z</time>
      </trkpt>
      <trkpt lat="43.97774" lon="7.37385">
        <ele>1475</ele>
        <time>2022-09-09T10:57:13Z</time>
      </trkpt>
      <trkpt lat="43.97805" lon="7.37117">
        <ele>1456</ele>
        <time>2022-09-09T10:57:29Z</time>
      </trkpt>
      <trkpt lat="43.97777" lon="7.37115">
        <ele>1490</ele>
        <time>2022-09-09T10:57:44Z</time>
      </trkpt>
      <trkpt lat="43.97716" lon="7.37307">
        <ele>1442</ele>
        <time>2022-09-09T10:58:00Z</time>
      </trkpt>
      <trkpt lat="43.97591" lon="7.37328">
        <ele>1433</ele>
        <time>2022-09-09T10:58:15Z</time>
      </trkpt>
      <trkpt lat="43.97638" lon="7.37113">
        <ele>1406</ele>
        <time>2022-09-09T10:58:30Z</time>
      </trkpt>
      <trkpt lat="43.97713" lon="7.36861">
        <ele>1385</ele>
        <time>2022-09-09T10:58:46Z</time>
      </trkpt>
      <trkpt lat="43.97848" lon="7.36782">
        <ele>1372</ele>
        <time>2022-09-09T10:59:01Z</time>
      </trkpt>
      <trkpt lat="43.97974" lon="7.36852">
        <ele>1364</ele>
        <time>2022-09-09T10:59:16Z</time>
      </trkpt>
      <trkpt lat="43.9808" lon="7.36787">
        <ele>1350</ele>
        <time>2022-09-09T10:59:31Z</time>
      </trkpt>
      <trkpt lat="43.98122" lon="7.36628">
        <ele>1333</ele>
        <time>2022-09-09T10:59:47Z</time>
      </trkpt>
      <trkpt lat="43.98198" lon="7.36546">
        <ele>1320</ele>
        <time>2022-09-09T11:00:02Z</time>
      </trkpt>
      <trkpt lat="43.98242" lon="7.36529">
        <ele>1315.8</ele>
        <time>2022-09-09T11:00:17Z</time>
      </trkpt>
      <trkpt lat="43.98242" lon="7.36529">
        <ele>1315.8</ele>
        <time>2022-09-09T11:00:32Z</time>
      </trkpt>
      <trkpt lat="43.98242" lon="7.36529">
        <ele>1315.9</ele>
        <time>2022-09-09T11:00:47Z</time>
      </trkpt>
      <trkpt lat="43.98235" lon="7.36514">
        <ele>1315.7</ele>
        <time>2022-09-09T11:01:03Z</time>
      </trkpt>
      <trkpt lat="43.98129" lon="7.36582">
        <ele>1311</ele>
        <time>2022-09-09T11:01:18Z</time>
      </trkpt>
      <trkpt lat="43.98072" lon="7.36617">
        <ele>1303</ele>
        <time>2022-09-09T11:01:34Z</time>
      </trkpt>
      <trkpt lat="43.98156" lon="7.36531">
        <ele>1295</ele>
        <time>2022-09-09T11:01:49Z</time>
      </trkpt>
      <trkpt lat="43.98259" lon="7.36487">
        <ele>1288</ele>
        <time>2022-09-09T11:02:05Z</time>
      </trkpt>
      <trkpt lat="43.984" lon="7.36575">
        <ele>1279</ele>
        <time>2022-09-09T11:02:21Z</time>
      </trkpt>
      <trkpt lat="43.98532" lon="7.36714">
        <ele>1273</ele>
        <time>2022-09-09T11:02:36Z</time>
      </trkpt>
      <trkpt lat="43.98536" lon="7.36471">
        <ele>1254</ele>
        <time>2022-09-09T11:02:52Z</time>
      </trkpt>
      <trkpt lat="43.98542" lon="7.36215">
        <ele>1231</ele>
        <time>2022-09-09T11:03:08Z</time>
      </trkpt>
      <trkpt lat="43.98541" lon="7.36068">
        <ele>1218</ele>
        <time>2022-09-09T11:03:23Z</time>
      </trkpt>
      <trkpt lat="43.98506" lon="7.36232">
        <ele>1212</ele>
        <time>2022-09-09T11:03:38Z</time>
      </trkpt>
      <trkpt lat="43.98467" lon="7.36448">
        <ele>1203</ele>
        <time>2022-09-09T11:03:53Z</time>
      </trkpt>
      <trkpt lat="43.9845" lon="7.36293">
        <ele>1187</ele>
        <time>2022-09-09T11:04:09Z</time>
      </trkpt>
      <trkpt lat="43.98422" lon="7.36053">
        <ele>1169</ele>
        <time>2022-09-09T11:04:24Z</time>
      </trkpt>
      <trkpt lat="43.98512" lon="7.35939">
        <ele>1159</ele>
        <time>2022-09-09T11:04:40Z</time>
      </trkpt>
      <trkpt lat="43.98567" lon="7.35953">
        <ele>1147.9</ele>
        <time>2022-09-09T11:04:55Z</time>
      </trkpt>
      <trkpt lat="43.98566" lon="7.35953">
        <ele>1148.7</ele>
        <time>2022-09-09T11:05:11Z</time>
      </trkpt>
      <trkpt lat="43.98566" lon="7.35953">
        <ele>1148.6</ele>
        <time>2022-09-09T11:05:26Z</time>
      </trkpt>
      <trkpt lat="43.98626" lon="7.35989">
        <ele>1149</ele>
        <time>2022-09-09T11:05:41Z</time>
      </trkpt>
      <trkpt lat="43.98733" lon="7.36126">
        <ele>1140</ele>
        <time>2022-09-09T11:05:56Z</time>
      </trkpt>
      <trkpt lat="43.9876" lon="7.35964">
        <ele>1134</ele>
        <time>2022-09-09T11:06:12Z</time>
      </trkpt>
      <trkpt lat="43.98675" lon="7.35796">
        <ele>1118</ele>
        <time>2022-09-09T11:06:27Z</time>
      </trkpt>
      <trkpt lat="43.9863" lon="7.35633">
        <ele>1102</ele>
        <time>2022-09-09T11:06:43Z</time>
      </trkpt>
      <trkpt lat="43.98585" lon="7.35564">
        <ele>1092</ele>
        <time>2022-09-09T11:06:59Z</time>
      </trkpt>
      <trkpt lat="43.98577" lon="7.35699">
        <ele>1089</ele>
        <time>2022-09-09T11:07:14Z</time>
      </trkpt>
      <trkpt lat="43.98557" lon="7.35693">
        <ele>1080</ele>
        <time>2022-09-09T11:07:30Z</time>
      </trkpt>
      <trkpt lat="43.98571" lon="7.355">
        <ele>1066</ele>
        <time>2022-09-09T11:07:46Z</time>
      </trkpt>
      <trkpt lat="43.98554" lon="7.35369">
        <ele>1050</ele>
        <time>2022-09-09T11:08:01Z</time>
      </trkpt>
      <trkpt lat="43.98504" lon="7.35536">
        <ele>1040</ele>
        <time>2022-09-09T11:08:16Z</time>
      </trkpt>
      <trkpt lat="43.98431" lon="7.35664">
        <ele>1031</ele>
        <time>2022-09-09T11:08:31Z</time>
      </trkpt>
      <trkpt lat="43.98478" lon="7.35612">
        <ele>1018</ele>
        <time>2022-09-09T11:08:46Z</time>
      </trkpt>
      <trkpt lat="43.98489" lon="7.35376">
        <ele>997</ele>
        <time>2022-09-09T11:09:02Z</time>
      </trkpt>
      <trkpt lat="43.9853" lon="7.35238">
        <ele>986</ele>
        <time>2022-09-09T11:09:17Z</time>
      </trkpt>
      <trkpt lat="43.98431" lon="7.3503">
        <ele>966</ele>
        <time>2022-09-09T11:09:32Z</time>
      </trkpt>
      <trkpt lat="43.98475" lon="7.34854">
        <ele>959</ele>
        <time>2022-09-09T11:09:48Z</time>
      </trkpt>
      <trkpt lat="43.98439" lon="7.3466">
        <ele>944</ele>
        <time>2022-09-09T11:10:03Z</time>
      </trkpt>
      <trkpt lat="43.98409" lon="7.34464">
        <ele>924</ele>
        <time>2022-09-09T11:10:19Z</time>
      </trkpt>
      <trkpt lat="43.98291" lon="7.34284">
        <ele>906</ele>
        <time>2022-09-09T11:10:34Z</time>
      </trkpt>
      <trkpt lat="43.98298" lon="7.34089">
        <ele>888</ele>
        <time>2022-09-09T11:10:50Z</time>
      </trkpt>
      <trkpt lat="43.98411" lon="7.34151">
        <ele>885</ele>
        <time>2022-09-09T11:11:05Z</time>
      </trkpt>
      <trkpt lat="43.98509" lon="7.34012">
        <ele>882</ele>
        <time>2022-09-09T11:11:20Z</time>
      </trkpt>
      <trkpt lat="43.98566" lon="7.33873">
        <ele>842</ele>
        <time>2022-09-09T11:11:36Z</time>
      </trkpt>
      <trkpt lat="43.98528" lon="7.33793">
        <ele>855</ele>
        <time>2022-09-09T11:11:51Z</time>
      </trkpt>
      <trkpt lat="43.98528" lon="7.33794">
        <ele>853.2</ele>
        <time>2022-09-09T11:12:07Z</time>
      </trkpt>
      <trkpt lat="43.98528" lon="7.33794">
        <ele>853.4</ele>
        <time>2022-09-09T11:12:23Z</time>
      </trkpt>
      <trkpt lat="43.98528" lon="7.33792">
        <ele>850.7</ele>
        <time>2022-09-09T11:12:38Z</time>
      </trkpt>
      <trkpt lat="43.98553" lon="7.33685">
        <ele>839</ele>
        <time>2022-09-09T11:12:54Z</time>
      </trkpt>
      <trkpt lat="43.98555" lon="7.33539">
        <ele>835</ele>
        <time>2022-09-09T11:13:09Z</time>
      </trkpt>
      <trkpt lat="43.98595" lon="7.33455">
        <ele>826</ele>
        <time>2022-09-09T11:13:25Z</time>
      </trkpt>
      <trkpt lat="43.98594" lon="7.33452">
        <ele>824</ele>
        <time>2022-09-09T11:13:40Z</time>
      </trkpt>
      <trkpt lat="43.98595" lon="7.33452">
        <ele>830.1</ele>
        <time>2022-09-09T11:13:56Z</time>
      </trkpt>
      <trkpt lat="43.98595" lon="7.33452">
        <ele>830.2</ele>
        <time>2022-09-09T11:14:11Z</time>
      </trkpt>
      <trkpt lat="43.98594" lon="7.33451">
        <ele>828.2</ele>
        <time>2022-09-09T11:14:27Z</time>
      </trkpt>
      <trkpt lat="43.98644" lon="7.335">
        <ele>821</ele>
        <time>2022-09-09T11:14:42Z</time>
      </trkpt>
      <trkpt lat="43.98813" lon="7.33492">
        <ele>808</ele>
        <time>2022-09-09T11:14:57Z</time>
      </trkpt>
      <trkpt lat="43.98997" lon="7.33497">
        <ele>791</ele>
        <time>2022-09-09T11:15:12Z</time>
      </trkpt>
      <trkpt lat="43.99082" lon="7.33344">
        <ele>774</ele>
        <time>2022-09-09T11:15:27Z</time>
      </trkpt>
      <trkpt lat="43.99192" lon="7.33406">
        <ele>764</ele>
        <time>2022-09-09T11:15:42Z</time>
      </trkpt>
      <trkpt lat="43.99123" lon="7.33274">
        <ele>752</ele>
        <time>2022-09-09T11:15:58Z</time>
      </trkpt>
      <trkpt lat="43.99083" lon="7.33204">
        <ele>760.5</ele>
        <time>2022-09-09T11:16:13Z</time>
      </trkpt>
      <trkpt lat="43.99087" lon="7.33217">
        <ele>746.5</ele>
        <time>2022-09-09T11:16:29Z</time>
      </trkpt>
      <trkpt lat="43.9905" lon="7.33193">
        <ele>745</ele>
        <time>2022-09-09T11:16:44Z</time>
      </trkpt>
      <trkpt lat="43.99023" lon="7.33174">
        <ele>747</ele>
        <time>2022-09-09T11:16:59Z</time>
      </trkpt>
      <trkpt lat="43.99013" lon="7.33176">
        <ele>747.2</ele>
        <time>2022-09-09T11:17:15Z</time>
      </trkpt>
      <trkpt lat="43.99013" lon="7.33176">
        <ele>751</ele>
        <time>2022-09-09T11:17:30Z</time>
      </trkpt>
      <trkpt lat="43.99011" lon="7.33177">
        <ele>749</ele>
        <time>2022-09-09T11:17:46Z</time>
      </trkpt>
      <trkpt lat="43.99012" lon="7.33177">
        <ele>749.2</ele>
        <time>2022-09-09T11:18:02Z</time>
      </trkpt>
      <trkpt lat="43.99012" lon="7.33177">
        <ele>748.7</ele>
        <time>2022-09-09T11:18:18Z</time>
      </trkpt>
      <trkpt lat="43.99012" lon="7.33174">
        <ele>749</ele>
        <time>2022-09-09T11:18:33Z</time>
      </trkpt>
      <trkpt lat="43.99014" lon="7.33177">
        <ele>749</ele>
        <time>2022-09-09T11:18:48Z</time>
      </trkpt>
      <trkpt lat="43.99045" lon="7.33195">
        <ele>749</ele>
        <time>2022-09-09T11:19:04Z</time>
      </trkpt>
      <trkpt lat="43.99065" lon="7.33198">
        <ele>745</ele>
        <time>2022-09-09T11:19:20Z</time>
      </trkpt>
      <trkpt lat="43.99077" lon="7.33222">
        <ele>747</ele>
        <time>2022-09-09T11:19:35Z</time>
      </trkpt>
      <trkpt lat="43.99052" lon="7.33166">
        <ele>746.2</ele>
        <time>2022-09-09T11:19:50Z</time>
      </trkpt>
      <trkpt lat="43.9904" lon="7.33103">
        <ele>746</ele>
        <time>2022-09-09T11:20:05Z</time>
      </trkpt>
      <trkpt lat="43.99019" lon="7.33033">
        <ele>743</ele>
        <time>2022-09-09T11:20:21Z</time>
      </trkpt>
      <trkpt lat="43.98988" lon="7.32968">
        <ele>737</ele>
        <time>2022-09-09T11:20:36Z</time>
      </trkpt>
      <trkpt lat="43.98938" lon="7.33005">
        <ele>740</ele>
        <time>2022-09-09T11:20:51Z</time>
      </trkpt>
      <trkpt lat="43.98937" lon="7.33078">
        <ele>743</ele>
        <time>2022-09-09T11:21:07Z</time>
      </trkpt>
      <trkpt lat="43.98944" lon="7.33139">
        <ele>744</ele>
        <time>2022-09-09T11:21:22Z</time>
      </trkpt>
      <trkpt lat="43.9898" lon="7.33175">
        <ele>745.4</ele>
        <time>2022-09-09T11:21:37Z</time>
      </trkpt>
      <trkpt lat="43.98963" lon="7.3316">
        <ele>746.1</ele>
        <time>2022-09-09T11:21:52Z</time>
      </trkpt>
      <trkpt lat="43.98938" lon="7.33082">
        <ele>740</ele>
        <time>2022-09-09T11:22:08Z</time>
      </trkpt>
      <trkpt lat="43.98953" lon="7.32976">
        <ele>735</ele>
        <time>2022-09-09T11:22:23Z</time>
      </trkpt>
      <trkpt lat="43.98996" lon="7.32982">
        <ele>736</ele>
        <time>2022-09-09T11:22:38Z</time>
      </trkpt>
      <trkpt lat="43.99048" lon="7.33037">
        <ele>730</ele>
        <time>2022-09-09T11:22:54Z</time>
      </trkpt>
      <trkpt lat="43.99087" lon="7.33043">
        <ele>722</ele>
        <time>2022-09-09T11:23:09Z</time>
      </trkpt>
      <trkpt lat="43.98976" lon="7.32905">
        <ele>717</ele>
        <time>2022-09-09T11:23:25Z</time>
      </trkpt>
      <trkpt lat="43.98987" lon="7.32886">
        <ele>705</ele>
        <time>2022-09-09T11:23:40Z</time>
      </trkpt>
      <trkpt lat="43.99079" lon="7.32912">
        <ele>697</ele>
        <time>2022-09-09T11:23:55Z</time>
      </trkpt>
      <trkpt lat="43.98991" lon="7.32841">
        <ele>696</ele>
        <time>2022-09-09T11:24:11Z</time>
      </trkpt>
      <trkpt lat="43.98875" lon="7.32842">
        <ele>692</ele>
        <time>2022-09-09T11:24:27Z</time>
      </trkpt>
      <trkpt lat="43.98924" lon="7.32722">
        <ele>682</ele>
        <time>2022-09-09T11:24:42Z</time>
      </trkpt>
      <trkpt lat="43.98993" lon="7.3257">
        <ele>676</ele>
        <time>2022-09-09T11:24:57Z</time>
      </trkpt>
      <trkpt lat="43.98889" lon="7.32385">
        <ele>666</ele>
        <time>2022-09-09T11:25:13Z</time>
      </trkpt>
      <trkpt lat="43.98759" lon="7.3244">
        <ele>662</ele>
        <time>2022-09-09T11:25:29Z</time>
      </trkpt>
      <trkpt lat="43.98798" lon="7.32346">
        <ele>650</ele>
        <time>2022-09-09T11:25:45Z</time>
      </trkpt>
      <trkpt lat="43.98912" lon="7.3226">
        <ele>637</ele>
        <time>2022-09-09T11:26:01Z</time>
      </trkpt>
      <trkpt lat="43.99021" lon="7.32427">
        <ele>630</ele>
        <time>2022-09-09T11:26:17Z</time>
      </trkpt>
      <trkpt lat="43.99136" lon="7.32584">
        <ele>617</ele>
        <time>2022-09-09T11:26:33Z</time>
      </trkpt>
      <trkpt lat="43.99082" lon="7.32454">
        <ele>602</ele>
        <time>2022-09-09T11:26:49Z</time>
      </trkpt>
      <trkpt lat="43.99012" lon="7.32237">
        <ele>582</ele>
        <time>2022-09-09T11:27:04Z</time>
      </trkpt>
      <trkpt lat="43.99056" lon="7.32329">
        <ele>573</ele>
        <time>2022-09-09T11:27:19Z</time>
      </trkpt>
      <trkpt lat="43.99066" lon="7.32275">
        <ele>571.4</ele>
        <time>2022-09-09T11:27:35Z</time>
      </trkpt>
      <trkpt lat="43.99056" lon="7.32242">
        <ele>567.4</ele>
        <time>2022-09-09T11:27:50Z</time>
      </trkpt>
      <trkpt lat="43.9904" lon="7.32197">
        <ele>559</ele>
        <time>2022-09-09T11:28:06Z</time>
      </trkpt>
      <trkpt lat="43.99015" lon="7.32135">
        <ele>565.2</ele>
        <time>2022-09-09T11:28:22Z</time>
      </trkpt>
      <trkpt lat="43.98997" lon="7.32098">
        <ele>558</ele>
        <time>2022-09-09T11:28:38Z</time>
      </trkpt>
      <trkpt lat="43.99006" lon="7.32092">
        <ele>566.7</ele>
        <time>2022-09-09T11:28:53Z</time>
      </trkpt>
      <trkpt lat="43.99059" lon="7.32077">
        <ele>558</ele>
        <time>2022-09-09T11:29:09Z</time>
      </trkpt>
      <trkpt lat="43.99116" lon="7.32039">
        <ele>560</ele>
        <time>2022-09-09T11:29:24Z</time>
      </trkpt>
      <trkpt lat="43.99175" lon="7.32004">
        <ele>563</ele>
        <time>2022-09-09T11:29:39Z</time>
      </trkpt>
      <trkpt lat="43.99173" lon="7.32006">
        <ele>571.8</ele>
        <time>2022-09-09T11:29:54Z</time>
      </trkpt>
      <trkpt lat="43.99168" lon="7.32022">
        <ele>573</ele>
        <time>2022-09-09T11:30:09Z</time>
      </trkpt>
      <trkpt lat="43.99169" lon="7.32024">
        <ele>572.8</ele>
        <time>2022-09-09T11:30:25Z</time>
      </trkpt>
      <trkpt lat="43.99169" lon="7.32024">
        <ele>572.4</ele>
        <time>2022-09-09T11:30:40Z</time>
      </trkpt>
      <trkpt lat="43.99169" lon="7.32024">
        <ele>572.7</ele>
        <time>2022-09-09T11:30:55Z</time>
      </trkpt>
      <trkpt lat="43.99169" lon="7.32024">
        <ele>570.1</ele>
        <time>2022-09-09T11:31:10Z</time>
      </trkpt>
      <trkpt lat="43.99169" lon="7.32024">
        <ele>572</ele>
        <time>2022-09-09T11:31:25Z</time>
      </trkpt>
      <trkpt lat="43.99169" lon="7.32024">
        <ele>570.6</ele>
        <time>2022-09-09T11:31:40Z</time>
      </trkpt>
      <trkpt lat="43.99169" lon="7.32024">
        <ele>569.4</ele>
        <time>2022-09-09T11:31:55Z</time>
      </trkpt>
      <trkpt lat="43.99169" lon="7.32024">
        <ele>567.1</ele>
        <time>2022-09-09T11:32:10Z</time>
      </trkpt>
      <trkpt lat="43.99169" lon="7.32024">
        <ele>567.9</ele>
        <time>2022-09-09T11:32:25Z</time>
      </trkpt>
      <trkpt lat="43.99169" lon="7.32024">
        <ele>566.9</ele>
        <time>2022-09-09T11:32:40Z</time>
      </trkpt>
      <trkpt lat="43.99169" lon="7.32024">
        <ele>566.4</ele>
        <time>2022-09-09T11:32:56Z</time>
      </trkpt>
      <trkpt lat="43.99169" lon="7.32024">
        <ele>566.5</ele>
        <time>2022-09-09T11:33:11Z</time>
      </trkpt>
      <trkpt lat="43.99169" lon="7.32024">
        <ele>565.1</ele>
        <time>2022-09-09T11:33:26Z</time>
      </trkpt>
      <trkpt lat="43.99169" lon="7.32024">
        <ele>565.6</ele>
        <time>2022-09-09T11:33:41Z</time>
      </trkpt>
      <trkpt lat="43.99169" lon="7.32024">
        <ele>566.5</ele>
        <time>2022-09-09T11:33:56Z</time>
      </trkpt>
      <trkpt lat="43.99169" lon="7.32024">
        <ele>565.8</ele>
        <time>2022-09-09T11:34:11Z</time>
      </trkpt>
      <trkpt lat="43.99169" lon="7.32024">
        <ele>565.1</ele>
        <time>2022-09-09T11:34:27Z</time>
      </trkpt>
      <trkpt lat="43.99169" lon="7.32024">
        <ele>565.2</ele>
        <time>2022-09-09T11:34:42Z</time>
      </trkpt>
      <trkpt lat="43.99169" lon="7.32024">
        <ele>565.5</ele>
        <time>2022-09-09T11:34:57Z</time>
      </trkpt>
      <trkpt lat="43.99169" lon="7.32024">
        <ele>565.1</ele>
        <time>2022-09-09T11:35:12Z</time>
      </trkpt>
      <trkpt lat="43.9917" lon="7.32024">
        <ele>565.1</ele>
        <time>2022-09-09T11:35:27Z</time>
      </trkpt>
      <trkpt lat="43.99171" lon="7.32025">
        <ele>565.6</ele>
        <time>2022-09-09T11:35:42Z</time>
      </trkpt>
      <trkpt lat="43.99171" lon="7.32025">
        <ele>565.5</ele>
        <time>2022-09-09T11:35:57Z</time>
      </trkpt>
      <trkpt lat="43.99172" lon="7.32025">
        <ele>565.7</ele>
        <time>2022-09-09T11:36:13Z</time>
      </trkpt>
      <trkpt lat="43.99172" lon="7.32024">
        <ele>565.3</ele>
        <time>2022-09-09T11:36:29Z</time>
      </trkpt>
      <trkpt lat="43.99171" lon="7.32024">
        <ele>565.6</ele>
        <time>2022-09-09T11:36:45Z</time>
      </trkpt>
      <trkpt lat="43.99171" lon="7.32026">
        <ele>564.8</ele>
        <time>2022-09-09T11:37:00Z</time>
      </trkpt>
      <trkpt lat="43.99171" lon="7.32026">
        <ele>564.9</ele>
        <time>2022-09-09T11:37:15Z</time>
      </trkpt>
      <trkpt lat="43.99171" lon="7.32026">
        <ele>564.7</ele>
        <time>2022-09-09T11:37:30Z</time>
      </trkpt>
      <trkpt lat="43.99171" lon="7.32026">
        <ele>564.8</ele>
        <time>2022-09-09T11:37:45Z</time>
      </trkpt>
      <trkpt lat="43.9917" lon="7.32027">
        <ele>564.7</ele>
        <time>2022-09-09T11:38:00Z</time>
      </trkpt>
      <trkpt lat="43.99168" lon="7.32027">
        <ele>564.5</ele>
        <time>2022-09-09T11:38:16Z</time>
      </trkpt>
      <trkpt lat="43.99169" lon="7.32026">
        <ele>564.9</ele>
        <time>2022-09-09T11:38:32Z</time>
      </trkpt>
      <trkpt lat="43.99166" lon="7.32025">
        <ele>564.3</ele>
        <time>2022-09-09T11:38:48Z</time>
      </trkpt>
      <trkpt lat="43.99161" lon="7.32025">
        <ele>564.1</ele>
        <time>2022-09-09T11:39:03Z</time>
      </trkpt>
      <trkpt lat="43.99159" lon="7.32022">
        <ele>563.8</ele>
        <time>2022-09-09T11:39:19Z</time>
      </trkpt>
      <trkpt lat="43.99159" lon="7.32022">
        <ele>564</ele>
        <time>2022-09-09T11:39:34Z</time>
      </trkpt>
      <trkpt lat="43.99162" lon="7.32023">
        <ele>564.1</ele>
        <time>2022-09-09T11:39:49Z</time>
      </trkpt>
      <trkpt lat="43.99162" lon="7.32025">
        <ele>563.9</ele>
        <time>2022-09-09T11:40:05Z</time>
      </trkpt>
      <trkpt lat="43.99159" lon="7.32027">
        <ele>563.7</ele>
        <time>2022-09-09T11:40:20Z</time>
      </trkpt>
      <trkpt lat="43.99157" lon="7.3202">
        <ele>563.1</ele>
        <time>2022-09-09T11:40:50Z</time>
      </trkpt>
      <trkpt lat="43.99161" lon="7.32023">
        <ele>563.3</ele>
        <time>2022-09-09T11:41:05Z</time>
      </trkpt>
      <trkpt lat="43.99158" lon="7.32011">
        <ele>563</ele>
        <time>2022-09-09T11:41:20Z</time>
      </trkpt>
      <trkpt lat="43.99158" lon="7.32009">
        <ele>563.2</ele>
        <time>2022-09-09T11:41:35Z</time>
      </trkpt>
      <trkpt lat="43.99156" lon="7.32004">
        <ele>562.9</ele>
        <time>2022-09-09T11:41:55Z</time>
      </trkpt>
      <trkpt lat="43.99157" lon="7.32012">
        <ele>563.1</ele>
        <time>2022-09-09T11:42:11Z</time>
      </trkpt>
      <trkpt lat="43.99157" lon="7.32011">
        <ele>563.3</ele>
        <time>2022-09-09T11:42:26Z</time>
      </trkpt>
      <trkpt lat="43.99156" lon="7.32011">
        <ele>563.2</ele>
        <time>2022-09-09T11:42:41Z</time>
      </trkpt>
      <trkpt lat="43.99155" lon="7.32005">
        <ele>563.3</ele>
        <time>2022-09-09T11:42:56Z</time>
      </trkpt>
      <trkpt lat="43.99158" lon="7.32015">
        <ele>563.6</ele>
        <time>2022-09-09T11:43:11Z</time>
      </trkpt>
      <trkpt lat="43.99159" lon="7.32018">
        <ele>563.9</ele>
        <time>2022-09-09T11:43:26Z</time>
      </trkpt>
      <trkpt lat="43.99158" lon="7.32018">
        <ele>563.9</ele>
        <time>2022-09-09T11:43:42Z</time>
      </trkpt>
      <trkpt lat="43.99158" lon="7.32017">
        <ele>563.7</ele>
        <time>2022-09-09T11:43:57Z</time>
      </trkpt>
      <trkpt lat="43.99158" lon="7.32017">
        <ele>563.7</ele>
        <time>2022-09-09T11:44:13Z</time>
      </trkpt>
      <trkpt lat="43.99159" lon="7.32019">
        <ele>563.7</ele>
        <time>2022-09-09T11:44:28Z</time>
      </trkpt>
      <trkpt lat="43.99159" lon="7.32019">
        <ele>563.8</ele>
        <time>2022-09-09T11:44:43Z</time>
      </trkpt>
      <trkpt lat="43.99159" lon="7.3202">
        <ele>563.7</ele>
        <time>2022-09-09T11:44:59Z</time>
      </trkpt>
      <trkpt lat="43.99159" lon="7.3202">
        <ele>563.9</ele>
        <time>2022-09-09T11:45:15Z</time>
      </trkpt>
      <trkpt lat="43.99159" lon="7.3202">
        <ele>563.6</ele>
        <time>2022-09-09T11:45:30Z</time>
      </trkpt>
      <trkpt lat="43.99159" lon="7.3202">
        <ele>564.1</ele>
        <time>2022-09-09T11:45:45Z</time>
      </trkpt>
      <trkpt lat="43.99159" lon="7.3202">
        <ele>563.6</ele>
        <time>2022-09-09T11:46:00Z</time>
      </trkpt>
      <trkpt lat="43.99159" lon="7.3202">
        <ele>563.5</ele>
        <time>2022-09-09T11:46:15Z</time>
      </trkpt>
      <trkpt lat="43.99159" lon="7.3202">
        <ele>563.6</ele>
        <time>2022-09-09T11:46:30Z</time>
      </trkpt>
      <trkpt lat="43.99159" lon="7.3202">
        <ele>563.8</ele>
        <time>2022-09-09T11:46:45Z</time>
      </trkpt>
      <trkpt lat="43.99159" lon="7.3202">
        <ele>563.5</ele>
        <time>2022-09-09T11:47:01Z</time>
      </trkpt>
      <trkpt lat="43.99159" lon="7.3202">
        <ele>563.4</ele>
        <time>2022-09-09T11:47:16Z</time>
      </trkpt>
      <trkpt lat="43.99159" lon="7.3202">
        <ele>563.6</ele>
        <time>2022-09-09T11:47:31Z</time>
      </trkpt>
      <trkpt lat="43.99159" lon="7.3202">
        <ele>563.1</ele>
        <time>2022-09-09T11:47:46Z</time>
      </trkpt>
      <trkpt lat="43.99159" lon="7.3202">
        <ele>563.7</ele>
        <time>2022-09-09T11:48:01Z</time>
      </trkpt>
      <trkpt lat="43.99159" lon="7.3202">
        <ele>563.7</ele>
        <time>2022-09-09T11:48:16Z</time>
      </trkpt>
      <trkpt lat="43.99159" lon="7.3202">
        <ele>563.6</ele>
        <time>2022-09-09T11:48:32Z</time>
      </trkpt>
      <trkpt lat="43.99159" lon="7.3202">
        <ele>563.7</ele>
        <time>2022-09-09T11:48:47Z</time>
      </trkpt>
      <trkpt lat="43.99159" lon="7.3202">
        <ele>563.8</ele>
        <time>2022-09-09T11:49:02Z</time>
      </trkpt>
      <trkpt lat="43.99159" lon="7.3202">
        <ele>564</ele>
        <time>2022-09-09T11:49:17Z</time>
      </trkpt>
      <trkpt lat="43.99159" lon="7.3202">
        <ele>564.3</ele>
        <time>2022-09-09T11:49:32Z</time>
      </trkpt>
      <trkpt lat="43.99159" lon="7.3202">
        <ele>563.7</ele>
        <time>2022-09-09T11:49:47Z</time>
      </trkpt>
      <trkpt lat="43.99159" lon="7.32021">
        <ele>563.9</ele>
        <time>2022-09-09T11:50:02Z</time>
      </trkpt>
      <trkpt lat="43.99159" lon="7.32021">
        <ele>563.7</ele>
        <time>2022-09-09T11:50:17Z</time>
      </trkpt>
      <trkpt lat="43.99159" lon="7.32021">
        <ele>563.4</ele>
        <time>2022-09-09T11:50:32Z</time>
      </trkpt>
      <trkpt lat="43.99159" lon="7.32021">
        <ele>563.4</ele>
        <time>2022-09-09T11:50:48Z</time>
      </trkpt>
      <trkpt lat="43.99159" lon="7.32021">
        <ele>564.5</ele>
        <time>2022-09-09T11:51:03Z</time>
      </trkpt>
      <trkpt lat="43.99159" lon="7.32021">
        <ele>563.7</ele>
        <time>2022-09-09T11:51:18Z</time>
      </trkpt>
      <trkpt lat="43.99159" lon="7.32021">
        <ele>563.9</ele>
        <time>2022-09-09T11:51:33Z</time>
      </trkpt>
      <trkpt lat="43.99159" lon="7.32021">
        <ele>569.3</ele>
        <time>2022-09-09T11:51:48Z</time>
      </trkpt>
      <trkpt lat="43.99159" lon="7.32021">
        <ele>569.9</ele>
        <time>2022-09-09T11:52:04Z</time>
      </trkpt>
      <trkpt lat="43.99159" lon="7.32021">
        <ele>569.8</ele>
        <time>2022-09-09T11:52:19Z</time>
      </trkpt>
      <trkpt lat="43.99159" lon="7.32021">
        <ele>569.8</ele>
        <time>2022-09-09T11:52:34Z</time>
      </trkpt>
      <trkpt lat="43.99159" lon="7.32021">
        <ele>569.4</ele>
        <time>2022-09-09T11:52:49Z</time>
      </trkpt>
      <trkpt lat="43.99159" lon="7.32021">
        <ele>569.8</ele>
        <time>2022-09-09T11:53:05Z</time>
      </trkpt>
      <trkpt lat="43.99159" lon="7.32021">
        <ele>570</ele>
        <time>2022-09-09T11:53:20Z</time>
      </trkpt>
      <trkpt lat="43.99159" lon="7.32021">
        <ele>570.1</ele>
        <time>2022-09-09T11:53:35Z</time>
      </trkpt>
      <trkpt lat="43.99159" lon="7.32021">
        <ele>570.5</ele>
        <time>2022-09-09T11:53:50Z</time>
      </trkpt>
      <trkpt lat="43.99159" lon="7.32021">
        <ele>570.7</ele>
        <time>2022-09-09T11:54:05Z</time>
      </trkpt>
      <trkpt lat="43.99159" lon="7.32021">
        <ele>570.7</ele>
        <time>2022-09-09T11:54:20Z</time>
      </trkpt>
      <trkpt lat="43.99159" lon="7.32021">
        <ele>570.7</ele>
        <time>2022-09-09T11:54:35Z</time>
      </trkpt>
      <trkpt lat="43.99159" lon="7.32021">
        <ele>570.7</ele>
        <time>2022-09-09T11:54:50Z</time>
      </trkpt>
      <trkpt lat="43.99159" lon="7.32021">
        <ele>570.9</ele>
        <time>2022-09-09T11:55:06Z</time>
      </trkpt>
      <trkpt lat="43.99159" lon="7.32021">
        <ele>570.9</ele>
        <time>2022-09-09T11:55:22Z</time>
      </trkpt>
      <trkpt lat="43.99159" lon="7.32021">
        <ele>571.2</ele>
        <time>2022-09-09T11:55:37Z</time>
      </trkpt>
      <trkpt lat="43.99159" lon="7.32021">
        <ele>571.1</ele>
        <time>2022-09-09T11:55:52Z</time>
      </trkpt>
      <trkpt lat="43.99159" lon="7.32021">
        <ele>571.1</ele>
        <time>2022-09-09T11:56:08Z</time>
      </trkpt>
      <trkpt lat="43.99159" lon="7.32021">
        <ele>570.5</ele>
        <time>2022-09-09T11:56:24Z</time>
      </trkpt>
      <trkpt lat="43.99159" lon="7.32021">
        <ele>570.7</ele>
        <time>2022-09-09T11:56:39Z</time>
      </trkpt>
      <trkpt lat="43.99159" lon="7.32021">
        <ele>570.5</ele>
        <time>2022-09-09T11:56:54Z</time>
      </trkpt>
      <trkpt lat="43.99159" lon="7.32021">
        <ele>570.7</ele>
        <time>2022-09-09T11:57:10Z</time>
      </trkpt>
      <trkpt lat="43.99159" lon="7.32021">
        <ele>570.8</ele>
        <time>2022-09-09T11:57:26Z</time>
      </trkpt>
      <trkpt lat="43.99159" lon="7.32021">
        <ele>570.9</ele>
        <time>2022-09-09T11:57:41Z</time>
      </trkpt>
      <trkpt lat="43.99159" lon="7.32021">
        <ele>570.6</ele>
        <time>2022-09-09T11:57:56Z</time>
      </trkpt>
      <trkpt lat="43.99159" lon="7.32021">
        <ele>570.5</ele>
        <time>2022-09-09T11:58:12Z</time>
      </trkpt>
      <trkpt lat="43.99159" lon="7.32021">
        <ele>570.6</ele>
        <time>2022-09-09T11:58:27Z</time>
      </trkpt>
      <trkpt lat="43.99159" lon="7.32021">
        <ele>570.3</ele>
        <time>2022-09-09T11:58:42Z</time>
      </trkpt>
      <trkpt lat="43.99159" lon="7.32021">
        <ele>570.7</ele>
        <time>2022-09-09T11:58:58Z</time>
      </trkpt>
      <trkpt lat="43.99159" lon="7.32021">
        <ele>570.5</ele>
        <time>2022-09-09T11:59:13Z</time>
      </trkpt>
      <trkpt lat="43.99159" lon="7.32021">
        <ele>570.9</ele>
        <time>2022-09-09T11:59:28Z</time>
      </trkpt>
      <trkpt lat="43.99159" lon="7.32021">
        <ele>570.5</ele>
        <time>2022-09-09T11:59:43Z</time>
      </trkpt>
      <trkpt lat="43.99159" lon="7.32021">
        <ele>570.9</ele>
        <time>2022-09-09T11:59:59Z</time>
      </trkpt>
      <trkpt lat="43.99159" lon="7.32021">
        <ele>570.8</ele>
        <time>2022-09-09T12:00:14Z</time>
      </trkpt>
      <trkpt lat="43.9916" lon="7.32021">
        <ele>570.9</ele>
        <time>2022-09-09T12:00:30Z</time>
      </trkpt>
      <trkpt lat="43.9916" lon="7.32022">
        <ele>570.4</ele>
        <time>2022-09-09T12:00:45Z</time>
      </trkpt>
      <trkpt lat="43.9916" lon="7.32023">
        <ele>571</ele>
        <time>2022-09-09T12:01:00Z</time>
      </trkpt>
      <trkpt lat="43.9916" lon="7.32022">
        <ele>570.7</ele>
        <time>2022-09-09T12:01:16Z</time>
      </trkpt>
      <trkpt lat="43.99162" lon="7.32023">
        <ele>570.2</ele>
        <time>2022-09-09T12:01:31Z</time>
      </trkpt>
      <trkpt lat="43.99162" lon="7.32021">
        <ele>570.7</ele>
        <time>2022-09-09T12:01:47Z</time>
      </trkpt>
      <trkpt lat="43.99166" lon="7.32023">
        <ele>571</ele>
        <time>2022-09-09T12:02:02Z</time>
      </trkpt>
      <trkpt lat="43.9917" lon="7.32028">
        <ele>571.2</ele>
        <time>2022-09-09T12:02:18Z</time>
      </trkpt>
      <trkpt lat="43.99171" lon="7.32028">
        <ele>570.7</ele>
        <time>2022-09-09T12:02:33Z</time>
      </trkpt>
      <trkpt lat="43.99171" lon="7.32031">
        <ele>571.1</ele>
        <time>2022-09-09T12:02:49Z</time>
      </trkpt>
      <trkpt lat="43.9917" lon="7.32032">
        <ele>570.8</ele>
        <time>2022-09-09T12:03:04Z</time>
      </trkpt>
      <trkpt lat="43.99167" lon="7.3202">
        <ele>571</ele>
        <time>2022-09-09T12:03:19Z</time>
      </trkpt>
      <trkpt lat="43.99168" lon="7.32027">
        <ele>570.6</ele>
        <time>2022-09-09T12:03:34Z</time>
      </trkpt>
      <trkpt lat="43.99166" lon="7.32026">
        <ele>571.2</ele>
        <time>2022-09-09T12:03:49Z</time>
      </trkpt>
      <trkpt lat="43.99166" lon="7.32026">
        <ele>571</ele>
        <time>2022-09-09T12:04:05Z</time>
      </trkpt>
      <trkpt lat="43.99167" lon="7.32026">
        <ele>570.9</ele>
        <time>2022-09-09T12:04:20Z</time>
      </trkpt>
      <trkpt lat="43.99168" lon="7.32025">
        <ele>571</ele>
        <time>2022-09-09T12:04:35Z</time>
      </trkpt>
      <trkpt lat="43.99169" lon="7.32023">
        <ele>571.2</ele>
        <time>2022-09-09T12:04:50Z</time>
      </trkpt>
      <trkpt lat="43.99171" lon="7.32029">
        <ele>570.8</ele>
        <time>2022-09-09T12:05:05Z</time>
      </trkpt>
      <trkpt lat="43.99172" lon="7.32028">
        <ele>570.5</ele>
        <time>2022-09-09T12:05:21Z</time>
      </trkpt>
      <trkpt lat="43.99172" lon="7.32024">
        <ele>570.9</ele>
        <time>2022-09-09T12:05:36Z</time>
      </trkpt>
      <trkpt lat="43.99197" lon="7.31998">
        <ele>562</ele>
        <time>2022-09-09T12:05:51Z</time>
      </trkpt>
      <trkpt lat="43.99238" lon="7.3197">
        <ele>561</ele>
        <time>2022-09-09T12:06:06Z</time>
      </trkpt>
      <trkpt lat="43.99292" lon="7.31943">
        <ele>562</ele>
        <time>2022-09-09T12:06:22Z</time>
      </trkpt>
      <trkpt lat="43.99343" lon="7.31912">
        <ele>564</ele>
        <time>2022-09-09T12:06:37Z</time>
      </trkpt>
      <trkpt lat="43.99398" lon="7.31881">
        <ele>565</ele>
        <time>2022-09-09T12:06:53Z</time>
      </trkpt>
      <trkpt lat="43.9946" lon="7.31871">
        <ele>565</ele>
        <time>2022-09-09T12:07:08Z</time>
      </trkpt>
      <trkpt lat="43.99491" lon="7.31867">
        <ele>577.8</ele>
        <time>2022-09-09T12:07:24Z</time>
      </trkpt>
      <trkpt lat="43.99528" lon="7.31853">
        <ele>567</ele>
        <time>2022-09-09T12:07:39Z</time>
      </trkpt>
      <trkpt lat="43.99583" lon="7.31835">
        <ele>578.1</ele>
        <time>2022-09-09T12:07:54Z</time>
      </trkpt>
      <trkpt lat="43.99641" lon="7.3181">
        <ele>570</ele>
        <time>2022-09-09T12:08:10Z</time>
      </trkpt>
      <trkpt lat="43.9969" lon="7.31757">
        <ele>571</ele>
        <time>2022-09-09T12:08:25Z</time>
      </trkpt>
      <trkpt lat="43.99749" lon="7.31718">
        <ele>572</ele>
        <time>2022-09-09T12:08:41Z</time>
      </trkpt>
      <trkpt lat="43.99809" lon="7.31693">
        <ele>573</ele>
        <time>2022-09-09T12:08:56Z</time>
      </trkpt>
      <trkpt lat="43.99858" lon="7.31616">
        <ele>575</ele>
        <time>2022-09-09T12:09:12Z</time>
      </trkpt>
      <trkpt lat="43.99887" lon="7.31535">
        <ele>574</ele>
        <time>2022-09-09T12:09:27Z</time>
      </trkpt>
      <trkpt lat="43.99913" lon="7.31449">
        <ele>575</ele>
        <time>2022-09-09T12:09:42Z</time>
      </trkpt>
      <trkpt lat="43.99941" lon="7.3136">
        <ele>578</ele>
        <time>2022-09-09T12:09:58Z</time>
      </trkpt>
      <trkpt lat="43.99966" lon="7.31272">
        <ele>579</ele>
        <time>2022-09-09T12:10:13Z</time>
      </trkpt>
      <trkpt lat="44.00005" lon="7.31186">
        <ele>580</ele>
        <time>2022-09-09T12:10:29Z</time>
      </trkpt>
      <trkpt lat="44.00057" lon="7.31126">
        <ele>583</ele>
        <time>2022-09-09T12:10:44Z</time>
      </trkpt>
      <trkpt lat="44.00127" lon="7.31115">
        <ele>587</ele>
        <time>2022-09-09T12:10:59Z</time>
      </trkpt>
      <trkpt lat="44.00182" lon="7.31138">
        <ele>587</ele>
        <time>2022-09-09T12:11:15Z</time>
      </trkpt>
      <trkpt lat="44.00223" lon="7.31212">
        <ele>600.5</ele>
        <time>2022-09-09T12:11:30Z</time>
      </trkpt>
      <trkpt lat="44.00297" lon="7.31161">
        <ele>585</ele>
        <time>2022-09-09T12:11:46Z</time>
      </trkpt>
      <trkpt lat="44.00368" lon="7.3111">
        <ele>587</ele>
        <time>2022-09-09T12:12:02Z</time>
      </trkpt>
      <trkpt lat="44.00433" lon="7.31125">
        <ele>605.4</ele>
        <time>2022-09-09T12:12:17Z</time>
      </trkpt>
      <trkpt lat="44.00489" lon="7.31173">
        <ele>590</ele>
        <time>2022-09-09T12:12:32Z</time>
      </trkpt>
      <trkpt lat="44.00559" lon="7.31209">
        <ele>591</ele>
        <time>2022-09-09T12:12:48Z</time>
      </trkpt>
      <trkpt lat="44.00629" lon="7.31235">
        <ele>592</ele>
        <time>2022-09-09T12:13:04Z</time>
      </trkpt>
      <trkpt lat="44.00701" lon="7.31237">
        <ele>591</ele>
        <time>2022-09-09T12:13:20Z</time>
      </trkpt>
      <trkpt lat="44.00765" lon="7.31225">
        <ele>598</ele>
        <time>2022-09-09T12:13:35Z</time>
      </trkpt>
      <trkpt lat="44.0083" lon="7.31238">
        <ele>600</ele>
        <time>2022-09-09T12:13:50Z</time>
      </trkpt>
      <trkpt lat="44.00898" lon="7.31251">
        <ele>604</ele>
        <time>2022-09-09T12:14:06Z</time>
      </trkpt>
      <trkpt lat="44.0097" lon="7.31261">
        <ele>608</ele>
        <time>2022-09-09T12:14:21Z</time>
      </trkpt>
      <trkpt lat="44.01033" lon="7.31271">
        <ele>609</ele>
        <time>2022-09-09T12:14:37Z</time>
      </trkpt>
      <trkpt lat="44.01086" lon="7.313">
        <ele>610</ele>
        <time>2022-09-09T12:14:52Z</time>
      </trkpt>
      <trkpt lat="44.01144" lon="7.31318">
        <ele>613</ele>
        <time>2022-09-09T12:15:07Z</time>
      </trkpt>
      <trkpt lat="44.01199" lon="7.31342">
        <ele>616</ele>
        <time>2022-09-09T12:15:22Z</time>
      </trkpt>
      <trkpt lat="44.01254" lon="7.31367">
        <ele>615</ele>
        <time>2022-09-09T12:15:37Z</time>
      </trkpt>
      <trkpt lat="44.01314" lon="7.31382">
        <ele>614</ele>
        <time>2022-09-09T12:15:53Z</time>
      </trkpt>
      <trkpt lat="44.01371" lon="7.31385">
        <ele>616</ele>
        <time>2022-09-09T12:16:08Z</time>
      </trkpt>
      <trkpt lat="44.0143" lon="7.31378">
        <ele>636.7</ele>
        <time>2022-09-09T12:16:23Z</time>
      </trkpt>
      <trkpt lat="44.01488" lon="7.31342">
        <ele>623</ele>
        <time>2022-09-09T12:16:38Z</time>
      </trkpt>
      <trkpt lat="44.01544" lon="7.31312">
        <ele>628</ele>
        <time>2022-09-09T12:16:54Z</time>
      </trkpt>
      <trkpt lat="44.01605" lon="7.31305">
        <ele>632</ele>
        <time>2022-09-09T12:17:10Z</time>
      </trkpt>
      <trkpt lat="44.01663" lon="7.31312">
        <ele>633</ele>
        <time>2022-09-09T12:17:25Z</time>
      </trkpt>
      <trkpt lat="44.01722" lon="7.31301">
        <ele>634</ele>
        <time>2022-09-09T12:17:41Z</time>
      </trkpt>
      <trkpt lat="44.01773" lon="7.3126">
        <ele>639</ele>
        <time>2022-09-09T12:17:56Z</time>
      </trkpt>
      <trkpt lat="44.01824" lon="7.31201">
        <ele>652.5</ele>
        <time>2022-09-09T12:18:12Z</time>
      </trkpt>
      <trkpt lat="44.01891" lon="7.31125">
        <ele>641</ele>
        <time>2022-09-09T12:18:28Z</time>
      </trkpt>
      <trkpt lat="44.01939" lon="7.31101">
        <ele>655.1</ele>
        <time>2022-09-09T12:18:43Z</time>
      </trkpt>
      <trkpt lat="44.01988" lon="7.31105">
        <ele>642</ele>
        <time>2022-09-09T12:18:59Z</time>
      </trkpt>
      <trkpt lat="44.02037" lon="7.31103">
        <ele>642</ele>
        <time>2022-09-09T12:19:15Z</time>
      </trkpt>
      <trkpt lat="44.02086" lon="7.31089">
        <ele>644</ele>
        <time>2022-09-09T12:19:31Z</time>
      </trkpt>
      <trkpt lat="44.02135" lon="7.31078">
        <ele>650</ele>
        <time>2022-09-09T12:19:47Z</time>
      </trkpt>
      <trkpt lat="44.02186" lon="7.31067">
        <ele>651</ele>
        <time>2022-09-09T12:20:03Z</time>
      </trkpt>
      <trkpt lat="44.02234" lon="7.31057">
        <ele>654</ele>
        <time>2022-09-09T12:20:18Z</time>
      </trkpt>
      <trkpt lat="44.02284" lon="7.3104">
        <ele>673.1</ele>
        <time>2022-09-09T12:20:34Z</time>
      </trkpt>
      <trkpt lat="44.02322" lon="7.31">
        <ele>662</ele>
        <time>2022-09-09T12:20:49Z</time>
      </trkpt>
      <trkpt lat="44.02368" lon="7.3099">
        <ele>667</ele>
        <time>2022-09-09T12:21:04Z</time>
      </trkpt>
      <trkpt lat="44.02409" lon="7.3102">
        <ele>669</ele>
        <time>2022-09-09T12:21:19Z</time>
      </trkpt>
      <trkpt lat="44.0246" lon="7.3101">
        <ele>670</ele>
        <time>2022-09-09T12:21:35Z</time>
      </trkpt>
      <trkpt lat="44.02507" lon="7.31001">
        <ele>672</ele>
        <time>2022-09-09T12:21:50Z</time>
      </trkpt>
      <trkpt lat="44.0255" lon="7.31008">
        <ele>673</ele>
        <time>2022-09-09T12:22:05Z</time>
      </trkpt>
      <trkpt lat="44.026" lon="7.31018">
        <ele>688</ele>
        <time>2022-09-09T12:22:21Z</time>
      </trkpt>
      <trkpt lat="44.02643" lon="7.30983">
        <ele>679</ele>
        <time>2022-09-09T12:22:36Z</time>
      </trkpt>
      <trkpt lat="44.02684" lon="7.3099">
        <ele>682</ele>
        <time>2022-09-09T12:22:51Z</time>
      </trkpt>
      <trkpt lat="44.02736" lon="7.30991">
        <ele>685</ele>
        <time>2022-09-09T12:23:07Z</time>
      </trkpt>
      <trkpt lat="44.02781" lon="7.30979">
        <ele>687</ele>
        <time>2022-09-09T12:23:22Z</time>
      </trkpt>
      <trkpt lat="44.02828" lon="7.30969">
        <ele>690</ele>
        <time>2022-09-09T12:23:37Z</time>
      </trkpt>
      <trkpt lat="44.02871" lon="7.30946">
        <ele>696</ele>
        <time>2022-09-09T12:23:53Z</time>
      </trkpt>
      <trkpt lat="44.02907" lon="7.30918">
        <ele>698</ele>
        <time>2022-09-09T12:24:08Z</time>
      </trkpt>
      <trkpt lat="44.02949" lon="7.30883">
        <ele>699</ele>
        <time>2022-09-09T12:24:23Z</time>
      </trkpt>
      <trkpt lat="44.02986" lon="7.30849">
        <ele>702</ele>
        <time>2022-09-09T12:24:39Z</time>
      </trkpt>
      <trkpt lat="44.03021" lon="7.30814">
        <ele>703</ele>
        <time>2022-09-09T12:24:54Z</time>
      </trkpt>
      <trkpt lat="44.03055" lon="7.30772">
        <ele>702</ele>
        <time>2022-09-09T12:25:10Z</time>
      </trkpt>
      <trkpt lat="44.03088" lon="7.30725">
        <ele>708.2</ele>
        <time>2022-09-09T12:25:25Z</time>
      </trkpt>
      <trkpt lat="44.03113" lon="7.30677">
        <ele>705</ele>
        <time>2022-09-09T12:25:40Z</time>
      </trkpt>
      <trkpt lat="44.03119" lon="7.30614">
        <ele>715</ele>
        <time>2022-09-09T12:25:56Z</time>
      </trkpt>
      <trkpt lat="44.03153" lon="7.30584">
        <ele>714</ele>
        <time>2022-09-09T12:26:11Z</time>
      </trkpt>
      <trkpt lat="44.03184" lon="7.30533">
        <ele>711</ele>
        <time>2022-09-09T12:26:26Z</time>
      </trkpt>
      <trkpt lat="44.03206" lon="7.30472">
        <ele>723.7</ele>
        <time>2022-09-09T12:26:41Z</time>
      </trkpt>
      <trkpt lat="44.03241" lon="7.30433">
        <ele>722</ele>
        <time>2022-09-09T12:26:57Z</time>
      </trkpt>
      <trkpt lat="44.03283" lon="7.30403">
        <ele>725</ele>
        <time>2022-09-09T12:27:12Z</time>
      </trkpt>
      <trkpt lat="44.03322" lon="7.30368">
        <ele>728</ele>
        <time>2022-09-09T12:27:28Z</time>
      </trkpt>
      <trkpt lat="44.03358" lon="7.30324">
        <ele>730</ele>
        <time>2022-09-09T12:27:43Z</time>
      </trkpt>
      <trkpt lat="44.03375" lon="7.30252">
        <ele>735</ele>
        <time>2022-09-09T12:27:58Z</time>
      </trkpt>
      <trkpt lat="44.03348" lon="7.30163">
        <ele>734</ele>
        <time>2022-09-09T12:28:14Z</time>
      </trkpt>
      <trkpt lat="44.03295" lon="7.30124">
        <ele>740</ele>
        <time>2022-09-09T12:28:29Z</time>
      </trkpt>
      <trkpt lat="44.0332" lon="7.30033">
        <ele>741</ele>
        <time>2022-09-09T12:28:44Z</time>
      </trkpt>
      <trkpt lat="44.03331" lon="7.29951">
        <ele>743</ele>
        <time>2022-09-09T12:29:00Z</time>
      </trkpt>
      <trkpt lat="44.03339" lon="7.29866">
        <ele>746</ele>
        <time>2022-09-09T12:29:15Z</time>
      </trkpt>
      <trkpt lat="44.03351" lon="7.29788">
        <ele>749</ele>
        <time>2022-09-09T12:29:30Z</time>
      </trkpt>
      <trkpt lat="44.03375" lon="7.29706">
        <ele>751</ele>
        <time>2022-09-09T12:29:45Z</time>
      </trkpt>
      <trkpt lat="44.03413" lon="7.29648">
        <ele>749</ele>
        <time>2022-09-09T12:30:01Z</time>
      </trkpt>
      <trkpt lat="44.03456" lon="7.29604">
        <ele>749</ele>
        <time>2022-09-09T12:30:17Z</time>
      </trkpt>
      <trkpt lat="44.0349" lon="7.2956">
        <ele>750</ele>
        <time>2022-09-09T12:30:32Z</time>
      </trkpt>
      <trkpt lat="44.03516" lon="7.29507">
        <ele>752</ele>
        <time>2022-09-09T12:30:47Z</time>
      </trkpt>
      <trkpt lat="44.03557" lon="7.29473">
        <ele>755</ele>
        <time>2022-09-09T12:31:02Z</time>
      </trkpt>
      <trkpt lat="44.03588" lon="7.29414">
        <ele>760</ele>
        <time>2022-09-09T12:31:18Z</time>
      </trkpt>
      <trkpt lat="44.03613" lon="7.29355">
        <ele>764.2</ele>
        <time>2022-09-09T12:31:33Z</time>
      </trkpt>
      <trkpt lat="44.03641" lon="7.29303">
        <ele>767</ele>
        <time>2022-09-09T12:31:48Z</time>
      </trkpt>
      <trkpt lat="44.03683" lon="7.29264">
        <ele>772</ele>
        <time>2022-09-09T12:32:04Z</time>
      </trkpt>
      <trkpt lat="44.03724" lon="7.29218">
        <ele>775</ele>
        <time>2022-09-09T12:32:20Z</time>
      </trkpt>
      <trkpt lat="44.03767" lon="7.29199">
        <ele>778</ele>
        <time>2022-09-09T12:32:35Z</time>
      </trkpt>
      <trkpt lat="44.03809" lon="7.29174">
        <ele>781</ele>
        <time>2022-09-09T12:32:51Z</time>
      </trkpt>
      <trkpt lat="44.03846" lon="7.29137">
        <ele>783</ele>
        <time>2022-09-09T12:33:06Z</time>
      </trkpt>
      <trkpt lat="44.03888" lon="7.2912">
        <ele>780.7</ele>
        <time>2022-09-09T12:33:21Z</time>
      </trkpt>
      <trkpt lat="44.03931" lon="7.29088">
        <ele>789</ele>
        <time>2022-09-09T12:33:36Z</time>
      </trkpt>
      <trkpt lat="44.03971" lon="7.29067">
        <ele>791</ele>
        <time>2022-09-09T12:33:52Z</time>
      </trkpt>
      <trkpt lat="44.04005" lon="7.29027">
        <ele>792</ele>
        <time>2022-09-09T12:34:07Z</time>
      </trkpt>
      <trkpt lat="44.0403" lon="7.28976">
        <ele>794</ele>
        <time>2022-09-09T12:34:22Z</time>
      </trkpt>
      <trkpt lat="44.04067" lon="7.28932">
        <ele>799</ele>
        <time>2022-09-09T12:34:38Z</time>
      </trkpt>
      <trkpt lat="44.04109" lon="7.2891">
        <ele>805</ele>
        <time>2022-09-09T12:34:53Z</time>
      </trkpt>
      <trkpt lat="44.0415" lon="7.28887">
        <ele>808</ele>
        <time>2022-09-09T12:35:08Z</time>
      </trkpt>
      <trkpt lat="44.0419" lon="7.28863">
        <ele>811</ele>
        <time>2022-09-09T12:35:23Z</time>
      </trkpt>
      <trkpt lat="44.04232" lon="7.28874">
        <ele>812</ele>
        <time>2022-09-09T12:35:39Z</time>
      </trkpt>
      <trkpt lat="44.04271" lon="7.28872">
        <ele>814</ele>
        <time>2022-09-09T12:35:54Z</time>
      </trkpt>
      <trkpt lat="44.0428" lon="7.28821">
        <ele>816</ele>
        <time>2022-09-09T12:36:10Z</time>
      </trkpt>
      <trkpt lat="44.04276" lon="7.2876">
        <ele>820</ele>
        <time>2022-09-09T12:36:26Z</time>
      </trkpt>
      <trkpt lat="44.04297" lon="7.28701">
        <ele>822</ele>
        <time>2022-09-09T12:36:41Z</time>
      </trkpt>
      <trkpt lat="44.04298" lon="7.28644">
        <ele>816.6</ele>
        <time>2022-09-09T12:36:56Z</time>
      </trkpt>
      <trkpt lat="44.04327" lon="7.286">
        <ele>827</ele>
        <time>2022-09-09T12:37:11Z</time>
      </trkpt>
      <trkpt lat="44.04339" lon="7.28539">
        <ele>833</ele>
        <time>2022-09-09T12:37:27Z</time>
      </trkpt>
      <trkpt lat="44.04322" lon="7.28481">
        <ele>835</ele>
        <time>2022-09-09T12:37:42Z</time>
      </trkpt>
      <trkpt lat="44.0435" lon="7.28421">
        <ele>838</ele>
        <time>2022-09-09T12:37:57Z</time>
      </trkpt>
      <trkpt lat="44.04369" lon="7.28351">
        <ele>838</ele>
        <time>2022-09-09T12:38:13Z</time>
      </trkpt>
      <trkpt lat="44.04391" lon="7.28275">
        <ele>841</ele>
        <time>2022-09-09T12:38:28Z</time>
      </trkpt>
      <trkpt lat="44.04383" lon="7.28174">
        <ele>841</ele>
        <time>2022-09-09T12:38:44Z</time>
      </trkpt>
      <trkpt lat="44.04397" lon="7.28085">
        <ele>843</ele>
        <time>2022-09-09T12:38:59Z</time>
      </trkpt>
      <trkpt lat="44.04426" lon="7.28006">
        <ele>844</ele>
        <time>2022-09-09T12:39:15Z</time>
      </trkpt>
      <trkpt lat="44.0448" lon="7.27954">
        <ele>846</ele>
        <time>2022-09-09T12:39:30Z</time>
      </trkpt>
      <trkpt lat="44.04493" lon="7.27842">
        <ele>848</ele>
        <time>2022-09-09T12:39:46Z</time>
      </trkpt>
      <trkpt lat="44.04513" lon="7.2777">
        <ele>846.6</ele>
        <time>2022-09-09T12:40:01Z</time>
      </trkpt>
      <trkpt lat="44.04543" lon="7.27717">
        <ele>849</ele>
        <time>2022-09-09T12:40:16Z</time>
      </trkpt>
      <trkpt lat="44.04574" lon="7.27668">
        <ele>851</ele>
        <time>2022-09-09T12:40:31Z</time>
      </trkpt>
      <trkpt lat="44.04603" lon="7.27622">
        <ele>854</ele>
        <time>2022-09-09T12:40:47Z</time>
      </trkpt>
      <trkpt lat="44.04642" lon="7.27591">
        <ele>857</ele>
        <time>2022-09-09T12:41:02Z</time>
      </trkpt>
      <trkpt lat="44.04678" lon="7.27559">
        <ele>860</ele>
        <time>2022-09-09T12:41:17Z</time>
      </trkpt>
      <trkpt lat="44.04703" lon="7.27513">
        <ele>865</ele>
        <time>2022-09-09T12:41:32Z</time>
      </trkpt>
      <trkpt lat="44.0473" lon="7.27455">
        <ele>867</ele>
        <time>2022-09-09T12:41:48Z</time>
      </trkpt>
      <trkpt lat="44.04764" lon="7.27421">
        <ele>870</ele>
        <time>2022-09-09T12:42:03Z</time>
      </trkpt>
      <trkpt lat="44.04801" lon="7.27446">
        <ele>867.6</ele>
        <time>2022-09-09T12:42:18Z</time>
      </trkpt>
      <trkpt lat="44.04839" lon="7.2746">
        <ele>877</ele>
        <time>2022-09-09T12:42:34Z</time>
      </trkpt>
      <trkpt lat="44.04875" lon="7.27498">
        <ele>880</ele>
        <time>2022-09-09T12:42:49Z</time>
      </trkpt>
      <trkpt lat="44.04918" lon="7.27517">
        <ele>884</ele>
        <time>2022-09-09T12:43:04Z</time>
      </trkpt>
      <trkpt lat="44.04941" lon="7.27476">
        <ele>886</ele>
        <time>2022-09-09T12:43:20Z</time>
      </trkpt>
      <trkpt lat="44.04913" lon="7.27428">
        <ele>890</ele>
        <time>2022-09-09T12:43:35Z</time>
      </trkpt>
      <trkpt lat="44.04918" lon="7.27374">
        <ele>891</ele>
        <time>2022-09-09T12:43:50Z</time>
      </trkpt>
      <trkpt lat="44.04957" lon="7.27333">
        <ele>889.6</ele>
        <time>2022-09-09T12:44:06Z</time>
      </trkpt>
      <trkpt lat="44.04999" lon="7.27307">
        <ele>897</ele>
        <time>2022-09-09T12:44:21Z</time>
      </trkpt>
      <trkpt lat="44.05041" lon="7.27276">
        <ele>900</ele>
        <time>2022-09-09T12:44:37Z</time>
      </trkpt>
      <trkpt lat="44.0508" lon="7.27234">
        <ele>902</ele>
        <time>2022-09-09T12:44:53Z</time>
      </trkpt>
      <trkpt lat="44.05115" lon="7.27187">
        <ele>905</ele>
        <time>2022-09-09T12:45:08Z</time>
      </trkpt>
      <trkpt lat="44.05146" lon="7.27129">
        <ele>909</ele>
        <time>2022-09-09T12:45:24Z</time>
      </trkpt>
      <trkpt lat="44.05182" lon="7.2708">
        <ele>912</ele>
        <time>2022-09-09T12:45:39Z</time>
      </trkpt>
      <trkpt lat="44.0522" lon="7.27036">
        <ele>916</ele>
        <time>2022-09-09T12:45:54Z</time>
      </trkpt>
      <trkpt lat="44.05248" lon="7.26973">
        <ele>918</ele>
        <time>2022-09-09T12:46:10Z</time>
      </trkpt>
      <trkpt lat="44.05269" lon="7.26896">
        <ele>909.8</ele>
        <time>2022-09-09T12:46:26Z</time>
      </trkpt>
      <trkpt lat="44.05285" lon="7.26821">
        <ele>922</ele>
        <time>2022-09-09T12:46:41Z</time>
      </trkpt>
      <trkpt lat="44.05302" lon="7.26749">
        <ele>924</ele>
        <time>2022-09-09T12:46:56Z</time>
      </trkpt>
      <trkpt lat="44.05318" lon="7.26672">
        <ele>926</ele>
        <time>2022-09-09T12:47:11Z</time>
      </trkpt>
      <trkpt lat="44.05356" lon="7.26618">
        <ele>926</ele>
        <time>2022-09-09T12:47:27Z</time>
      </trkpt>
      <trkpt lat="44.05402" lon="7.26575">
        <ele>928</ele>
        <time>2022-09-09T12:47:42Z</time>
      </trkpt>
      <trkpt lat="44.05447" lon="7.2655">
        <ele>930</ele>
        <time>2022-09-09T12:47:57Z</time>
      </trkpt>
      <trkpt lat="44.05493" lon="7.26523">
        <ele>933</ele>
        <time>2022-09-09T12:48:13Z</time>
      </trkpt>
      <trkpt lat="44.05539" lon="7.26487">
        <ele>936</ele>
        <time>2022-09-09T12:48:28Z</time>
      </trkpt>
      <trkpt lat="44.05577" lon="7.26435">
        <ele>938</ele>
        <time>2022-09-09T12:48:44Z</time>
      </trkpt>
      <trkpt lat="44.05614" lon="7.26387">
        <ele>942</ele>
        <time>2022-09-09T12:48:59Z</time>
      </trkpt>
      <trkpt lat="44.05653" lon="7.26344">
        <ele>945</ele>
        <time>2022-09-09T12:49:14Z</time>
      </trkpt>
      <trkpt lat="44.05693" lon="7.26305">
        <ele>948</ele>
        <time>2022-09-09T12:49:29Z</time>
      </trkpt>
      <trkpt lat="44.05738" lon="7.26277">
        <ele>951</ele>
        <time>2022-09-09T12:49:44Z</time>
      </trkpt>
      <trkpt lat="44.05788" lon="7.26255">
        <ele>955</ele>
        <time>2022-09-09T12:49:59Z</time>
      </trkpt>
      <trkpt lat="44.05837" lon="7.26213">
        <ele>956</ele>
        <time>2022-09-09T12:50:15Z</time>
      </trkpt>
      <trkpt lat="44.05882" lon="7.26165">
        <ele>957</ele>
        <time>2022-09-09T12:50:30Z</time>
      </trkpt>
      <trkpt lat="44.05923" lon="7.26116">
        <ele>948.6</ele>
        <time>2022-09-09T12:50:45Z</time>
      </trkpt>
      <trkpt lat="44.05961" lon="7.26052">
        <ele>960</ele>
        <time>2022-09-09T12:51:01Z</time>
      </trkpt>
      <trkpt lat="44.05993" lon="7.25992">
        <ele>963</ele>
        <time>2022-09-09T12:51:16Z</time>
      </trkpt>
      <trkpt lat="44.06039" lon="7.25957">
        <ele>965</ele>
        <time>2022-09-09T12:51:31Z</time>
      </trkpt>
      <trkpt lat="44.06058" lon="7.26011">
        <ele>967</ele>
        <time>2022-09-09T12:51:47Z</time>
      </trkpt>
      <trkpt lat="44.06058" lon="7.26008">
        <ele>962.1</ele>
        <time>2022-09-09T12:52:02Z</time>
      </trkpt>
      <trkpt lat="44.06059" lon="7.2601">
        <ele>962.4</ele>
        <time>2022-09-09T12:52:17Z</time>
      </trkpt>
      <trkpt lat="44.06054" lon="7.26012">
        <ele>962.1</ele>
        <time>2022-09-09T12:52:33Z</time>
      </trkpt>
      <trkpt lat="44.06068" lon="7.25932">
        <ele>968</ele>
        <time>2022-09-09T12:52:48Z</time>
      </trkpt>
      <trkpt lat="44.06119" lon="7.25879">
        <ele>962.5</ele>
        <time>2022-09-09T12:53:03Z</time>
      </trkpt>
      <trkpt lat="44.06177" lon="7.25829">
        <ele>970</ele>
        <time>2022-09-09T12:53:19Z</time>
      </trkpt>
      <trkpt lat="44.06228" lon="7.25774">
        <ele>973</ele>
        <time>2022-09-09T12:53:34Z</time>
      </trkpt>
      <trkpt lat="44.06294" lon="7.25769">
        <ele>976</ele>
        <time>2022-09-09T12:53:49Z</time>
      </trkpt>
      <trkpt lat="44.06365" lon="7.25763">
        <ele>980</ele>
        <time>2022-09-09T12:54:05Z</time>
      </trkpt>
      <trkpt lat="44.06428" lon="7.25751">
        <ele>971.1</ele>
        <time>2022-09-09T12:54:20Z</time>
      </trkpt>
      <trkpt lat="44.06497" lon="7.25729">
        <ele>977</ele>
        <time>2022-09-09T12:54:35Z</time>
      </trkpt>
      <trkpt lat="44.06581" lon="7.25726">
        <ele>979</ele>
        <time>2022-09-09T12:54:51Z</time>
      </trkpt>
      <trkpt lat="44.06656" lon="7.25736">
        <ele>982</ele>
        <time>2022-09-09T12:55:06Z</time>
      </trkpt>
      <trkpt lat="44.06692" lon="7.25734">
        <ele>974.5</ele>
        <time>2022-09-09T12:55:21Z</time>
      </trkpt>
      <trkpt lat="44.06691" lon="7.25735">
        <ele>977.5</ele>
        <time>2022-09-09T12:55:37Z</time>
      </trkpt>
      <trkpt lat="44.06691" lon="7.25736">
        <ele>972.8</ele>
        <time>2022-09-09T12:55:52Z</time>
      </trkpt>
      <trkpt lat="44.0671" lon="7.25683">
        <ele>980</ele>
        <time>2022-09-09T12:56:08Z</time>
      </trkpt>
      <trkpt lat="44.06705" lon="7.25602">
        <ele>985</ele>
        <time>2022-09-09T12:56:23Z</time>
      </trkpt>
      <trkpt lat="44.06742" lon="7.25549">
        <ele>986</ele>
        <time>2022-09-09T12:56:39Z</time>
      </trkpt>
      <trkpt lat="44.06787" lon="7.2554">
        <ele>986</ele>
        <time>2022-09-09T12:56:54Z</time>
      </trkpt>
      <trkpt lat="44.06835" lon="7.25526">
        <ele>989</ele>
        <time>2022-09-09T12:57:09Z</time>
      </trkpt>
      <trkpt lat="44.06886" lon="7.25527">
        <ele>992</ele>
        <time>2022-09-09T12:57:25Z</time>
      </trkpt>
      <trkpt lat="44.06933" lon="7.25514">
        <ele>994</ele>
        <time>2022-09-09T12:57:41Z</time>
      </trkpt>
      <trkpt lat="44.06983" lon="7.25504">
        <ele>1000</ele>
        <time>2022-09-09T12:57:56Z</time>
      </trkpt>
      <trkpt lat="44.0702" lon="7.2547">
        <ele>1002</ele>
        <time>2022-09-09T12:58:11Z</time>
      </trkpt>
      <trkpt lat="44.07069" lon="7.25474">
        <ele>1009</ele>
        <time>2022-09-09T12:58:26Z</time>
      </trkpt>
      <trkpt lat="44.07045" lon="7.2554">
        <ele>1013</ele>
        <time>2022-09-09T12:58:42Z</time>
      </trkpt>
      <trkpt lat="44.07023" lon="7.25587">
        <ele>1013.3</ele>
        <time>2022-09-09T12:58:57Z</time>
      </trkpt>
      <trkpt lat="44.07006" lon="7.25637">
        <ele>1021</ele>
        <time>2022-09-09T12:59:12Z</time>
      </trkpt>
      <trkpt lat="44.07007" lon="7.25657">
        <ele>1023</ele>
        <time>2022-09-09T12:59:28Z</time>
      </trkpt>
      <trkpt lat="44.07004" lon="7.25663">
        <ele>1015.4</ele>
        <time>2022-09-09T12:59:43Z</time>
      </trkpt>
      <trkpt lat="44.07006" lon="7.2566">
        <ele>1016.6</ele>
        <time>2022-09-09T12:59:59Z</time>
      </trkpt>
      <trkpt lat="44.07006" lon="7.2566">
        <ele>1016.7</ele>
        <time>2022-09-09T13:00:15Z</time>
      </trkpt>
      <trkpt lat="44.07006" lon="7.2566">
        <ele>1019.6</ele>
        <time>2022-09-09T13:00:30Z</time>
      </trkpt>
      <trkpt lat="44.07007" lon="7.25652">
        <ele>1017.6</ele>
        <time>2022-09-09T13:00:46Z</time>
      </trkpt>
      <trkpt lat="44.07001" lon="7.25648">
        <ele>1017.6</ele>
        <time>2022-09-09T13:01:01Z</time>
      </trkpt>
      <trkpt lat="44.07002" lon="7.25646">
        <ele>1019.1</ele>
        <time>2022-09-09T13:01:16Z</time>
      </trkpt>
      <trkpt lat="44.06995" lon="7.2566">
        <ele>1016.7</ele>
        <time>2022-09-09T13:01:32Z</time>
      </trkpt>
      <trkpt lat="44.06994" lon="7.25662">
        <ele>1017</ele>
        <time>2022-09-09T13:01:48Z</time>
      </trkpt>
      <trkpt lat="44.07" lon="7.25666">
        <ele>1028</ele>
        <time>2022-09-09T13:02:03Z</time>
      </trkpt>
      <trkpt lat="44.07" lon="7.25669">
        <ele>1019.2</ele>
        <time>2022-09-09T13:02:19Z</time>
      </trkpt>
      <trkpt lat="44.06998" lon="7.25667">
        <ele>1020.7</ele>
        <time>2022-09-09T13:02:34Z</time>
      </trkpt>
      <trkpt lat="44.07007" lon="7.25657">
        <ele>1019</ele>
        <time>2022-09-09T13:35:07Z</time>
      </trkpt>
      <trkpt lat="44.07008" lon="7.25656">
        <ele>1021.2</ele>
        <time>2022-09-09T13:35:23Z</time>
      </trkpt>
      <trkpt lat="44.07017" lon="7.2564">
        <ele>1020.6</ele>
        <time>2022-09-09T13:35:38Z</time>
      </trkpt>
      <trkpt lat="44.07044" lon="7.25655">
        <ele>1018</ele>
        <time>2022-09-09T13:35:53Z</time>
      </trkpt>
      <trkpt lat="44.07042" lon="7.25659">
        <ele>1019.7</ele>
        <time>2022-09-09T13:36:09Z</time>
      </trkpt>
      <trkpt lat="44.07036" lon="7.25654">
        <ele>1019</ele>
        <time>2022-09-09T13:36:24Z</time>
      </trkpt>
      <trkpt lat="44.07044" lon="7.2561">
        <ele>1019.4</ele>
        <time>2022-09-09T13:36:40Z</time>
      </trkpt>
      <trkpt lat="44.07077" lon="7.25552">
        <ele>1021</ele>
        <time>2022-09-09T13:36:55Z</time>
      </trkpt>
      <trkpt lat="44.07109" lon="7.25496">
        <ele>1022</ele>
        <time>2022-09-09T13:37:10Z</time>
      </trkpt>
      <trkpt lat="44.07134" lon="7.25439">
        <ele>1020.6</ele>
        <time>2022-09-09T13:37:26Z</time>
      </trkpt>
      <trkpt lat="44.07161" lon="7.25407">
        <ele>1020</ele>
        <time>2022-09-09T13:37:41Z</time>
      </trkpt>
      <trkpt lat="44.07165" lon="7.254">
        <ele>1025.8</ele>
        <time>2022-09-09T13:37:56Z</time>
      </trkpt>
      <trkpt lat="44.07164" lon="7.254">
        <ele>1026.3</ele>
        <time>2022-09-09T13:38:12Z</time>
      </trkpt>
      <trkpt lat="44.07164" lon="7.254">
        <ele>1026.2</ele>
        <time>2022-09-09T13:38:28Z</time>
      </trkpt>
      <trkpt lat="44.07164" lon="7.25403">
        <ele>1025.4</ele>
        <time>2022-09-09T13:38:43Z</time>
      </trkpt>
      <trkpt lat="44.07176" lon="7.25372">
        <ele>1023.3</ele>
        <time>2022-09-09T13:38:58Z</time>
      </trkpt>
      <trkpt lat="44.07213" lon="7.2531">
        <ele>1025</ele>
        <time>2022-09-09T13:39:14Z</time>
      </trkpt>
      <trkpt lat="44.07267" lon="7.25253">
        <ele>1025.1</ele>
        <time>2022-09-09T13:39:29Z</time>
      </trkpt>
      <trkpt lat="44.07318" lon="7.25219">
        <ele>1027</ele>
        <time>2022-09-09T13:39:44Z</time>
      </trkpt>
      <trkpt lat="44.07371" lon="7.25163">
        <ele>1026</ele>
        <time>2022-09-09T13:39:59Z</time>
      </trkpt>
      <trkpt lat="44.07413" lon="7.25109">
        <ele>1027</ele>
        <time>2022-09-09T13:40:15Z</time>
      </trkpt>
      <trkpt lat="44.074" lon="7.25038">
        <ele>1027</ele>
        <time>2022-09-09T13:40:30Z</time>
      </trkpt>
      <trkpt lat="44.07446" lon="7.24997">
        <ele>1029</ele>
        <time>2022-09-09T13:40:45Z</time>
      </trkpt>
      <trkpt lat="44.07483" lon="7.24977">
        <ele>1032</ele>
        <time>2022-09-09T13:41:00Z</time>
      </trkpt>
      <trkpt lat="44.07513" lon="7.2497">
        <ele>1038.8</ele>
        <time>2022-09-09T13:41:15Z</time>
      </trkpt>
      <trkpt lat="44.07542" lon="7.24972">
        <ele>1037</ele>
        <time>2022-09-09T13:41:30Z</time>
      </trkpt>
      <trkpt lat="44.07573" lon="7.24977">
        <ele>1041</ele>
        <time>2022-09-09T13:41:46Z</time>
      </trkpt>
      <trkpt lat="44.07609" lon="7.24983">
        <ele>1049</ele>
        <time>2022-09-09T13:42:01Z</time>
      </trkpt>
      <trkpt lat="44.07643" lon="7.2499">
        <ele>1055</ele>
        <time>2022-09-09T13:42:16Z</time>
      </trkpt>
      <trkpt lat="44.07674" lon="7.24994">
        <ele>1059</ele>
        <time>2022-09-09T13:42:31Z</time>
      </trkpt>
      <trkpt lat="44.0771" lon="7.2499">
        <ele>1063</ele>
        <time>2022-09-09T13:42:47Z</time>
      </trkpt>
      <trkpt lat="44.07749" lon="7.24987">
        <ele>1064.1</ele>
        <time>2022-09-09T13:43:03Z</time>
      </trkpt>
      <trkpt lat="44.07787" lon="7.24987">
        <ele>1068</ele>
        <time>2022-09-09T13:43:18Z</time>
      </trkpt>
      <trkpt lat="44.07824" lon="7.24985">
        <ele>1071</ele>
        <time>2022-09-09T13:43:33Z</time>
      </trkpt>
      <trkpt lat="44.07862" lon="7.24984">
        <ele>1074</ele>
        <time>2022-09-09T13:43:49Z</time>
      </trkpt>
      <trkpt lat="44.07913" lon="7.25007">
        <ele>1074</ele>
        <time>2022-09-09T13:44:05Z</time>
      </trkpt>
      <trkpt lat="44.07956" lon="7.24996">
        <ele>1076</ele>
        <time>2022-09-09T13:44:20Z</time>
      </trkpt>
      <trkpt lat="44.07997" lon="7.24979">
        <ele>1079</ele>
        <time>2022-09-09T13:44:36Z</time>
      </trkpt>
      <trkpt lat="44.0804" lon="7.24971">
        <ele>1079.4</ele>
        <time>2022-09-09T13:44:51Z</time>
      </trkpt>
      <trkpt lat="44.08081" lon="7.24979">
        <ele>1085</ele>
        <time>2022-09-09T13:45:07Z</time>
      </trkpt>
      <trkpt lat="44.08114" lon="7.25004">
        <ele>1084.1</ele>
        <time>2022-09-09T13:45:22Z</time>
      </trkpt>
      <trkpt lat="44.0814" lon="7.2504">
        <ele>1092</ele>
        <time>2022-09-09T13:45:37Z</time>
      </trkpt>
      <trkpt lat="44.08168" lon="7.25078">
        <ele>1093</ele>
        <time>2022-09-09T13:45:53Z</time>
      </trkpt>
      <trkpt lat="44.08204" lon="7.2509">
        <ele>1097</ele>
        <time>2022-09-09T13:46:08Z</time>
      </trkpt>
      <trkpt lat="44.0824" lon="7.25079">
        <ele>1101</ele>
        <time>2022-09-09T13:46:24Z</time>
      </trkpt>
      <trkpt lat="44.0828" lon="7.25067">
        <ele>1103</ele>
        <time>2022-09-09T13:46:40Z</time>
      </trkpt>
      <trkpt lat="44.08314" lon="7.25049">
        <ele>1105</ele>
        <time>2022-09-09T13:46:55Z</time>
      </trkpt>
      <trkpt lat="44.08345" lon="7.25024">
        <ele>1110</ele>
        <time>2022-09-09T13:47:10Z</time>
      </trkpt>
      <trkpt lat="44.08377" lon="7.24999">
        <ele>1112</ele>
        <time>2022-09-09T13:47:25Z</time>
      </trkpt>
      <trkpt lat="44.08415" lon="7.24986">
        <ele>1114</ele>
        <time>2022-09-09T13:47:40Z</time>
      </trkpt>
      <trkpt lat="44.08454" lon="7.24977">
        <ele>1118</ele>
        <time>2022-09-09T13:47:55Z</time>
      </trkpt>
      <trkpt lat="44.08495" lon="7.2497">
        <ele>1119.4</ele>
        <time>2022-09-09T13:48:10Z</time>
      </trkpt>
      <trkpt lat="44.0854" lon="7.24968">
        <ele>1122</ele>
        <time>2022-09-09T13:48:26Z</time>
      </trkpt>
      <trkpt lat="44.08584" lon="7.24967">
        <ele>1120.3</ele>
        <time>2022-09-09T13:48:41Z</time>
      </trkpt>
      <trkpt lat="44.08626" lon="7.24973">
        <ele>1127</ele>
        <time>2022-09-09T13:48:56Z</time>
      </trkpt>
      <trkpt lat="44.08668" lon="7.24981">
        <ele>1130</ele>
        <time>2022-09-09T13:49:12Z</time>
      </trkpt>
      <trkpt lat="44.08708" lon="7.24995">
        <ele>1133</ele>
        <time>2022-09-09T13:49:27Z</time>
      </trkpt>
      <trkpt lat="44.0875" lon="7.25011">
        <ele>1136</ele>
        <time>2022-09-09T13:49:43Z</time>
      </trkpt>
      <trkpt lat="44.08791" lon="7.25023">
        <ele>1138</ele>
        <time>2022-09-09T13:49:58Z</time>
      </trkpt>
      <trkpt lat="44.08834" lon="7.25034">
        <ele>1141</ele>
        <time>2022-09-09T13:50:14Z</time>
      </trkpt>
      <trkpt lat="44.08872" lon="7.25044">
        <ele>1146</ele>
        <time>2022-09-09T13:50:30Z</time>
      </trkpt>
      <trkpt lat="44.08899" lon="7.25082">
        <ele>1150</ele>
        <time>2022-09-09T13:50:45Z</time>
      </trkpt>
      <trkpt lat="44.08922" lon="7.25123">
        <ele>1154.1</ele>
        <time>2022-09-09T13:51:00Z</time>
      </trkpt>
      <trkpt lat="44.08951" lon="7.25146">
        <ele>1158</ele>
        <time>2022-09-09T13:51:15Z</time>
      </trkpt>
      <trkpt lat="44.08981" lon="7.25166">
        <ele>1159.8</ele>
        <time>2022-09-09T13:51:31Z</time>
      </trkpt>
      <trkpt lat="44.09009" lon="7.25179">
        <ele>1164</ele>
        <time>2022-09-09T13:51:46Z</time>
      </trkpt>
      <trkpt lat="44.09038" lon="7.25162">
        <ele>1163.9</ele>
        <time>2022-09-09T13:52:01Z</time>
      </trkpt>
      <trkpt lat="44.09067" lon="7.25175">
        <ele>1173</ele>
        <time>2022-09-09T13:52:16Z</time>
      </trkpt>
      <trkpt lat="44.09063" lon="7.25232">
        <ele>1175</ele>
        <time>2022-09-09T13:52:32Z</time>
      </trkpt>
      <trkpt lat="44.09037" lon="7.25271">
        <ele>1179</ele>
        <time>2022-09-09T13:52:47Z</time>
      </trkpt>
      <trkpt lat="44.09009" lon="7.2531">
        <ele>1177.7</ele>
        <time>2022-09-09T13:53:03Z</time>
      </trkpt>
      <trkpt lat="44.0899" lon="7.25361">
        <ele>1184</ele>
        <time>2022-09-09T13:53:18Z</time>
      </trkpt>
      <trkpt lat="44.08969" lon="7.25416">
        <ele>1188</ele>
        <time>2022-09-09T13:53:33Z</time>
      </trkpt>
      <trkpt lat="44.08929" lon="7.25446">
        <ele>1194</ele>
        <time>2022-09-09T13:53:49Z</time>
      </trkpt>
      <trkpt lat="44.08892" lon="7.25482">
        <ele>1197</ele>
        <time>2022-09-09T13:54:04Z</time>
      </trkpt>
      <trkpt lat="44.08848" lon="7.25473">
        <ele>1199</ele>
        <time>2022-09-09T13:54:19Z</time>
      </trkpt>
      <trkpt lat="44.088" lon="7.25466">
        <ele>1203</ele>
        <time>2022-09-09T13:54:35Z</time>
      </trkpt>
      <trkpt lat="44.08786" lon="7.25486">
        <ele>1203</ele>
        <time>2022-09-09T13:54:50Z</time>
      </trkpt>
      <trkpt lat="44.08785" lon="7.25481">
        <ele>1198.3</ele>
        <time>2022-09-09T13:55:06Z</time>
      </trkpt>
      <trkpt lat="44.0879" lon="7.25472">
        <ele>1195</ele>
        <time>2022-09-09T13:55:21Z</time>
      </trkpt>
      <trkpt lat="44.08813" lon="7.2547">
        <ele>1195.1</ele>
        <time>2022-09-09T13:55:36Z</time>
      </trkpt>
      <trkpt lat="44.0893" lon="7.2546">
        <ele>1188</ele>
        <time>2022-09-09T13:55:52Z</time>
      </trkpt>
      <trkpt lat="44.09016" lon="7.25301">
        <ele>1179</ele>
        <time>2022-09-09T13:56:08Z</time>
      </trkpt>
      <trkpt lat="44.09061" lon="7.25157">
        <ele>1176</ele>
        <time>2022-09-09T13:56:23Z</time>
      </trkpt>
      <trkpt lat="44.09033" lon="7.25096">
        <ele>1175.2</ele>
        <time>2022-09-09T13:56:38Z</time>
      </trkpt>
      <trkpt lat="44.09023" lon="7.25064">
        <ele>1176.9</ele>
        <time>2022-09-09T13:56:54Z</time>
      </trkpt>
      <trkpt lat="44.09044" lon="7.25152">
        <ele>1176</ele>
        <time>2022-09-09T13:57:10Z</time>
      </trkpt>
      <trkpt lat="44.09074" lon="7.25209">
        <ele>1174</ele>
        <time>2022-09-09T13:57:25Z</time>
      </trkpt>
      <trkpt lat="44.09072" lon="7.25204">
        <ele>1173</ele>
        <time>2022-09-09T13:57:41Z</time>
      </trkpt>
      <trkpt lat="44.09038" lon="7.25125">
        <ele>1175</ele>
        <time>2022-09-09T13:57:56Z</time>
      </trkpt>
      <trkpt lat="44.09032" lon="7.25067">
        <ele>1177</ele>
        <time>2022-09-09T13:58:12Z</time>
      </trkpt>
      <trkpt lat="44.09011" lon="7.25001">
        <ele>1180</ele>
        <time>2022-09-09T13:58:27Z</time>
      </trkpt>
      <trkpt lat="44.08979" lon="7.24959">
        <ele>1183</ele>
        <time>2022-09-09T13:58:42Z</time>
      </trkpt>
      <trkpt lat="44.08956" lon="7.24926">
        <ele>1186</ele>
        <time>2022-09-09T13:58:57Z</time>
      </trkpt>
      <trkpt lat="44.08954" lon="7.24925">
        <ele>1187.2</ele>
        <time>2022-09-09T13:59:13Z</time>
      </trkpt>
      <trkpt lat="44.08954" lon="7.24925">
        <ele>1186.6</ele>
        <time>2022-09-09T13:59:29Z</time>
      </trkpt>
      <trkpt lat="44.08954" lon="7.24925">
        <ele>1187</ele>
        <time>2022-09-09T13:59:44Z</time>
      </trkpt>
      <trkpt lat="44.08954" lon="7.24928">
        <ele>1187.4</ele>
        <time>2022-09-09T14:00:00Z</time>
      </trkpt>
      <trkpt lat="44.08954" lon="7.24928">
        <ele>1188.3</ele>
        <time>2022-09-09T14:00:15Z</time>
      </trkpt>
      <trkpt lat="44.08954" lon="7.24928">
        <ele>1188.3</ele>
        <time>2022-09-09T14:00:31Z</time>
      </trkpt>
      <trkpt lat="44.08945" lon="7.24923">
        <ele>1189.6</ele>
        <time>2022-09-09T14:00:46Z</time>
      </trkpt>
      <trkpt lat="44.08913" lon="7.24886">
        <ele>1197</ele>
        <time>2022-09-09T14:01:02Z</time>
      </trkpt>
      <trkpt lat="44.08879" lon="7.24857">
        <ele>1199</ele>
        <time>2022-09-09T14:01:17Z</time>
      </trkpt>
      <trkpt lat="44.08844" lon="7.24836">
        <ele>1196.2</ele>
        <time>2022-09-09T14:01:33Z</time>
      </trkpt>
      <trkpt lat="44.08807" lon="7.24815">
        <ele>1202</ele>
        <time>2022-09-09T14:01:48Z</time>
      </trkpt>
      <trkpt lat="44.08769" lon="7.24799">
        <ele>1206</ele>
        <time>2022-09-09T14:02:04Z</time>
      </trkpt>
      <trkpt lat="44.08733" lon="7.24778">
        <ele>1210</ele>
        <time>2022-09-09T14:02:19Z</time>
      </trkpt>
      <trkpt lat="44.08698" lon="7.24752">
        <ele>1213</ele>
        <time>2022-09-09T14:02:34Z</time>
      </trkpt>
      <trkpt lat="44.08664" lon="7.24732">
        <ele>1216</ele>
        <time>2022-09-09T14:02:50Z</time>
      </trkpt>
      <trkpt lat="44.08623" lon="7.24735">
        <ele>1219</ele>
        <time>2022-09-09T14:03:05Z</time>
      </trkpt>
      <trkpt lat="44.08587" lon="7.24715">
        <ele>1219.9</ele>
        <time>2022-09-09T14:03:21Z</time>
      </trkpt>
      <trkpt lat="44.08553" lon="7.24696">
        <ele>1226</ele>
        <time>2022-09-09T14:03:36Z</time>
      </trkpt>
      <trkpt lat="44.08516" lon="7.24681">
        <ele>1230</ele>
        <time>2022-09-09T14:03:51Z</time>
      </trkpt>
      <trkpt lat="44.08481" lon="7.24666">
        <ele>1233</ele>
        <time>2022-09-09T14:04:06Z</time>
      </trkpt>
      <trkpt lat="44.08481" lon="7.24613">
        <ele>1238</ele>
        <time>2022-09-09T14:04:21Z</time>
      </trkpt>
      <trkpt lat="44.08501" lon="7.24566">
        <ele>1241</ele>
        <time>2022-09-09T14:04:36Z</time>
      </trkpt>
      <trkpt lat="44.08485" lon="7.24518">
        <ele>1246</ele>
        <time>2022-09-09T14:04:52Z</time>
      </trkpt>
      <trkpt lat="44.08448" lon="7.24526">
        <ele>1244.5</ele>
        <time>2022-09-09T14:05:08Z</time>
      </trkpt>
      <trkpt lat="44.0841" lon="7.24544">
        <ele>1251</ele>
        <time>2022-09-09T14:05:23Z</time>
      </trkpt>
      <trkpt lat="44.08374" lon="7.24566">
        <ele>1251.2</ele>
        <time>2022-09-09T14:05:38Z</time>
      </trkpt>
      <trkpt lat="44.08339" lon="7.24561">
        <ele>1257</ele>
        <time>2022-09-09T14:05:54Z</time>
      </trkpt>
      <trkpt lat="44.08335" lon="7.2456">
        <ele>1260.2</ele>
        <time>2022-09-09T14:06:09Z</time>
      </trkpt>
      <trkpt lat="44.08336" lon="7.2456">
        <ele>1258.6</ele>
        <time>2022-09-09T14:06:24Z</time>
      </trkpt>
      <trkpt lat="44.08336" lon="7.2456">
        <ele>1259.3</ele>
        <time>2022-09-09T14:06:40Z</time>
      </trkpt>
      <trkpt lat="44.08335" lon="7.24536">
        <ele>1258.8</ele>
        <time>2022-09-09T14:06:55Z</time>
      </trkpt>
      <trkpt lat="44.08327" lon="7.24478">
        <ele>1266</ele>
        <time>2022-09-09T14:07:11Z</time>
      </trkpt>
      <trkpt lat="44.08295" lon="7.24462">
        <ele>1267</ele>
        <time>2022-09-09T14:07:27Z</time>
      </trkpt>
      <trkpt lat="44.08259" lon="7.24489">
        <ele>1270</ele>
        <time>2022-09-09T14:07:43Z</time>
      </trkpt>
      <trkpt lat="44.08218" lon="7.24487">
        <ele>1273</ele>
        <time>2022-09-09T14:07:58Z</time>
      </trkpt>
      <trkpt lat="44.08181" lon="7.2447">
        <ele>1276</ele>
        <time>2022-09-09T14:08:14Z</time>
      </trkpt>
      <trkpt lat="44.08148" lon="7.24448">
        <ele>1279</ele>
        <time>2022-09-09T14:08:29Z</time>
      </trkpt>
      <trkpt lat="44.08112" lon="7.24425">
        <ele>1282</ele>
        <time>2022-09-09T14:08:44Z</time>
      </trkpt>
      <trkpt lat="44.08074" lon="7.24405">
        <ele>1288</ele>
        <time>2022-09-09T14:09:00Z</time>
      </trkpt>
      <trkpt lat="44.08039" lon="7.24388">
        <ele>1293</ele>
        <time>2022-09-09T14:09:15Z</time>
      </trkpt>
      <trkpt lat="44.08004" lon="7.24368">
        <ele>1294</ele>
        <time>2022-09-09T14:09:30Z</time>
      </trkpt>
      <trkpt lat="44.07967" lon="7.24351">
        <ele>1299</ele>
        <time>2022-09-09T14:09:45Z</time>
      </trkpt>
      <trkpt lat="44.07936" lon="7.2433">
        <ele>1302</ele>
        <time>2022-09-09T14:10:01Z</time>
      </trkpt>
      <trkpt lat="44.07904" lon="7.24311">
        <ele>1305</ele>
        <time>2022-09-09T14:10:16Z</time>
      </trkpt>
      <trkpt lat="44.07877" lon="7.24279">
        <ele>1310</ele>
        <time>2022-09-09T14:10:32Z</time>
      </trkpt>
      <trkpt lat="44.07863" lon="7.24271">
        <ele>1309.6</ele>
        <time>2022-09-09T14:10:47Z</time>
      </trkpt>
      <trkpt lat="44.07862" lon="7.24273">
        <ele>1308.9</ele>
        <time>2022-09-09T14:11:02Z</time>
      </trkpt>
      <trkpt lat="44.07852" lon="7.24246">
        <ele>1311.1</ele>
        <time>2022-09-09T14:11:17Z</time>
      </trkpt>
      <trkpt lat="44.07822" lon="7.24217">
        <ele>1316</ele>
        <time>2022-09-09T14:11:32Z</time>
      </trkpt>
      <trkpt lat="44.0779" lon="7.24182">
        <ele>1316.2</ele>
        <time>2022-09-09T14:11:48Z</time>
      </trkpt>
      <trkpt lat="44.07764" lon="7.24144">
        <ele>1324</ele>
        <time>2022-09-09T14:12:03Z</time>
      </trkpt>
      <trkpt lat="44.07746" lon="7.241">
        <ele>1329</ele>
        <time>2022-09-09T14:12:18Z</time>
      </trkpt>
      <trkpt lat="44.07717" lon="7.24097">
        <ele>1330</ele>
        <time>2022-09-09T14:12:34Z</time>
      </trkpt>
      <trkpt lat="44.07693" lon="7.2414">
        <ele>1336</ele>
        <time>2022-09-09T14:12:49Z</time>
      </trkpt>
      <trkpt lat="44.07665" lon="7.24176">
        <ele>1341</ele>
        <time>2022-09-09T14:13:04Z</time>
      </trkpt>
      <trkpt lat="44.07632" lon="7.24197">
        <ele>1341</ele>
        <time>2022-09-09T14:13:20Z</time>
      </trkpt>
      <trkpt lat="44.07606" lon="7.24195">
        <ele>1335.5</ele>
        <time>2022-09-09T14:13:35Z</time>
      </trkpt>
      <trkpt lat="44.07606" lon="7.24196">
        <ele>1338.3</ele>
        <time>2022-09-09T14:13:50Z</time>
      </trkpt>
      <trkpt lat="44.07607" lon="7.2419">
        <ele>1340.6</ele>
        <time>2022-09-09T14:14:06Z</time>
      </trkpt>
      <trkpt lat="44.0763" lon="7.24174">
        <ele>1335</ele>
        <time>2022-09-09T14:14:22Z</time>
      </trkpt>
      <trkpt lat="44.07667" lon="7.24148">
        <ele>1340</ele>
        <time>2022-09-09T14:14:37Z</time>
      </trkpt>
      <trkpt lat="44.07689" lon="7.24111">
        <ele>1344</ele>
        <time>2022-09-09T14:14:53Z</time>
      </trkpt>
      <trkpt lat="44.07704" lon="7.24061">
        <ele>1342</ele>
        <time>2022-09-09T14:15:09Z</time>
      </trkpt>
      <trkpt lat="44.07727" lon="7.24018">
        <ele>1342</ele>
        <time>2022-09-09T14:15:24Z</time>
      </trkpt>
      <trkpt lat="44.07761" lon="7.24047">
        <ele>1346</ele>
        <time>2022-09-09T14:15:39Z</time>
      </trkpt>
      <trkpt lat="44.07792" lon="7.24081">
        <ele>1352</ele>
        <time>2022-09-09T14:15:55Z</time>
      </trkpt>
      <trkpt lat="44.07826" lon="7.24108">
        <ele>1356</ele>
        <time>2022-09-09T14:16:10Z</time>
      </trkpt>
      <trkpt lat="44.07859" lon="7.24131">
        <ele>1361</ele>
        <time>2022-09-09T14:16:25Z</time>
      </trkpt>
      <trkpt lat="44.07896" lon="7.2416">
        <ele>1365</ele>
        <time>2022-09-09T14:16:41Z</time>
      </trkpt>
      <trkpt lat="44.07926" lon="7.24186">
        <ele>1369</ele>
        <time>2022-09-09T14:16:56Z</time>
      </trkpt>
      <trkpt lat="44.07966" lon="7.24205">
        <ele>1372</ele>
        <time>2022-09-09T14:17:12Z</time>
      </trkpt>
      <trkpt lat="44.08" lon="7.24221">
        <ele>1375</ele>
        <time>2022-09-09T14:17:27Z</time>
      </trkpt>
      <trkpt lat="44.08038" lon="7.24224">
        <ele>1372.7</ele>
        <time>2022-09-09T14:17:42Z</time>
      </trkpt>
      <trkpt lat="44.08079" lon="7.24237">
        <ele>1383</ele>
        <time>2022-09-09T14:17:58Z</time>
      </trkpt>
      <trkpt lat="44.08116" lon="7.24239">
        <ele>1381</ele>
        <time>2022-09-09T14:18:13Z</time>
      </trkpt>
      <trkpt lat="44.08152" lon="7.2424">
        <ele>1384</ele>
        <time>2022-09-09T14:18:29Z</time>
      </trkpt>
      <trkpt lat="44.08189" lon="7.24242">
        <ele>1390</ele>
        <time>2022-09-09T14:18:44Z</time>
      </trkpt>
      <trkpt lat="44.08226" lon="7.24224">
        <ele>1394</ele>
        <time>2022-09-09T14:18:59Z</time>
      </trkpt>
      <trkpt lat="44.08265" lon="7.242">
        <ele>1397</ele>
        <time>2022-09-09T14:19:15Z</time>
      </trkpt>
      <trkpt lat="44.08282" lon="7.24172">
        <ele>1399</ele>
        <time>2022-09-09T14:19:30Z</time>
      </trkpt>
      <trkpt lat="44.08279" lon="7.24167">
        <ele>1400</ele>
        <time>2022-09-09T14:19:46Z</time>
      </trkpt>
      <trkpt lat="44.0824" lon="7.2419">
        <ele>1402.2</ele>
        <time>2022-09-09T14:20:01Z</time>
      </trkpt>
      <trkpt lat="44.08199" lon="7.24212">
        <ele>1410</ele>
        <time>2022-09-09T14:20:17Z</time>
      </trkpt>
      <trkpt lat="44.0816" lon="7.2421">
        <ele>1414</ele>
        <time>2022-09-09T14:20:32Z</time>
      </trkpt>
      <trkpt lat="44.08121" lon="7.242">
        <ele>1418</ele>
        <time>2022-09-09T14:20:47Z</time>
      </trkpt>
      <trkpt lat="44.08083" lon="7.24191">
        <ele>1418</ele>
        <time>2022-09-09T14:21:03Z</time>
      </trkpt>
      <trkpt lat="44.08077" lon="7.24188">
        <ele>1414.7</ele>
        <time>2022-09-09T14:21:18Z</time>
      </trkpt>
      <trkpt lat="44.08077" lon="7.24188">
        <ele>1414.5</ele>
        <time>2022-09-09T14:21:33Z</time>
      </trkpt>
      <trkpt lat="44.08078" lon="7.24189">
        <ele>1413.7</ele>
        <time>2022-09-09T14:21:49Z</time>
      </trkpt>
      <trkpt lat="44.08068" lon="7.24182">
        <ele>1414.1</ele>
        <time>2022-09-09T14:22:05Z</time>
      </trkpt>
      <trkpt lat="44.08035" lon="7.24153">
        <ele>1415</ele>
        <time>2022-09-09T14:22:21Z</time>
      </trkpt>
      <trkpt lat="44.07994" lon="7.24138">
        <ele>1419.7</ele>
        <time>2022-09-09T14:22:37Z</time>
      </trkpt>
      <trkpt lat="44.0796" lon="7.24113">
        <ele>1422</ele>
        <time>2022-09-09T14:22:52Z</time>
      </trkpt>
      <trkpt lat="44.07936" lon="7.24074">
        <ele>1426</ele>
        <time>2022-09-09T14:23:07Z</time>
      </trkpt>
      <trkpt lat="44.07908" lon="7.24034">
        <ele>1430</ele>
        <time>2022-09-09T14:23:22Z</time>
      </trkpt>
      <trkpt lat="44.07876" lon="7.23999">
        <ele>1434</ele>
        <time>2022-09-09T14:23:38Z</time>
      </trkpt>
      <trkpt lat="44.07847" lon="7.23963">
        <ele>1437</ele>
        <time>2022-09-09T14:23:53Z</time>
      </trkpt>
      <trkpt lat="44.07819" lon="7.23926">
        <ele>1438</ele>
        <time>2022-09-09T14:24:09Z</time>
      </trkpt>
      <trkpt lat="44.07795" lon="7.23885">
        <ele>1440.8</ele>
        <time>2022-09-09T14:24:24Z</time>
      </trkpt>
      <trkpt lat="44.07764" lon="7.23843">
        <ele>1445</ele>
        <time>2022-09-09T14:24:40Z</time>
      </trkpt>
      <trkpt lat="44.07735" lon="7.23804">
        <ele>1443.6</ele>
        <time>2022-09-09T14:24:56Z</time>
      </trkpt>
      <trkpt lat="44.077" lon="7.23815">
        <ele>1453</ele>
        <time>2022-09-09T14:25:11Z</time>
      </trkpt>
      <trkpt lat="44.07677" lon="7.23866">
        <ele>1451</ele>
        <time>2022-09-09T14:25:26Z</time>
      </trkpt>
      <trkpt lat="44.07638" lon="7.23885">
        <ele>1455</ele>
        <time>2022-09-09T14:25:42Z</time>
      </trkpt>
      <trkpt lat="44.07601" lon="7.23891">
        <ele>1457</ele>
        <time>2022-09-09T14:25:57Z</time>
      </trkpt>
      <trkpt lat="44.07569" lon="7.2388">
        <ele>1455</ele>
        <time>2022-09-09T14:26:13Z</time>
      </trkpt>
      <trkpt lat="44.07554" lon="7.2387">
        <ele>1461.7</ele>
        <time>2022-09-09T14:26:28Z</time>
      </trkpt>
      <trkpt lat="44.07548" lon="7.23875">
        <ele>1464.4</ele>
        <time>2022-09-09T14:26:43Z</time>
      </trkpt>
      <trkpt lat="44.07547" lon="7.23875">
        <ele>1462.7</ele>
        <time>2022-09-09T14:26:58Z</time>
      </trkpt>
      <trkpt lat="44.07546" lon="7.23869">
        <ele>1462.5</ele>
        <time>2022-09-09T14:27:13Z</time>
      </trkpt>
      <trkpt lat="44.07443" lon="7.23802">
        <ele>1468.5</ele>
        <time>2022-09-09T14:27:43Z</time>
      </trkpt>
      <trkpt lat="44.07432" lon="7.23791">
        <ele>1472.5</ele>
        <time>2022-09-09T14:27:59Z</time>
      </trkpt>
      <trkpt lat="44.07414" lon="7.2379">
        <ele>1475.3</ele>
        <time>2022-09-09T14:28:14Z</time>
      </trkpt>
      <trkpt lat="44.0739" lon="7.23792">
        <ele>1476.8</ele>
        <time>2022-09-09T14:28:30Z</time>
      </trkpt>
      <trkpt lat="44.07393" lon="7.23622">
        <ele>1480.2</ele>
        <time>2022-09-09T14:28:45Z</time>
      </trkpt>
      <trkpt lat="44.07396" lon="7.23549">
        <ele>1492</ele>
        <time>2022-09-09T14:29:00Z</time>
      </trkpt>
      <trkpt lat="44.07378" lon="7.23496">
        <ele>1492</ele>
        <time>2022-09-09T14:29:15Z</time>
      </trkpt>
      <trkpt lat="44.07356" lon="7.23452">
        <ele>1488.2</ele>
        <time>2022-09-09T14:29:31Z</time>
      </trkpt>
      <trkpt lat="44.07334" lon="7.23403">
        <ele>1494</ele>
        <time>2022-09-09T14:29:46Z</time>
      </trkpt>
      <trkpt lat="44.07315" lon="7.23352">
        <ele>1498</ele>
        <time>2022-09-09T14:30:02Z</time>
      </trkpt>
      <trkpt lat="44.07317" lon="7.23295">
        <ele>1502</ele>
        <time>2022-09-09T14:30:17Z</time>
      </trkpt>
      <trkpt lat="44.07311" lon="7.2324">
        <ele>1508</ele>
        <time>2022-09-09T14:30:32Z</time>
      </trkpt>
      <trkpt lat="44.07281" lon="7.23198">
        <ele>1509</ele>
        <time>2022-09-09T14:30:48Z</time>
      </trkpt>
      <trkpt lat="44.07251" lon="7.23162">
        <ele>1510</ele>
        <time>2022-09-09T14:31:03Z</time>
      </trkpt>
      <trkpt lat="44.07224" lon="7.23115">
        <ele>1508.8</ele>
        <time>2022-09-09T14:31:19Z</time>
      </trkpt>
      <trkpt lat="44.07219" lon="7.23056">
        <ele>1516</ele>
        <time>2022-09-09T14:31:35Z</time>
      </trkpt>
      <trkpt lat="44.07214" lon="7.23003">
        <ele>1519</ele>
        <time>2022-09-09T14:31:50Z</time>
      </trkpt>
      <trkpt lat="44.07207" lon="7.2294">
        <ele>1527</ele>
        <time>2022-09-09T14:32:06Z</time>
      </trkpt>
      <trkpt lat="44.07201" lon="7.22882">
        <ele>1533</ele>
        <time>2022-09-09T14:32:21Z</time>
      </trkpt>
      <trkpt lat="44.07187" lon="7.22834">
        <ele>1535</ele>
        <time>2022-09-09T14:32:36Z</time>
      </trkpt>
      <trkpt lat="44.0717" lon="7.22785">
        <ele>1533</ele>
        <time>2022-09-09T14:32:51Z</time>
      </trkpt>
      <trkpt lat="44.07156" lon="7.22736">
        <ele>1532</ele>
        <time>2022-09-09T14:33:06Z</time>
      </trkpt>
      <trkpt lat="44.07143" lon="7.22682">
        <ele>1536</ele>
        <time>2022-09-09T14:33:21Z</time>
      </trkpt>
      <trkpt lat="44.07125" lon="7.2262">
        <ele>1531.2</ele>
        <time>2022-09-09T14:33:37Z</time>
      </trkpt>
      <trkpt lat="44.0711" lon="7.22573">
        <ele>1542</ele>
        <time>2022-09-09T14:33:52Z</time>
      </trkpt>
      <trkpt lat="44.07098" lon="7.2252">
        <ele>1547</ele>
        <time>2022-09-09T14:34:07Z</time>
      </trkpt>
      <trkpt lat="44.07095" lon="7.22456">
        <ele>1551</ele>
        <time>2022-09-09T14:34:23Z</time>
      </trkpt>
      <trkpt lat="44.07091" lon="7.22395">
        <ele>1550</ele>
        <time>2022-09-09T14:34:38Z</time>
      </trkpt>
      <trkpt lat="44.07101" lon="7.22333">
        <ele>1553.5</ele>
        <time>2022-09-09T14:34:53Z</time>
      </trkpt>
      <trkpt lat="44.0711" lon="7.22271">
        <ele>1555</ele>
        <time>2022-09-09T14:35:09Z</time>
      </trkpt>
      <trkpt lat="44.07103" lon="7.22214">
        <ele>1558</ele>
        <time>2022-09-09T14:35:24Z</time>
      </trkpt>
      <trkpt lat="44.0711" lon="7.22165">
        <ele>1556</ele>
        <time>2022-09-09T14:35:39Z</time>
      </trkpt>
      <trkpt lat="44.07083" lon="7.22196">
        <ele>1554</ele>
        <time>2022-09-09T14:35:55Z</time>
      </trkpt>
      <trkpt lat="44.07078" lon="7.22193">
        <ele>1558.9</ele>
        <time>2022-09-09T14:36:10Z</time>
      </trkpt>
      <trkpt lat="44.07079" lon="7.22193">
        <ele>1558.5</ele>
        <time>2022-09-09T14:36:26Z</time>
      </trkpt>
      <trkpt lat="44.07078" lon="7.22193">
        <ele>1560.7</ele>
        <time>2022-09-09T14:36:41Z</time>
      </trkpt>
      <trkpt lat="44.07074" lon="7.22191">
        <ele>1559.2</ele>
        <time>2022-09-09T14:36:57Z</time>
      </trkpt>
      <trkpt lat="44.07071" lon="7.22186">
        <ele>1561.7</ele>
        <time>2022-09-09T14:37:12Z</time>
      </trkpt>
      <trkpt lat="44.07071" lon="7.22186">
        <ele>1559.2</ele>
        <time>2022-09-09T14:37:28Z</time>
      </trkpt>
      <trkpt lat="44.07075" lon="7.22194">
        <ele>1555.7</ele>
        <time>2022-09-09T14:37:43Z</time>
      </trkpt>
      <trkpt lat="44.07078" lon="7.22194">
        <ele>1554.9</ele>
        <time>2022-09-09T14:37:58Z</time>
      </trkpt>
      <trkpt lat="44.07077" lon="7.2222">
        <ele>1558.7</ele>
        <time>2022-09-09T14:38:14Z</time>
      </trkpt>
      <trkpt lat="44.07058" lon="7.22266">
        <ele>1554</ele>
        <time>2022-09-09T14:38:29Z</time>
      </trkpt>
      <trkpt lat="44.07036" lon="7.22325">
        <ele>1555.7</ele>
        <time>2022-09-09T14:38:44Z</time>
      </trkpt>
      <trkpt lat="44.07039" lon="7.22328">
        <ele>1553</ele>
        <time>2022-09-09T14:38:59Z</time>
      </trkpt>
      <trkpt lat="44.0706" lon="7.22273">
        <ele>1550</ele>
        <time>2022-09-09T14:39:15Z</time>
      </trkpt>
      <trkpt lat="44.0708" lon="7.2222">
        <ele>1551</ele>
        <time>2022-09-09T14:39:30Z</time>
      </trkpt>
      <trkpt lat="44.07107" lon="7.2221">
        <ele>1551</ele>
        <time>2022-09-09T14:39:45Z</time>
      </trkpt>
      <trkpt lat="44.07107" lon="7.22208">
        <ele>1554.7</ele>
        <time>2022-09-09T14:40:01Z</time>
      </trkpt>
      <trkpt lat="44.07109" lon="7.22207">
        <ele>1553</ele>
        <time>2022-09-09T14:40:17Z</time>
      </trkpt>
      <trkpt lat="44.0711" lon="7.22207">
        <ele>1554.4</ele>
        <time>2022-09-09T14:40:33Z</time>
      </trkpt>
      <trkpt lat="44.07101" lon="7.22205">
        <ele>1555.6</ele>
        <time>2022-09-09T14:40:48Z</time>
      </trkpt>
      <trkpt lat="44.071" lon="7.22205">
        <ele>1555</ele>
        <time>2022-09-09T14:41:04Z</time>
      </trkpt>
      <trkpt lat="44.071" lon="7.22205">
        <ele>1553.7</ele>
        <time>2022-09-09T14:41:20Z</time>
      </trkpt>
      <trkpt lat="44.071" lon="7.22205">
        <ele>1554</ele>
        <time>2022-09-09T14:41:35Z</time>
      </trkpt>
      <trkpt lat="44.071" lon="7.22205">
        <ele>1557</ele>
        <time>2022-09-09T14:41:51Z</time>
      </trkpt>
      <trkpt lat="44.071" lon="7.22205">
        <ele>1555.6</ele>
        <time>2022-09-09T14:42:07Z</time>
      </trkpt>
      <trkpt lat="44.07099" lon="7.22198">
        <ele>1554.2</ele>
        <time>2022-09-09T14:42:22Z</time>
      </trkpt>
      <trkpt lat="44.07094" lon="7.22155">
        <ele>1557</ele>
        <time>2022-09-09T14:42:38Z</time>
      </trkpt>
      <trkpt lat="44.07115" lon="7.22081">
        <ele>1553</ele>
        <time>2022-09-09T14:42:54Z</time>
      </trkpt>
      <trkpt lat="44.07214" lon="7.22023">
        <ele>1547</ele>
        <time>2022-09-09T14:43:10Z</time>
      </trkpt>
      <trkpt lat="44.07303" lon="7.2183">
        <ele>1537</ele>
        <time>2022-09-09T14:43:25Z</time>
      </trkpt>
      <trkpt lat="44.07384" lon="7.21594">
        <ele>1525</ele>
        <time>2022-09-09T14:43:41Z</time>
      </trkpt>
      <trkpt lat="44.07383" lon="7.21333">
        <ele>1514</ele>
        <time>2022-09-09T14:43:56Z</time>
      </trkpt>
      <trkpt lat="44.07396" lon="7.21031">
        <ele>1496</ele>
        <time>2022-09-09T14:44:12Z</time>
      </trkpt>
      <trkpt lat="44.07357" lon="7.20757">
        <ele>1484</ele>
        <time>2022-09-09T14:44:27Z</time>
      </trkpt>
      <trkpt lat="44.07291" lon="7.20532">
        <ele>1468</ele>
        <time>2022-09-09T14:44:43Z</time>
      </trkpt>
      <trkpt lat="44.07268" lon="7.203">
        <ele>1449</ele>
        <time>2022-09-09T14:44:59Z</time>
      </trkpt>
      <trkpt lat="44.07217" lon="7.20414">
        <ele>1433</ele>
        <time>2022-09-09T14:45:15Z</time>
      </trkpt>
      <trkpt lat="44.0724" lon="7.20659">
        <ele>1417</ele>
        <time>2022-09-09T14:45:30Z</time>
      </trkpt>
      <trkpt lat="44.07209" lon="7.20897">
        <ele>1408</ele>
        <time>2022-09-09T14:45:46Z</time>
      </trkpt>
      <trkpt lat="44.0716" lon="7.20719">
        <ele>1403</ele>
        <time>2022-09-09T14:46:01Z</time>
      </trkpt>
      <trkpt lat="44.07009" lon="7.20583">
        <ele>1390</ele>
        <time>2022-09-09T14:46:17Z</time>
      </trkpt>
      <trkpt lat="44.06844" lon="7.20452">
        <ele>1371</ele>
        <time>2022-09-09T14:46:32Z</time>
      </trkpt>
      <trkpt lat="44.06692" lon="7.20412">
        <ele>1357</ele>
        <time>2022-09-09T14:46:48Z</time>
      </trkpt>
      <trkpt lat="44.06655" lon="7.20311">
        <ele>1350</ele>
        <time>2022-09-09T14:47:03Z</time>
      </trkpt>
      <trkpt lat="44.06653" lon="7.20242">
        <ele>1349</ele>
        <time>2022-09-09T14:47:19Z</time>
      </trkpt>
      <trkpt lat="44.06657" lon="7.20141">
        <ele>1342</ele>
        <time>2022-09-09T14:47:34Z</time>
      </trkpt>
      <trkpt lat="44.06667" lon="7.20063">
        <ele>1327.7</ele>
        <time>2022-09-09T14:47:50Z</time>
      </trkpt>
      <trkpt lat="44.06666" lon="7.20051">
        <ele>1327.8</ele>
        <time>2022-09-09T14:48:05Z</time>
      </trkpt>
      <trkpt lat="44.06666" lon="7.20052">
        <ele>1328</ele>
        <time>2022-09-09T14:48:20Z</time>
      </trkpt>
      <trkpt lat="44.06666" lon="7.20052">
        <ele>1327.9</ele>
        <time>2022-09-09T14:48:35Z</time>
      </trkpt>
      <trkpt lat="44.06662" lon="7.20028">
        <ele>1327.5</ele>
        <time>2022-09-09T14:48:51Z</time>
      </trkpt>
      <trkpt lat="44.06652" lon="7.19962">
        <ele>1335</ele>
        <time>2022-09-09T14:49:06Z</time>
      </trkpt>
      <trkpt lat="44.06604" lon="7.19821">
        <ele>1330</ele>
        <time>2022-09-09T14:49:22Z</time>
      </trkpt>
      <trkpt lat="44.06559" lon="7.19609">
        <ele>1319</ele>
        <time>2022-09-09T14:49:37Z</time>
      </trkpt>
      <trkpt lat="44.06543" lon="7.19375">
        <ele>1302</ele>
        <time>2022-09-09T14:49:53Z</time>
      </trkpt>
      <trkpt lat="44.06572" lon="7.19183">
        <ele>1289</ele>
        <time>2022-09-09T14:50:09Z</time>
      </trkpt>
      <trkpt lat="44.06613" lon="7.18957">
        <ele>1278</ele>
        <time>2022-09-09T14:50:24Z</time>
      </trkpt>
      <trkpt lat="44.06623" lon="7.18703">
        <ele>1263</ele>
        <time>2022-09-09T14:50:40Z</time>
      </trkpt>
      <trkpt lat="44.06631" lon="7.18647">
        <ele>1317.5</ele>
        <time>2022-09-09T14:50:55Z</time>
      </trkpt>
      <trkpt lat="44.06514" lon="7.1873">
        <ele>1245</ele>
        <time>2022-09-09T14:51:11Z</time>
      </trkpt>
      <trkpt lat="44.06401" lon="7.18687">
        <ele>1234</ele>
        <time>2022-09-09T14:51:27Z</time>
      </trkpt>
      <trkpt lat="44.06497" lon="7.18493">
        <ele>1222</ele>
        <time>2022-09-09T14:51:42Z</time>
      </trkpt>
      <trkpt lat="44.06637" lon="7.18321">
        <ele>1208</ele>
        <time>2022-09-09T14:51:58Z</time>
      </trkpt>
      <trkpt lat="44.0674" lon="7.18126">
        <ele>1195</ele>
        <time>2022-09-09T14:52:13Z</time>
      </trkpt>
      <trkpt lat="44.06788" lon="7.1789">
        <ele>1183</ele>
        <time>2022-09-09T14:52:29Z</time>
      </trkpt>
      <trkpt lat="44.06849" lon="7.17683">
        <ele>1178</ele>
        <time>2022-09-09T14:52:45Z</time>
      </trkpt>
      <trkpt lat="44.06962" lon="7.17575">
        <ele>1171</ele>
        <time>2022-09-09T14:53:00Z</time>
      </trkpt>
      <trkpt lat="44.07062" lon="7.17471">
        <ele>1165</ele>
        <time>2022-09-09T14:53:16Z</time>
      </trkpt>
      <trkpt lat="44.07128" lon="7.17313">
        <ele>1154</ele>
        <time>2022-09-09T14:53:31Z</time>
      </trkpt>
      <trkpt lat="44.07197" lon="7.17179">
        <ele>1146</ele>
        <time>2022-09-09T14:53:47Z</time>
      </trkpt>
      <trkpt lat="44.0722" lon="7.17163">
        <ele>1142</ele>
        <time>2022-09-09T14:54:02Z</time>
      </trkpt>
      <trkpt lat="44.07273" lon="7.1701">
        <ele>1134</ele>
        <time>2022-09-09T14:54:18Z</time>
      </trkpt>
      <trkpt lat="44.07319" lon="7.16893">
        <ele>1128</ele>
        <time>2022-09-09T14:54:33Z</time>
      </trkpt>
      <trkpt lat="44.07308" lon="7.16908">
        <ele>1118.2</ele>
        <time>2022-09-09T14:54:49Z</time>
      </trkpt>
      <trkpt lat="44.07256" lon="7.1698">
        <ele>1123</ele>
        <time>2022-09-09T14:55:04Z</time>
      </trkpt>
      <trkpt lat="44.0715" lon="7.17072">
        <ele>1116</ele>
        <time>2022-09-09T14:55:20Z</time>
      </trkpt>
      <trkpt lat="44.06983" lon="7.17072">
        <ele>1103</ele>
        <time>2022-09-09T14:55:35Z</time>
      </trkpt>
      <trkpt lat="44.06916" lon="7.1702">
        <ele>1093</ele>
        <time>2022-09-09T14:55:50Z</time>
      </trkpt>
      <trkpt lat="44.0696" lon="7.16844">
        <ele>1079</ele>
        <time>2022-09-09T14:56:06Z</time>
      </trkpt>
      <trkpt lat="44.07029" lon="7.16756">
        <ele>1071</ele>
        <time>2022-09-09T14:56:21Z</time>
      </trkpt>
      <trkpt lat="44.07105" lon="7.16666">
        <ele>1066</ele>
        <time>2022-09-09T14:56:37Z</time>
      </trkpt>
      <trkpt lat="44.07241" lon="7.16623">
        <ele>1056</ele>
        <time>2022-09-09T14:56:53Z</time>
      </trkpt>
      <trkpt lat="44.07346" lon="7.16636">
        <ele>1055</ele>
        <time>2022-09-09T14:57:09Z</time>
      </trkpt>
      <trkpt lat="44.07435" lon="7.1665">
        <ele>1055</ele>
        <time>2022-09-09T14:57:24Z</time>
      </trkpt>
      <trkpt lat="44.07521" lon="7.16587">
        <ele>1055</ele>
        <time>2022-09-09T14:57:40Z</time>
      </trkpt>
      <trkpt lat="44.07499" lon="7.16523">
        <ele>1049</ele>
        <time>2022-09-09T14:57:55Z</time>
      </trkpt>
      <trkpt lat="44.07452" lon="7.16458">
        <ele>1052</ele>
        <time>2022-09-09T14:58:11Z</time>
      </trkpt>
      <trkpt lat="44.07408" lon="7.16321">
        <ele>1049</ele>
        <time>2022-09-09T14:58:26Z</time>
      </trkpt>
      <trkpt lat="44.07282" lon="7.16173">
        <ele>1037</ele>
        <time>2022-09-09T14:58:42Z</time>
      </trkpt>
      <trkpt lat="44.07214" lon="7.15961">
        <ele>1026</ele>
        <time>2022-09-09T14:58:57Z</time>
      </trkpt>
      <trkpt lat="44.07163" lon="7.15708">
        <ele>1017</ele>
        <time>2022-09-09T14:59:13Z</time>
      </trkpt>
      <trkpt lat="44.07184" lon="7.15499">
        <ele>1007</ele>
        <time>2022-09-09T14:59:28Z</time>
      </trkpt>
      <trkpt lat="44.07178" lon="7.15269">
        <ele>995</ele>
        <time>2022-09-09T14:59:43Z</time>
      </trkpt>
      <trkpt lat="44.0708" lon="7.15069">
        <ele>979</ele>
        <time>2022-09-09T14:59:58Z</time>
      </trkpt>
      <trkpt lat="44.07038" lon="7.14827">
        <ele>965</ele>
        <time>2022-09-09T15:00:14Z</time>
      </trkpt>
      <trkpt lat="44.0694" lon="7.14732">
        <ele>956</ele>
        <time>2022-09-09T15:00:29Z</time>
      </trkpt>
      <trkpt lat="44.06936" lon="7.14732">
        <ele>954</ele>
        <time>2022-09-09T15:00:45Z</time>
      </trkpt>
      <trkpt lat="44.06937" lon="7.14731">
        <ele>952.1</ele>
        <time>2022-09-09T15:01:00Z</time>
      </trkpt>
      <trkpt lat="44.06928" lon="7.14713">
        <ele>953.3</ele>
        <time>2022-09-09T15:01:15Z</time>
      </trkpt>
      <trkpt lat="44.06883" lon="7.14582">
        <ele>948</ele>
        <time>2022-09-09T15:01:31Z</time>
      </trkpt>
      <trkpt lat="44.06921" lon="7.1475">
        <ele>934</ele>
        <time>2022-09-09T15:01:46Z</time>
      </trkpt>
      <trkpt lat="44.06971" lon="7.14937">
        <ele>926</ele>
        <time>2022-09-09T15:02:02Z</time>
      </trkpt>
      <trkpt lat="44.06972" lon="7.15007">
        <ele>922</ele>
        <time>2022-09-09T15:02:18Z</time>
      </trkpt>
      <trkpt lat="44.06901" lon="7.14812">
        <ele>917</ele>
        <time>2022-09-09T15:02:34Z</time>
      </trkpt>
      <trkpt lat="44.06806" lon="7.14605">
        <ele>906</ele>
        <time>2022-09-09T15:02:49Z</time>
      </trkpt>
      <trkpt lat="44.06798" lon="7.14703">
        <ele>891</ele>
        <time>2022-09-09T15:03:05Z</time>
      </trkpt>
      <trkpt lat="44.06803" lon="7.14738">
        <ele>887</ele>
        <time>2022-09-09T15:03:21Z</time>
      </trkpt>
      <trkpt lat="44.06748" lon="7.146">
        <ele>880</ele>
        <time>2022-09-09T15:03:37Z</time>
      </trkpt>
      <trkpt lat="44.06606" lon="7.14599">
        <ele>867</ele>
        <time>2022-09-09T15:03:53Z</time>
      </trkpt>
      <trkpt lat="44.0653" lon="7.14465">
        <ele>855</ele>
        <time>2022-09-09T15:04:08Z</time>
      </trkpt>
      <trkpt lat="44.06507" lon="7.14486">
        <ele>842</ele>
        <time>2022-09-09T15:04:24Z</time>
      </trkpt>
      <trkpt lat="44.06499" lon="7.14687">
        <ele>829</ele>
        <time>2022-09-09T15:04:40Z</time>
      </trkpt>
      <trkpt lat="44.06466" lon="7.14751">
        <ele>828</ele>
        <time>2022-09-09T15:04:55Z</time>
      </trkpt>
      <trkpt lat="44.06413" lon="7.14539">
        <ele>819</ele>
        <time>2022-09-09T15:05:11Z</time>
      </trkpt>
      <trkpt lat="44.06403" lon="7.14272">
        <ele>806</ele>
        <time>2022-09-09T15:05:27Z</time>
      </trkpt>
      <trkpt lat="44.06392" lon="7.14049">
        <ele>802</ele>
        <time>2022-09-09T15:05:43Z</time>
      </trkpt>
      <trkpt lat="44.06292" lon="7.13926">
        <ele>790</ele>
        <time>2022-09-09T15:05:58Z</time>
      </trkpt>
      <trkpt lat="44.06151" lon="7.13821">
        <ele>775</ele>
        <time>2022-09-09T15:06:13Z</time>
      </trkpt>
      <trkpt lat="44.06072" lon="7.13676">
        <ele>767</ele>
        <time>2022-09-09T15:06:28Z</time>
      </trkpt>
      <trkpt lat="44.05953" lon="7.13554">
        <ele>753</ele>
        <time>2022-09-09T15:06:44Z</time>
      </trkpt>
      <trkpt lat="44.05824" lon="7.13447">
        <ele>750</ele>
        <time>2022-09-09T15:07:00Z</time>
      </trkpt>
      <trkpt lat="44.05692" lon="7.13386">
        <ele>746</ele>
        <time>2022-09-09T15:07:15Z</time>
      </trkpt>
      <trkpt lat="44.05536" lon="7.13391">
        <ele>741</ele>
        <time>2022-09-09T15:07:31Z</time>
      </trkpt>
      <trkpt lat="44.05403" lon="7.13392">
        <ele>735</ele>
        <time>2022-09-09T15:07:47Z</time>
      </trkpt>
      <trkpt lat="44.05402" lon="7.13398">
        <ele>732.2</ele>
        <time>2022-09-09T15:08:02Z</time>
      </trkpt>
      <trkpt lat="44.05401" lon="7.13395">
        <ele>725.9</ele>
        <time>2022-09-09T15:08:17Z</time>
      </trkpt>
      <trkpt lat="44.05399" lon="7.13389">
        <ele>728.8</ele>
        <time>2022-09-09T15:08:32Z</time>
      </trkpt>
      <trkpt lat="44.05388" lon="7.13377">
        <ele>724</ele>
        <time>2022-09-09T15:08:48Z</time>
      </trkpt>
      <trkpt lat="44.05396" lon="7.13385">
        <ele>719</ele>
        <time>2022-09-09T15:09:04Z</time>
      </trkpt>
      <trkpt lat="44.05368" lon="7.13371">
        <ele>718</ele>
        <time>2022-09-09T15:09:20Z</time>
      </trkpt>
      <trkpt lat="44.05285" lon="7.13362">
        <ele>717</ele>
        <time>2022-09-09T15:09:36Z</time>
      </trkpt>
      <trkpt lat="44.05148" lon="7.13367">
        <ele>710</ele>
        <time>2022-09-09T15:09:51Z</time>
      </trkpt>
      <trkpt lat="44.05027" lon="7.13264">
        <ele>695</ele>
        <time>2022-09-09T15:10:06Z</time>
      </trkpt>
      <trkpt lat="44.04872" lon="7.13209">
        <ele>685</ele>
        <time>2022-09-09T15:10:21Z</time>
      </trkpt>
      <trkpt lat="44.04886" lon="7.1303">
        <ele>661</ele>
        <time>2022-09-09T15:10:36Z</time>
      </trkpt>
      <trkpt lat="44.05047" lon="7.12928">
        <ele>644</ele>
        <time>2022-09-09T15:10:52Z</time>
      </trkpt>
      <trkpt lat="44.05184" lon="7.12748">
        <ele>620</ele>
        <time>2022-09-09T15:11:08Z</time>
      </trkpt>
      <trkpt lat="44.05309" lon="7.12624">
        <ele>605</ele>
        <time>2022-09-09T15:11:23Z</time>
      </trkpt>
      <trkpt lat="44.05433" lon="7.12473">
        <ele>592</ele>
        <time>2022-09-09T15:11:39Z</time>
      </trkpt>
      <trkpt lat="44.05464" lon="7.12213">
        <ele>582</ele>
        <time>2022-09-09T15:11:55Z</time>
      </trkpt>
      <trkpt lat="44.05492" lon="7.11959">
        <ele>580.8</ele>
        <time>2022-09-09T15:12:10Z</time>
      </trkpt>
      <trkpt lat="44.05477" lon="7.1196">
        <ele>550</ele>
        <time>2022-09-09T15:12:25Z</time>
      </trkpt>
      <trkpt lat="44.05469" lon="7.12123">
        <ele>546</ele>
        <time>2022-09-09T15:12:41Z</time>
      </trkpt>
      <trkpt lat="44.05451" lon="7.12097">
        <ele>553.9</ele>
        <time>2022-09-09T15:12:56Z</time>
      </trkpt>
      <trkpt lat="44.0546" lon="7.12087">
        <ele>553.2</ele>
        <time>2022-09-09T15:13:12Z</time>
      </trkpt>
      <trkpt lat="44.05461" lon="7.12087">
        <ele>554.4</ele>
        <time>2022-09-09T15:13:27Z</time>
      </trkpt>
      <trkpt lat="44.05461" lon="7.12086">
        <ele>554.7</ele>
        <time>2022-09-09T15:13:42Z</time>
      </trkpt>
      <trkpt lat="44.05459" lon="7.12086">
        <ele>553.4</ele>
        <time>2022-09-09T15:13:57Z</time>
      </trkpt>
      <trkpt lat="44.05462" lon="7.12089">
        <ele>554</ele>
        <time>2022-09-09T15:14:13Z</time>
      </trkpt>
      <trkpt lat="44.05462" lon="7.12089">
        <ele>544.3</ele>
        <time>2022-09-09T15:14:29Z</time>
      </trkpt>
      <trkpt lat="44.05465" lon="7.12089">
        <ele>549.4</ele>
        <time>2022-09-09T15:14:45Z</time>
      </trkpt>
      <trkpt lat="44.05471" lon="7.12082">
        <ele>542</ele>
        <time>2022-09-09T15:15:00Z</time>
      </trkpt>
      <trkpt lat="44.05468" lon="7.11992">
        <ele>541</ele>
        <time>2022-09-09T15:15:15Z</time>
      </trkpt>
      <trkpt lat="44.05461" lon="7.11874">
        <ele>539</ele>
        <time>2022-09-09T15:15:31Z</time>
      </trkpt>
      <trkpt lat="44.05533" lon="7.1192">
        <ele>537</ele>
        <time>2022-09-09T15:15:46Z</time>
      </trkpt>
      <trkpt lat="44.05607" lon="7.11923">
        <ele>534</ele>
        <time>2022-09-09T15:16:01Z</time>
      </trkpt>
      <trkpt lat="44.0569" lon="7.11894">
        <ele>531</ele>
        <time>2022-09-09T15:16:16Z</time>
      </trkpt>
      <trkpt lat="44.05792" lon="7.11842">
        <ele>526</ele>
        <time>2022-09-09T15:16:32Z</time>
      </trkpt>
      <trkpt lat="44.05893" lon="7.11847">
        <ele>524</ele>
        <time>2022-09-09T15:16:48Z</time>
      </trkpt>
      <trkpt lat="44.05982" lon="7.11786">
        <ele>523</ele>
        <time>2022-09-09T15:17:04Z</time>
      </trkpt>
      <trkpt lat="44.06079" lon="7.1177">
        <ele>523</ele>
        <time>2022-09-09T15:17:20Z</time>
      </trkpt>
      <trkpt lat="44.06171" lon="7.11804">
        <ele>521</ele>
        <time>2022-09-09T15:17:36Z</time>
      </trkpt>
      <trkpt lat="44.06246" lon="7.11743">
        <ele>516</ele>
        <time>2022-09-09T15:17:51Z</time>
      </trkpt>
      <trkpt lat="44.06333" lon="7.11717">
        <ele>517</ele>
        <time>2022-09-09T15:18:07Z</time>
      </trkpt>
      <trkpt lat="44.06437" lon="7.11728">
        <ele>516</ele>
        <time>2022-09-09T15:18:23Z</time>
      </trkpt>
      <trkpt lat="44.06467" lon="7.11614">
        <ele>521</ele>
        <time>2022-09-09T15:18:38Z</time>
      </trkpt>
      <trkpt lat="44.06507" lon="7.11497">
        <ele>520</ele>
        <time>2022-09-09T15:18:54Z</time>
      </trkpt>
      <trkpt lat="44.0658" lon="7.11458">
        <ele>522</ele>
        <time>2022-09-09T15:19:10Z</time>
      </trkpt>
      <trkpt lat="44.06667" lon="7.1148">
        <ele>520</ele>
        <time>2022-09-09T15:19:26Z</time>
      </trkpt>
      <trkpt lat="44.06762" lon="7.11456">
        <ele>517</ele>
        <time>2022-09-09T15:19:41Z</time>
      </trkpt>
      <trkpt lat="44.06834" lon="7.11375">
        <ele>517</ele>
        <time>2022-09-09T15:19:57Z</time>
      </trkpt>
      <trkpt lat="44.06864" lon="7.11248">
        <ele>521</ele>
        <time>2022-09-09T15:20:13Z</time>
      </trkpt>
      <trkpt lat="44.06924" lon="7.11154">
        <ele>520</ele>
        <time>2022-09-09T15:20:29Z</time>
      </trkpt>
      <trkpt lat="44.07" lon="7.11066">
        <ele>519</ele>
        <time>2022-09-09T15:20:45Z</time>
      </trkpt>
      <trkpt lat="44.07086" lon="7.11003">
        <ele>518</ele>
        <time>2022-09-09T15:21:00Z</time>
      </trkpt>
      <trkpt lat="44.07174" lon="7.10964">
        <ele>521</ele>
        <time>2022-09-09T15:21:16Z</time>
      </trkpt>
      <trkpt lat="44.07274" lon="7.10975">
        <ele>522</ele>
        <time>2022-09-09T15:21:32Z</time>
      </trkpt>
      <trkpt lat="44.07371" lon="7.1095">
        <ele>525</ele>
        <time>2022-09-09T15:21:48Z</time>
      </trkpt>
      <trkpt lat="44.07457" lon="7.10908">
        <ele>525</ele>
        <time>2022-09-09T15:22:04Z</time>
      </trkpt>
      <trkpt lat="44.07539" lon="7.10829">
        <ele>524</ele>
        <time>2022-09-09T15:22:19Z</time>
      </trkpt>
      <trkpt lat="44.07615" lon="7.10766">
        <ele>524</ele>
        <time>2022-09-09T15:22:34Z</time>
      </trkpt>
      <trkpt lat="44.07678" lon="7.10674">
        <ele>524</ele>
        <time>2022-09-09T15:22:49Z</time>
      </trkpt>
      <trkpt lat="44.07724" lon="7.10566">
        <ele>525</ele>
        <time>2022-09-09T15:23:04Z</time>
      </trkpt>
      <trkpt lat="44.07799" lon="7.10491">
        <ele>525</ele>
        <time>2022-09-09T15:23:20Z</time>
      </trkpt>
      <trkpt lat="44.07894" lon="7.10522">
        <ele>529</ele>
        <time>2022-09-09T15:23:36Z</time>
      </trkpt>
      <trkpt lat="44.07977" lon="7.10542">
        <ele>531</ele>
        <time>2022-09-09T15:23:52Z</time>
      </trkpt>
      <trkpt lat="44.08001" lon="7.10576">
        <ele>537</ele>
        <time>2022-09-09T15:24:08Z</time>
      </trkpt>
      <trkpt lat="44.08" lon="7.10574">
        <ele>551.4</ele>
        <time>2022-09-09T15:24:24Z</time>
      </trkpt>
      <trkpt lat="44.08" lon="7.10574">
        <ele>551.9</ele>
        <time>2022-09-09T15:24:39Z</time>
      </trkpt>
      <trkpt lat="44.08" lon="7.10574">
        <ele>551.1</ele>
        <time>2022-09-09T15:24:54Z</time>
      </trkpt>
      <trkpt lat="44.08" lon="7.10574">
        <ele>550.9</ele>
        <time>2022-09-09T15:25:10Z</time>
      </trkpt>
      <trkpt lat="44.08009" lon="7.106">
        <ele>550.7</ele>
        <time>2022-09-09T15:25:25Z</time>
      </trkpt>
      <trkpt lat="44.08062" lon="7.10673">
        <ele>537</ele>
        <time>2022-09-09T15:25:40Z</time>
      </trkpt>
      <trkpt lat="44.08155" lon="7.10673">
        <ele>539</ele>
        <time>2022-09-09T15:25:56Z</time>
      </trkpt>
      <trkpt lat="44.08216" lon="7.10631">
        <ele>552.3</ele>
        <time>2022-09-09T15:26:11Z</time>
      </trkpt>
      <trkpt lat="44.08249" lon="7.10595">
        <ele>540</ele>
        <time>2022-09-09T15:26:26Z</time>
      </trkpt>
      <trkpt lat="44.08244" lon="7.10598">
        <ele>553.1</ele>
        <time>2022-09-09T15:26:41Z</time>
      </trkpt>
      <trkpt lat="44.08243" lon="7.10597">
        <ele>554</ele>
        <time>2022-09-09T15:26:56Z</time>
      </trkpt>
      <trkpt lat="44.08242" lon="7.10593">
        <ele>553.7</ele>
        <time>2022-09-09T15:27:11Z</time>
      </trkpt>
      <trkpt lat="44.08243" lon="7.10591">
        <ele>553.9</ele>
        <time>2022-09-09T15:27:27Z</time>
      </trkpt>
      <trkpt lat="44.08235" lon="7.10599">
        <ele>554.1</ele>
        <time>2022-09-09T15:27:43Z</time>
      </trkpt>
      <trkpt lat="44.08235" lon="7.10615">
        <ele>553.2</ele>
        <time>2022-09-09T15:27:58Z</time>
      </trkpt>
      <trkpt lat="44.08244" lon="7.10624">
        <ele>553.7</ele>
        <time>2022-09-09T15:28:13Z</time>
      </trkpt>
      <trkpt lat="44.08248" lon="7.10626">
        <ele>553.2</ele>
        <time>2022-09-09T15:28:28Z</time>
      </trkpt>
      <trkpt lat="44.08248" lon="7.10631">
        <ele>553</ele>
        <time>2022-09-09T15:28:43Z</time>
      </trkpt>
      <trkpt lat="44.08252" lon="7.10633">
        <ele>552.9</ele>
        <time>2022-09-09T15:28:58Z</time>
      </trkpt>
      <trkpt lat="44.0825" lon="7.10641">
        <ele>553.7</ele>
        <time>2022-09-09T15:29:14Z</time>
      </trkpt>
      <trkpt lat="44.08248" lon="7.10636">
        <ele>553.6</ele>
        <time>2022-09-09T15:29:29Z</time>
      </trkpt>
      <trkpt lat="44.08248" lon="7.10636">
        <ele>553.4</ele>
        <time>2022-09-09T15:29:45Z</time>
      </trkpt>
      <trkpt lat="44.08248" lon="7.10636">
        <ele>553.5</ele>
        <time>2022-09-09T15:30:00Z</time>
      </trkpt>
      <trkpt lat="44.08248" lon="7.10636">
        <ele>553.3</ele>
        <time>2022-09-09T15:30:15Z</time>
      </trkpt>
      <trkpt lat="44.08251" lon="7.10638">
        <ele>548.1</ele>
        <time>2022-09-09T15:30:30Z</time>
      </trkpt>
      <trkpt lat="44.08256" lon="7.10633">
        <ele>554</ele>
        <time>2022-09-09T15:30:46Z</time>
      </trkpt>
      <trkpt lat="44.08248" lon="7.10625">
        <ele>553.3</ele>
        <time>2022-09-09T15:31:01Z</time>
      </trkpt>
      <trkpt lat="44.08252" lon="7.10598">
        <ele>547.8</ele>
        <time>2022-09-09T15:31:47Z</time>
      </trkpt>
    </trkseg>
  </trk>
</gpx>